<?xml version="1.0" encoding="UTF-8" standalone="no" ?>
<gpx xmlns="http://www.topografix.com/GPX/1/1" xmlns:xsi="http://www.w3.org/2001/XMLSchema-instance" xsi:schemaLocation="http://www.topografix.com/GPX/1/1 http://www.topografix.com/GPX/1/1/gpx.xsd" version="1.1" creator="VisuGPX - https://www.visugpx.com">
  <metadata>
    <name>Jour 6 : Rosnoën_Menez Hom</name>
  </metadata>
  <trk>
    <name><![CDATA[F_GTB 2022-Rosnoën_Menez Hom]]></name>
    <trkseg>
      <trkpt lat="48.2638" lon="-4.19619">
        <ele>143.45874</ele>
        <time>2020-06-21T12:58:37.634Z</time>
      </trkpt>
      <trkpt lat="48.26379" lon="-4.19626">
        <ele>143.45874</ele>
        <time>2020-06-21T12:58:38.329Z</time>
      </trkpt>
      <trkpt lat="48.26363" lon="-4.1971">
        <ele>143.45874</ele>
        <time>2020-06-21T12:58:46.759Z</time>
      </trkpt>
      <trkpt lat="48.26347" lon="-4.19796">
        <ele>142.669683</ele>
        <time>2020-06-21T12:58:55.467Z</time>
      </trkpt>
      <trkpt lat="48.26347" lon="-4.19885">
        <ele>141.225565</ele>
        <time>2020-06-21T12:59:03.976Z</time>
      </trkpt>
      <trkpt lat="48.26379" lon="-4.20139">
        <ele>137.974437</ele>
        <time>2020-06-21T12:59:30.980Z</time>
      </trkpt>
      <trkpt lat="48.26385" lon="-4.20515">
        <ele>135.889949</ele>
        <time>2020-06-21T13:00:14.208Z</time>
      </trkpt>
      <trkpt lat="48.26392" lon="-4.20568">
        <ele>135.807563</ele>
        <time>2020-06-21T13:00:21.542Z</time>
      </trkpt>
      <trkpt lat="48.2641" lon="-4.20641">
        <ele>136.081157</ele>
        <time>2020-06-21T13:00:33.418Z</time>
      </trkpt>
      <trkpt lat="48.26491" lon="-4.2087">
        <ele>135.532512</ele>
        <time>2020-06-21T13:01:12.939Z</time>
      </trkpt>
      <trkpt lat="48.265" lon="-4.20897">
        <ele>135.113739</ele>
        <time>2020-06-21T13:01:16.147Z</time>
      </trkpt>
      <trkpt lat="48.2646" lon="-4.20926">
        <ele>134.167611</ele>
        <time>2020-06-21T13:01:23.184Z</time>
      </trkpt>
      <trkpt lat="48.26335" lon="-4.21114">
        <ele>128.556779</ele>
        <time>2020-06-21T13:01:48.589Z</time>
      </trkpt>
      <trkpt lat="48.26316" lon="-4.21156">
        <ele>127.294095</ele>
        <time>2020-06-21T13:01:53.725Z</time>
      </trkpt>
      <trkpt lat="48.26305" lon="-4.21202">
        <ele>126.201963</ele>
        <time>2020-06-21T13:01:58.870Z</time>
      </trkpt>
      <trkpt lat="48.26297" lon="-4.21269">
        <ele>126.275792</ele>
        <time>2020-06-21T13:02:06.826Z</time>
      </trkpt>
      <trkpt lat="48.26295" lon="-4.21333">
        <ele>126.344905</ele>
        <time>2020-06-21T13:02:19.226Z</time>
      </trkpt>
      <trkpt lat="48.263" lon="-4.21372">
        <ele>126.387428</ele>
        <time>2020-06-21T13:02:25.068Z</time>
      </trkpt>
      <trkpt lat="48.26321" lon="-4.21468">
        <ele>126.567397</ele>
        <time>2020-06-21T13:02:40.402Z</time>
      </trkpt>
      <trkpt lat="48.26339" lon="-4.21504">
        <ele>127.007196</ele>
        <time>2020-06-21T13:02:48.892Z</time>
      </trkpt>
      <trkpt lat="48.26353" lon="-4.21521">
        <ele>127.280283</ele>
        <time>2020-06-21T13:02:55.415Z</time>
      </trkpt>
      <trkpt lat="48.26343" lon="-4.21562">
        <ele>127.723121</ele>
        <time>2020-06-21T13:03:03.478Z</time>
      </trkpt>
      <trkpt lat="48.26347" lon="-4.21612">
        <ele>128.22042</ele>
        <time>2020-06-21T13:03:13.260Z</time>
      </trkpt>
      <trkpt lat="48.26363" lon="-4.21673">
        <ele>128.875948</ele>
        <time>2020-06-21T13:03:28.146Z</time>
      </trkpt>
      <trkpt lat="48.26422" lon="-4.21844">
        <ele>128.149139</ele>
        <time>2020-06-21T13:03:54.208Z</time>
      </trkpt>
      <trkpt lat="48.26433" lon="-4.2189">
        <ele>127.838183</ele>
        <time>2020-06-21T13:03:59.811Z</time>
      </trkpt>
      <trkpt lat="48.26434" lon="-4.21915">
        <ele>127.681521</ele>
        <time>2020-06-21T13:04:02.432Z</time>
      </trkpt>
      <trkpt lat="48.26415" lon="-4.22065">
        <ele>123.93101</ele>
        <time>2020-06-21T13:04:17.447Z</time>
      </trkpt>
      <trkpt lat="48.26407" lon="-4.22118">
        <ele>122.323274</ele>
        <time>2020-06-21T13:04:26.071Z</time>
      </trkpt>
      <trkpt lat="48.2638" lon="-4.22241">
        <ele>118.494802</ele>
        <time>2020-06-21T13:04:46.800Z</time>
      </trkpt>
      <trkpt lat="48.26367" lon="-4.2233">
        <ele>115.826597</ele>
        <time>2020-06-21T13:05:01.446Z</time>
      </trkpt>
      <trkpt lat="48.26356" lon="-4.22589">
        <ele>108.887098</ele>
        <time>2020-06-21T13:05:44.750Z</time>
      </trkpt>
      <trkpt lat="48.26343" lon="-4.22672">
        <ele>106.93235</ele>
        <time>2020-06-21T13:05:59.181Z</time>
      </trkpt>
      <trkpt lat="48.26336" lon="-4.22713">
        <ele>105.951712</ele>
        <time>2020-06-21T13:06:03.491Z</time>
      </trkpt>
      <trkpt lat="48.26331" lon="-4.22801">
        <ele>104.245</ele>
        <time>2020-06-21T13:06:12.677Z</time>
      </trkpt>
      <trkpt lat="48.26323" lon="-4.22896">
        <ele>102.570096</ele>
        <time>2020-06-21T13:06:29.343Z</time>
      </trkpt>
      <trkpt lat="48.26324" lon="-4.22952">
        <ele>101.605764</ele>
        <time>2020-06-21T13:06:39.079Z</time>
      </trkpt>
      <trkpt lat="48.26327" lon="-4.22987">
        <ele>100.988054</ele>
        <time>2020-06-21T13:06:45.441Z</time>
      </trkpt>
      <trkpt lat="48.26368" lon="-4.23174">
        <ele>100.604643</ele>
        <time>2020-06-21T13:07:22.748Z</time>
      </trkpt>
      <trkpt lat="48.26546" lon="-4.23615">
        <ele>106.600431</ele>
        <time>2020-06-21T13:09:58.572Z</time>
      </trkpt>
      <trkpt lat="48.26621" lon="-4.23704">
        <ele>106.788354</ele>
        <time>2020-06-21T13:10:29.114Z</time>
      </trkpt>
      <trkpt lat="48.26669" lon="-4.23758">
        <ele>103.53485</ele>
        <time>2020-06-21T13:10:44.389Z</time>
      </trkpt>
      <trkpt lat="48.2664" lon="-4.23855">
        <ele>99.714377</ele>
        <time>2020-06-21T13:10:53.423Z</time>
      </trkpt>
      <trkpt lat="48.26624" lon="-4.23881">
        <ele>98.45608</ele>
        <time>2020-06-21T13:10:56.306Z</time>
      </trkpt>
      <trkpt lat="48.26622" lon="-4.23971">
        <ele>92.368329</ele>
        <time>2020-06-21T13:11:09.396Z</time>
      </trkpt>
      <trkpt lat="48.26647" lon="-4.24116">
        <ele>81.3191</ele>
        <time>2020-06-21T13:11:30.221Z</time>
      </trkpt>
      <trkpt lat="48.26652" lon="-4.24542">
        <ele>48.650517</ele>
        <time>2020-06-21T13:12:29.284Z</time>
      </trkpt>
      <trkpt lat="48.2666" lon="-4.24542">
        <ele>47.828796</ele>
        <time>2020-06-21T13:12:31.091Z</time>
      </trkpt>
      <trkpt lat="48.26671" lon="-4.24554">
        <ele>46.498045</ele>
        <time>2020-06-21T13:12:33.887Z</time>
      </trkpt>
      <trkpt lat="48.26681" lon="-4.24584">
        <ele>44.273108</ele>
        <time>2020-06-21T13:12:38.705Z</time>
      </trkpt>
      <trkpt lat="48.26685" lon="-4.24639">
        <ele>40.554455</ele>
        <time>2020-06-21T13:12:46.829Z</time>
      </trkpt>
      <trkpt lat="48.26652" lon="-4.2466">
        <ele>37.657239</ele>
        <time>2020-06-21T13:12:54.748Z</time>
      </trkpt>
      <trkpt lat="48.26632" lon="-4.24708">
        <ele>36.471332</ele>
        <time>2020-06-21T13:13:03.596Z</time>
      </trkpt>
      <trkpt lat="48.26625" lon="-4.24778">
        <ele>34.974508</ele>
        <time>2020-06-21T13:13:15.425Z</time>
      </trkpt>
      <trkpt lat="48.26641" lon="-4.24867">
        <ele>33.011745</ele>
        <time>2020-06-21T13:13:31.861Z</time>
      </trkpt>
      <trkpt lat="48.26657" lon="-4.24918">
        <ele>32.454174</ele>
        <time>2020-06-21T13:13:47.677Z</time>
      </trkpt>
      <trkpt lat="48.26678" lon="-4.24966">
        <ele>33.045824</ele>
        <time>2020-06-21T13:14:04.621Z</time>
      </trkpt>
      <trkpt lat="48.26763" lon="-4.25095">
        <ele>34.906502</ele>
        <time>2020-06-21T13:14:56.845Z</time>
      </trkpt>
      <trkpt lat="48.26827" lon="-4.25218">
        <ele>33.657872</ele>
        <time>2020-06-21T13:15:28.066Z</time>
      </trkpt>
      <trkpt lat="48.26887" lon="-4.25416">
        <ele>30.897535</ele>
        <time>2020-06-21T13:16:05.705Z</time>
      </trkpt>
      <trkpt lat="48.26951" lon="-4.25677">
        <ele>28.027347</ele>
        <time>2020-06-21T13:16:55.509Z</time>
      </trkpt>
      <trkpt lat="48.26984" lon="-4.25841">
        <ele>28.403781</ele>
        <time>2020-06-21T13:17:39.553Z</time>
      </trkpt>
      <trkpt lat="48.26992" lon="-4.25873">
        <ele>29.721871</ele>
        <time>2020-06-21T13:17:50.604Z</time>
      </trkpt>
      <trkpt lat="48.27006" lon="-4.25929">
        <ele>31.99921</ele>
        <time>2020-06-21T13:18:11.838Z</time>
      </trkpt>
      <trkpt lat="48.27023" lon="-4.26024">
        <ele>35.76303</ele>
        <time>2020-06-21T13:19:00.764Z</time>
      </trkpt>
      <trkpt lat="48.27038" lon="-4.26038">
        <ele>36.783913</ele>
        <time>2020-06-21T13:19:15.500Z</time>
      </trkpt>
      <trkpt lat="48.27057" lon="-4.26071">
        <ele>38.473259</ele>
        <time>2020-06-21T13:19:33.807Z</time>
      </trkpt>
      <trkpt lat="48.27077" lon="-4.26095">
        <ele>38.99621</ele>
        <time>2020-06-21T13:19:46.252Z</time>
      </trkpt>
      <trkpt lat="48.27125" lon="-4.26123">
        <ele>39.680711</ele>
        <time>2020-06-21T13:20:11.436Z</time>
      </trkpt>
      <trkpt lat="48.27161" lon="-4.26252">
        <ele>40.925183</ele>
        <time>2020-06-21T13:20:39.454Z</time>
      </trkpt>
      <trkpt lat="48.2715" lon="-4.2624">
        <ele>41.104881</ele>
        <time>2020-06-21T13:20:44.415Z</time>
      </trkpt>
      <trkpt lat="48.27147" lon="-4.26245">
        <ele>41.055806</ele>
        <time>2020-06-21T13:20:45.021Z</time>
      </trkpt>
      <trkpt lat="48.27156" lon="-4.26258">
        <ele>40.914076</ele>
        <time>2020-06-21T13:20:47.671Z</time>
      </trkpt>
      <trkpt lat="48.27156" lon="-4.26274">
        <ele>40.790955</ele>
        <time>2020-06-21T13:20:50.133Z</time>
      </trkpt>
      <trkpt lat="48.27132" lon="-4.26264">
        <ele>40.512169</ele>
        <time>2020-06-21T13:20:53.473Z</time>
      </trkpt>
      <trkpt lat="48.27097" lon="-4.26256">
        <ele>40.10405</ele>
        <time>2020-06-21T13:20:58.356Z</time>
      </trkpt>
      <trkpt lat="48.27039" lon="-4.26267">
        <ele>39.442644</ele>
        <time>2020-06-21T13:21:07.767Z</time>
      </trkpt>
      <trkpt lat="48.26986" lon="-4.26291">
        <ele>40.037572</ele>
        <time>2020-06-21T13:21:46.299Z</time>
      </trkpt>
      <trkpt lat="48.26917" lon="-4.26334">
        <ele>43.305025</ele>
        <time>2020-06-21T13:22:38.328Z</time>
      </trkpt>
      <trkpt lat="48.2688" lon="-4.26364">
        <ele>45.14918</ele>
        <time>2020-06-21T13:23:07.718Z</time>
      </trkpt>
      <trkpt lat="48.26832" lon="-4.26403">
        <ele>47.523529</ele>
        <time>2020-06-21T13:23:45.672Z</time>
      </trkpt>
      <trkpt lat="48.26786" lon="-4.26453">
        <ele>49.946788</ele>
        <time>2020-06-21T13:24:24.886Z</time>
      </trkpt>
      <trkpt lat="48.26757" lon="-4.26496">
        <ele>51.716867</ele>
        <time>2020-06-21T13:24:53.503Z</time>
      </trkpt>
      <trkpt lat="48.26731" lon="-4.26556">
        <ele>53.763772</ele>
        <time>2020-06-21T13:25:26.572Z</time>
      </trkpt>
      <trkpt lat="48.26722" lon="-4.26593">
        <ele>54.502748</ele>
        <time>2020-06-21T13:25:33.736Z</time>
      </trkpt>
      <trkpt lat="48.26714" lon="-4.26586">
        <ele>54.180481</ele>
        <time>2020-06-21T13:25:36.703Z</time>
      </trkpt>
      <trkpt lat="48.26711" lon="-4.26575">
        <ele>53.911339</ele>
        <time>2020-06-21T13:25:39.619Z</time>
      </trkpt>
      <trkpt lat="48.26701" lon="-4.26423">
        <ele>50.491371</ele>
        <time>2020-06-21T13:26:00.797Z</time>
      </trkpt>
      <trkpt lat="48.26698" lon="-4.26394">
        <ele>49.829549</ele>
        <time>2020-06-21T13:26:03.574Z</time>
      </trkpt>
      <trkpt lat="48.26694" lon="-4.26378">
        <ele>49.44768</ele>
        <time>2020-06-21T13:26:05.152Z</time>
      </trkpt>
      <trkpt lat="48.26674" lon="-4.26217">
        <ele>42.572005</ele>
        <time>2020-06-21T13:26:18.954Z</time>
      </trkpt>
      <trkpt lat="48.26675" lon="-4.26159">
        <ele>39.788362</ele>
        <time>2020-06-21T13:26:24.232Z</time>
      </trkpt>
      <trkpt lat="48.26685" lon="-4.26128">
        <ele>38.137612</ele>
        <time>2020-06-21T13:26:27.221Z</time>
      </trkpt>
      <trkpt lat="48.26701" lon="-4.26161">
        <ele>36.20211</ele>
        <time>2020-06-21T13:26:34.193Z</time>
      </trkpt>
      <trkpt lat="48.26737" lon="-4.26312">
        <ele>34.164749</ele>
        <time>2020-06-21T13:27:01.897Z</time>
      </trkpt>
      <trkpt lat="48.26757" lon="-4.26385">
        <ele>33.37446</ele>
        <time>2020-06-21T13:27:21.818Z</time>
      </trkpt>
      <trkpt lat="48.26772" lon="-4.2645">
        <ele>32.897034</ele>
        <time>2020-06-21T13:27:38.577Z</time>
      </trkpt>
      <trkpt lat="48.26781" lon="-4.26524">
        <ele>32.76415</ele>
        <time>2020-06-21T13:27:54.181Z</time>
      </trkpt>
      <trkpt lat="48.26815" lon="-4.26676">
        <ele>32.482317</ele>
        <time>2020-06-21T13:28:25.763Z</time>
      </trkpt>
      <trkpt lat="48.26837" lon="-4.26705">
        <ele>32.501604</ele>
        <time>2020-06-21T13:28:35.162Z</time>
      </trkpt>
      <trkpt lat="48.26848" lon="-4.26764">
        <ele>32.557536</ele>
        <time>2020-06-21T13:28:48.224Z</time>
      </trkpt>
      <trkpt lat="48.2685" lon="-4.26816">
        <ele>32.604561</ele>
        <time>2020-06-21T13:28:59.268Z</time>
      </trkpt>
      <trkpt lat="48.26847" lon="-4.26875">
        <ele>32.658451</ele>
        <time>2020-06-21T13:29:12.406Z</time>
      </trkpt>
      <trkpt lat="48.2685" lon="-4.26887">
        <ele>32.67007</ele>
        <time>2020-06-21T13:29:15.313Z</time>
      </trkpt>
      <trkpt lat="48.26908" lon="-4.26928">
        <ele>33.02034</ele>
        <time>2020-06-21T13:29:37.269Z</time>
      </trkpt>
      <trkpt lat="48.26922" lon="-4.26954">
        <ele>33.236521</ele>
        <time>2020-06-21T13:29:45.704Z</time>
      </trkpt>
      <trkpt lat="48.2692" lon="-4.27004">
        <ele>33.558208</ele>
        <time>2020-06-21T13:29:57.787Z</time>
      </trkpt>
      <trkpt lat="48.26925" lon="-4.27014">
        <ele>33.638806</ele>
        <time>2020-06-21T13:30:00.912Z</time>
      </trkpt>
      <trkpt lat="48.26948" lon="-4.27017">
        <ele>33.862292</ele>
        <time>2020-06-21T13:30:08.953Z</time>
      </trkpt>
      <trkpt lat="48.26971" lon="-4.27042">
        <ele>34.135782</ele>
        <time>2020-06-21T13:30:19.001Z</time>
      </trkpt>
      <trkpt lat="48.27009" lon="-4.27122">
        <ele>35.11601</ele>
        <time>2020-06-21T13:30:44.588Z</time>
      </trkpt>
      <trkpt lat="48.27042" lon="-4.27154">
        <ele>35.909343</ele>
        <time>2020-06-21T13:31:01.419Z</time>
      </trkpt>
      <trkpt lat="48.27063" lon="-4.27188">
        <ele>36.529636</ele>
        <time>2020-06-21T13:31:14.723Z</time>
      </trkpt>
      <trkpt lat="48.27075" lon="-4.27228">
        <ele>37.128756</ele>
        <time>2020-06-21T13:31:27.812Z</time>
      </trkpt>
      <trkpt lat="48.27074" lon="-4.27245">
        <ele>37.360918</ele>
        <time>2020-06-21T13:31:33.018Z</time>
      </trkpt>
      <trkpt lat="48.27109" lon="-4.27341">
        <ele>38.485451</ele>
        <time>2020-06-21T13:32:03.805Z</time>
      </trkpt>
      <trkpt lat="48.27142" lon="-4.27476">
        <ele>39.491763</ele>
        <time>2020-06-21T13:32:40.289Z</time>
      </trkpt>
      <trkpt lat="48.27149" lon="-4.27486">
        <ele>39.59096</ele>
        <time>2020-06-21T13:32:43.539Z</time>
      </trkpt>
      <trkpt lat="48.27167" lon="-4.27591">
        <ele>39.82479</ele>
        <time>2020-06-21T13:33:06.092Z</time>
      </trkpt>
      <trkpt lat="48.2717" lon="-4.27644">
        <ele>39.662938</ele>
        <time>2020-06-21T13:33:16.534Z</time>
      </trkpt>
      <trkpt lat="48.27166" lon="-4.27799">
        <ele>39.188021</ele>
        <time>2020-06-21T13:33:47.571Z</time>
      </trkpt>
      <trkpt lat="48.27161" lon="-4.27839">
        <ele>38.582353</ele>
        <time>2020-06-21T13:33:56.251Z</time>
      </trkpt>
      <trkpt lat="48.27143" lon="-4.27908">
        <ele>37.173189</ele>
        <time>2020-06-21T13:34:11.306Z</time>
      </trkpt>
      <trkpt lat="48.27142" lon="-4.27914">
        <ele>37.052201</ele>
        <time>2020-06-21T13:34:12.492Z</time>
      </trkpt>
      <trkpt lat="48.27142" lon="-4.27946">
        <ele>36.440537</ele>
        <time>2020-06-21T13:34:18.409Z</time>
      </trkpt>
      <trkpt lat="48.27174" lon="-4.28082">
        <ele>33.411002</ele>
        <time>2020-06-21T13:34:41.844Z</time>
      </trkpt>
      <trkpt lat="48.27236" lon="-4.2798">
        <ele>28.29191</ele>
        <time>2020-06-21T13:35:02.497Z</time>
      </trkpt>
      <trkpt lat="48.27294" lon="-4.27885">
        <ele>24.294551</ele>
        <time>2020-06-21T13:35:23.317Z</time>
      </trkpt>
      <trkpt lat="48.27329" lon="-4.27884">
        <ele>25.211031</ele>
        <time>2020-06-21T13:35:33.135Z</time>
      </trkpt>
      <trkpt lat="48.2736" lon="-4.27906">
        <ele>26.114367</ele>
        <time>2020-06-21T13:35:45.798Z</time>
      </trkpt>
      <trkpt lat="48.2738" lon="-4.27923">
        <ele>26.724268</ele>
        <time>2020-06-21T13:35:59.034Z</time>
      </trkpt>
      <trkpt lat="48.27398" lon="-4.27949">
        <ele>27.362383</ele>
        <time>2020-06-21T13:36:11.094Z</time>
      </trkpt>
      <trkpt lat="48.27425" lon="-4.28017">
        <ele>28.746034</ele>
        <time>2020-06-21T13:36:46.011Z</time>
      </trkpt>
      <trkpt lat="48.27463" lon="-4.28068">
        <ele>31.271447</ele>
        <time>2020-06-21T13:37:23.132Z</time>
      </trkpt>
      <trkpt lat="48.27475" lon="-4.28093">
        <ele>32.283743</ele>
        <time>2020-06-21T13:37:38.503Z</time>
      </trkpt>
      <trkpt lat="48.27494" lon="-4.28191">
        <ele>35.672274</ele>
        <time>2020-06-21T13:38:14.623Z</time>
      </trkpt>
      <trkpt lat="48.27489" lon="-4.28248">
        <ele>37.570488</ele>
        <time>2020-06-21T13:38:32.318Z</time>
      </trkpt>
      <trkpt lat="48.27473" lon="-4.28296">
        <ele>37.320226</ele>
        <time>2020-06-21T13:38:46.692Z</time>
      </trkpt>
      <trkpt lat="48.27432" lon="-4.28376">
        <ele>36.514241</ele>
        <time>2020-06-21T13:39:05.686Z</time>
      </trkpt>
      <trkpt lat="48.27404" lon="-4.28489">
        <ele>35.537412</ele>
        <time>2020-06-21T13:39:27.167Z</time>
      </trkpt>
      <trkpt lat="48.274" lon="-4.28524">
        <ele>34.622645</ele>
        <time>2020-06-21T13:39:32.947Z</time>
      </trkpt>
      <trkpt lat="48.27346" lon="-4.2863">
        <ele>31.185454</ele>
        <time>2020-06-21T13:39:46.086Z</time>
      </trkpt>
      <trkpt lat="48.27308" lon="-4.2873">
        <ele>28.209483</ele>
        <time>2020-06-21T13:40:05.053Z</time>
      </trkpt>
      <trkpt lat="48.27302" lon="-4.28754">
        <ele>27.565801</ele>
        <time>2020-06-21T13:40:09.192Z</time>
      </trkpt>
      <trkpt lat="48.27323" lon="-4.2889">
        <ele>24.043519</ele>
        <time>2020-06-21T13:40:32.565Z</time>
      </trkpt>
      <trkpt lat="48.27332" lon="-4.28913">
        <ele>23.353151</ele>
        <time>2020-06-21T13:40:36.988Z</time>
      </trkpt>
      <trkpt lat="48.27344" lon="-4.29023">
        <ele>20.941973</ele>
        <time>2020-06-21T13:40:55.973Z</time>
      </trkpt>
      <trkpt lat="48.27351" lon="-4.29156">
        <ele>18.671846</ele>
        <time>2020-06-21T13:41:18.464Z</time>
      </trkpt>
      <trkpt lat="48.27344" lon="-4.2927">
        <ele>17.40608</ele>
        <time>2020-06-21T13:41:40.732Z</time>
      </trkpt>
      <trkpt lat="48.27347" lon="-4.29281">
        <ele>17.535658</ele>
        <time>2020-06-21T13:41:42.721Z</time>
      </trkpt>
      <trkpt lat="48.27365" lon="-4.29328">
        <ele>18.139257</ele>
        <time>2020-06-21T13:41:55.911Z</time>
      </trkpt>
      <trkpt lat="48.27368" lon="-4.29338">
        <ele>18.263943</ele>
        <time>2020-06-21T13:41:58.744Z</time>
      </trkpt>
      <trkpt lat="48.2737" lon="-4.29344">
        <ele>18.329</ele>
        <time>2020-06-21T13:42:00.524Z</time>
      </trkpt>
      <trkpt lat="48.27377" lon="-4.29366">
        <ele>18.602254</ele>
        <time>2020-06-21T13:42:08.661Z</time>
      </trkpt>
      <trkpt lat="48.27377" lon="-4.29366">
        <ele>18.603916</ele>
        <time>2020-06-21T13:42:08.668Z</time>
      </trkpt>
      <trkpt lat="48.27378" lon="-4.29373">
        <ele>18.682751</ele>
        <time>2020-06-21T13:42:10.023Z</time>
      </trkpt>
      <trkpt lat="48.27373" lon="-4.29406">
        <ele>19.050512</ele>
        <time>2020-06-21T13:42:16.857Z</time>
      </trkpt>
      <trkpt lat="48.27364" lon="-4.29413">
        <ele>19.21986</ele>
        <time>2020-06-21T13:42:22.309Z</time>
      </trkpt>
      <trkpt lat="48.27373" lon="-4.29406">
        <ele>19.389208</ele>
        <time>2020-06-21T13:42:25.244Z</time>
      </trkpt>
      <trkpt lat="48.27359" lon="-4.29529">
        <ele>22.133256</ele>
        <time>2020-06-21T13:42:57.227Z</time>
      </trkpt>
      <trkpt lat="48.27358" lon="-4.29566">
        <ele>23.422954</ele>
        <time>2020-06-21T13:43:08.326Z</time>
      </trkpt>
      <trkpt lat="48.27371" lon="-4.2964">
        <ele>26.026077</ele>
        <time>2020-06-21T13:43:33.813Z</time>
      </trkpt>
      <trkpt lat="48.27376" lon="-4.29769">
        <ele>30.625139</ele>
        <time>2020-06-21T13:44:16.637Z</time>
      </trkpt>
      <trkpt lat="48.27405" lon="-4.2998">
        <ele>39.146073</ele>
        <time>2020-06-21T13:45:27.559Z</time>
      </trkpt>
      <trkpt lat="48.27411" lon="-4.30055">
        <ele>42.442883</ele>
        <time>2020-06-21T13:45:53.220Z</time>
      </trkpt>
      <trkpt lat="48.274" lon="-4.30242">
        <ele>50.910106</ele>
        <time>2020-06-21T13:47:02.703Z</time>
      </trkpt>
      <trkpt lat="48.27396" lon="-4.30266">
        <ele>52.01596</ele>
        <time>2020-06-21T13:47:11.781Z</time>
      </trkpt>
      <trkpt lat="48.27383" lon="-4.30351">
        <ele>55.796726</ele>
        <time>2020-06-21T13:47:42.966Z</time>
      </trkpt>
      <trkpt lat="48.27391" lon="-4.30447">
        <ele>59.964849</ele>
        <time>2020-06-21T13:48:18.003Z</time>
      </trkpt>
      <trkpt lat="48.27399" lon="-4.30503">
        <ele>62.446696</ele>
        <time>2020-06-21T13:48:38.868Z</time>
      </trkpt>
      <trkpt lat="48.27405" lon="-4.30546">
        <ele>64.279084</ele>
        <time>2020-06-21T13:48:52.698Z</time>
      </trkpt>
      <trkpt lat="48.27434" lon="-4.30596">
        <ele>66.69302</ele>
        <time>2020-06-21T13:49:11.873Z</time>
      </trkpt>
      <trkpt lat="48.27447" lon="-4.30606">
        <ele>67.509908</ele>
        <time>2020-06-21T13:49:18.318Z</time>
      </trkpt>
      <trkpt lat="48.27461" lon="-4.30606">
        <ele>68.29118</ele>
        <time>2020-06-21T13:49:24.864Z</time>
      </trkpt>
      <trkpt lat="48.27469" lon="-4.30598">
        <ele>68.808335</ele>
        <time>2020-06-21T13:49:29.738Z</time>
      </trkpt>
      <trkpt lat="48.27485" lon="-4.30551">
        <ele>70.761309</ele>
        <time>2020-06-21T13:49:46.944Z</time>
      </trkpt>
      <trkpt lat="48.27497" lon="-4.30492">
        <ele>73.009446</ele>
        <time>2020-06-21T13:50:06.793Z</time>
      </trkpt>
      <trkpt lat="48.27509" lon="-4.30466">
        <ele>74.136914</ele>
        <time>2020-06-21T13:50:16.862Z</time>
      </trkpt>
      <trkpt lat="48.27537" lon="-4.30449">
        <ele>75.694345</ele>
        <time>2020-06-21T13:50:31.445Z</time>
      </trkpt>
      <trkpt lat="48.27577" lon="-4.3044">
        <ele>77.810268</ele>
        <time>2020-06-21T13:50:51.329Z</time>
      </trkpt>
      <trkpt lat="48.27603" lon="-4.30378">
        <ele>80.349692</ele>
        <time>2020-06-21T13:51:19.973Z</time>
      </trkpt>
      <trkpt lat="48.27614" lon="-4.3033">
        <ele>82.077927</ele>
        <time>2020-06-21T13:51:39.591Z</time>
      </trkpt>
      <trkpt lat="48.27643" lon="-4.30283">
        <ele>83.46533</ele>
        <time>2020-06-21T13:52:02.835Z</time>
      </trkpt>
      <trkpt lat="48.27656" lon="-4.30245">
        <ele>83.901694</ele>
        <time>2020-06-21T13:52:16.323Z</time>
      </trkpt>
      <trkpt lat="48.27692" lon="-4.3018">
        <ele>84.747695</ele>
        <time>2020-06-21T13:52:37.980Z</time>
      </trkpt>
      <trkpt lat="48.27708" lon="-4.30172">
        <ele>85.005415</ele>
        <time>2020-06-21T13:52:44.024Z</time>
      </trkpt>
      <trkpt lat="48.2774" lon="-4.30175">
        <ele>85.503537</ele>
        <time>2020-06-21T13:52:54.867Z</time>
      </trkpt>
      <trkpt lat="48.27787" lon="-4.30154">
        <ele>85.341674</ele>
        <time>2020-06-21T13:53:09.170Z</time>
      </trkpt>
      <trkpt lat="48.27879" lon="-4.30173">
        <ele>83.355411</ele>
        <time>2020-06-21T13:53:34.138Z</time>
      </trkpt>
      <trkpt lat="48.27968" lon="-4.30105">
        <ele>81.718971</ele>
        <time>2020-06-21T13:54:00.227Z</time>
      </trkpt>
      <trkpt lat="48.27978" lon="-4.30093">
        <ele>81.613772</ele>
        <time>2020-06-21T13:54:03.729Z</time>
      </trkpt>
      <trkpt lat="48.28003" lon="-4.30035">
        <ele>81.243668</ele>
        <time>2020-06-21T13:54:17.169Z</time>
      </trkpt>
      <trkpt lat="48.28027" lon="-4.29997">
        <ele>80.96576</ele>
        <time>2020-06-21T13:54:27.842Z</time>
      </trkpt>
      <trkpt lat="48.28069" lon="-4.29967">
        <ele>80.593508</ele>
        <time>2020-06-21T13:54:43.849Z</time>
      </trkpt>
      <trkpt lat="48.2813" lon="-4.29936">
        <ele>82.936574</ele>
        <time>2020-06-21T13:55:10.981Z</time>
      </trkpt>
      <trkpt lat="48.28179" lon="-4.29902">
        <ele>84.998448</ele>
        <time>2020-06-21T13:55:37.695Z</time>
      </trkpt>
      <trkpt lat="48.2828" lon="-4.29799">
        <ele>90.7564</ele>
        <time>2020-06-21T13:56:54.490Z</time>
      </trkpt>
      <trkpt lat="48.28314" lon="-4.29772">
        <ele>92.941421</ele>
        <time>2020-06-21T13:57:18.475Z</time>
      </trkpt>
      <trkpt lat="48.28365" lon="-4.29813">
        <ele>96.311441</ele>
        <time>2020-06-21T13:57:48.006Z</time>
      </trkpt>
      <trkpt lat="48.28416" lon="-4.29873">
        <ele>98.749101</ele>
        <time>2020-06-21T13:58:15.650Z</time>
      </trkpt>
      <trkpt lat="48.28473" lon="-4.29924">
        <ele>100.472071</ele>
        <time>2020-06-21T13:58:39.500Z</time>
      </trkpt>
      <trkpt lat="48.28517" lon="-4.29942">
        <ele>101.646928</ele>
        <time>2020-06-21T13:58:50.594Z</time>
      </trkpt>
      <trkpt lat="48.28575" lon="-4.30001">
        <ele>102.67991</ele>
        <time>2020-06-21T13:59:06.724Z</time>
      </trkpt>
      <trkpt lat="48.286" lon="-4.29988">
        <ele>102.865933</ele>
        <time>2020-06-21T13:59:12.949Z</time>
      </trkpt>
      <trkpt lat="48.28669" lon="-4.29925">
        <ele>103.445825</ele>
        <time>2020-06-21T13:59:32.912Z</time>
      </trkpt>
      <trkpt lat="48.28695" lon="-4.29923">
        <ele>103.632298</ele>
        <time>2020-06-21T13:59:39.328Z</time>
      </trkpt>
      <trkpt lat="48.28713" lon="-4.29933">
        <ele>103.637578</ele>
        <time>2020-06-21T13:59:44.668Z</time>
      </trkpt>
      <trkpt lat="48.28884" lon="-4.30189">
        <ele>102.785602</ele>
        <time>2020-06-21T14:00:30.594Z</time>
      </trkpt>
      <trkpt lat="48.28987" lon="-4.30279">
        <ele>101.950282</ele>
        <time>2020-06-21T14:00:52.003Z</time>
      </trkpt>
      <trkpt lat="48.29032" lon="-4.30302">
        <ele>101.7323</ele>
        <time>2020-06-21T14:01:00.834Z</time>
      </trkpt>
      <trkpt lat="48.29036" lon="-4.30301">
        <ele>101.711478</ele>
        <time>2020-06-21T14:01:01.702Z</time>
      </trkpt>
      <trkpt lat="48.29067" lon="-4.30298">
        <ele>101.571201</ele>
        <time>2020-06-21T14:01:07.561Z</time>
      </trkpt>
      <trkpt lat="48.29193" lon="-4.3034">
        <ele>100.741011</ele>
        <time>2020-06-21T14:01:32.955Z</time>
      </trkpt>
      <trkpt lat="48.29217" lon="-4.30339">
        <ele>100.512564</ele>
        <time>2020-06-21T14:01:37.469Z</time>
      </trkpt>
      <trkpt lat="48.29206" lon="-4.30537">
        <ele>98.936314</ele>
        <time>2020-06-21T14:01:59.259Z</time>
      </trkpt>
      <trkpt lat="48.29203" lon="-4.30567">
        <ele>98.480559</ele>
        <time>2020-06-21T14:02:02.337Z</time>
      </trkpt>
      <trkpt lat="48.2919" lon="-4.30733">
        <ele>95.928628</ele>
        <time>2020-06-21T14:02:18.900Z</time>
      </trkpt>
      <trkpt lat="48.29177" lon="-4.30785">
        <ele>95.112046</ele>
        <time>2020-06-21T14:02:24.424Z</time>
      </trkpt>
      <trkpt lat="48.29148" lon="-4.30857">
        <ele>94.00787</ele>
        <time>2020-06-21T14:02:32.728Z</time>
      </trkpt>
      <trkpt lat="48.29123" lon="-4.30964">
        <ele>92.497549</ele>
        <time>2020-06-21T14:02:44.506Z</time>
      </trkpt>
      <trkpt lat="48.29099" lon="-4.31044">
        <ele>91.442495</ele>
        <time>2020-06-21T14:02:54.082Z</time>
      </trkpt>
      <trkpt lat="48.29092" lon="-4.3114">
        <ele>90.446775</ele>
        <time>2020-06-21T14:03:05.255Z</time>
      </trkpt>
      <trkpt lat="48.29087" lon="-4.31158">
        <ele>90.250714</ele>
        <time>2020-06-21T14:03:07.576Z</time>
      </trkpt>
      <trkpt lat="48.29085" lon="-4.31165">
        <ele>90.172203</ele>
        <time>2020-06-21T14:03:09.171Z</time>
      </trkpt>
      <trkpt lat="48.29065" lon="-4.31221">
        <ele>89.519557</ele>
        <time>2020-06-21T14:03:21.131Z</time>
      </trkpt>
      <trkpt lat="48.29026" lon="-4.31381">
        <ele>85.121867</ele>
        <time>2020-06-21T14:03:50.352Z</time>
      </trkpt>
      <trkpt lat="48.29011" lon="-4.31444">
        <ele>82.988903</ele>
        <time>2020-06-21T14:04:00.849Z</time>
      </trkpt>
      <trkpt lat="48.29004" lon="-4.31455">
        <ele>82.51193</ele>
        <time>2020-06-21T14:04:03.128Z</time>
      </trkpt>
      <trkpt lat="48.28878" lon="-4.31505">
        <ele>74.804232</ele>
        <time>2020-06-21T14:04:33.091Z</time>
      </trkpt>
      <trkpt lat="48.28865" lon="-4.31518">
        <ele>73.798159</ele>
        <time>2020-06-21T14:04:36.608Z</time>
      </trkpt>
      <trkpt lat="48.28785" lon="-4.31835">
        <ele>61.038194</ele>
        <time>2020-06-21T14:05:29.627Z</time>
      </trkpt>
      <trkpt lat="48.288" lon="-4.31939">
        <ele>58.39234</ele>
        <time>2020-06-21T14:05:47.698Z</time>
      </trkpt>
      <trkpt lat="48.28801" lon="-4.3198">
        <ele>57.7358</ele>
        <time>2020-06-21T14:05:54.789Z</time>
      </trkpt>
      <trkpt lat="48.28795" lon="-4.32009">
        <ele>57.245286</ele>
        <time>2020-06-21T14:06:00.176Z</time>
      </trkpt>
      <trkpt lat="48.28764" lon="-4.32075">
        <ele>55.922384</ele>
        <time>2020-06-21T14:06:15.102Z</time>
      </trkpt>
      <trkpt lat="48.28761" lon="-4.32089">
        <ele>55.684265</ele>
        <time>2020-06-21T14:06:17.870Z</time>
      </trkpt>
      <trkpt lat="48.28762" lon="-4.32212">
        <ele>54.105077</ele>
        <time>2020-06-21T14:06:41.389Z</time>
      </trkpt>
      <trkpt lat="48.28752" lon="-4.32395">
        <ele>52.14634</ele>
        <time>2020-06-21T14:07:15.455Z</time>
      </trkpt>
      <trkpt lat="48.28734" lon="-4.3249">
        <ele>50.814196</ele>
        <time>2020-06-21T14:07:33.564Z</time>
      </trkpt>
      <trkpt lat="48.28707" lon="-4.32616">
        <ele>48.980728</ele>
        <time>2020-06-21T14:07:57.910Z</time>
      </trkpt>
      <trkpt lat="48.28661" lon="-4.32768">
        <ele>45.335296</ele>
        <time>2020-06-21T14:08:27.038Z</time>
      </trkpt>
      <trkpt lat="48.28605" lon="-4.3296">
        <ele>39.13098</ele>
        <time>2020-06-21T14:09:01.225Z</time>
      </trkpt>
      <trkpt lat="48.28594" lon="-4.33033">
        <ele>36.005832</ele>
        <time>2020-06-21T14:09:12.895Z</time>
      </trkpt>
      <trkpt lat="48.28581" lon="-4.33128">
        <ele>32.02517</ele>
        <time>2020-06-21T14:09:27.527Z</time>
      </trkpt>
      <trkpt lat="48.28584" lon="-4.33197">
        <ele>29.066634</ele>
        <time>2020-06-21T14:09:37.917Z</time>
      </trkpt>
      <trkpt lat="48.28593" lon="-4.33275">
        <ele>25.524426</ele>
        <time>2020-06-21T14:09:49.847Z</time>
      </trkpt>
      <trkpt lat="48.28597" lon="-4.33295">
        <ele>24.584261</ele>
        <time>2020-06-21T14:09:53.003Z</time>
      </trkpt>
      <trkpt lat="48.28617" lon="-4.33396">
        <ele>19.847254</ele>
        <time>2020-06-21T14:10:02.454Z</time>
      </trkpt>
      <trkpt lat="48.2864" lon="-4.33502">
        <ele>17.335397</ele>
        <time>2020-06-21T14:10:12.918Z</time>
      </trkpt>
      <trkpt lat="48.28656" lon="-4.33578">
        <ele>16.384979</ele>
        <time>2020-06-21T14:10:21.430Z</time>
      </trkpt>
      <trkpt lat="48.28651" lon="-4.33603">
        <ele>16.075407</ele>
        <time>2020-06-21T14:10:24.820Z</time>
      </trkpt>
      <trkpt lat="48.28606" lon="-4.33652">
        <ele>15.07601</ele>
        <time>2020-06-21T14:10:37.884Z</time>
      </trkpt>
      <trkpt lat="48.28557" lon="-4.33653">
        <ele>16.593726</ele>
        <time>2020-06-21T14:10:53.787Z</time>
      </trkpt>
      <trkpt lat="48.28553" lon="-4.33656">
        <ele>16.761679</ele>
        <time>2020-06-21T14:10:55.524Z</time>
      </trkpt>
      <trkpt lat="48.28481" lon="-4.33731">
        <ele>19.867632</ele>
        <time>2020-06-21T14:11:33.748Z</time>
      </trkpt>
      <trkpt lat="48.28368" lon="-4.33726">
        <ele>21.765657</ele>
        <time>2020-06-21T14:12:18.146Z</time>
      </trkpt>
      <trkpt lat="48.28289" lon="-4.33791">
        <ele>22.27552</ele>
        <time>2020-06-21T14:12:34.984Z</time>
      </trkpt>
      <trkpt lat="48.2828" lon="-4.3382">
        <ele>22.325743</ele>
        <time>2020-06-21T14:12:38.013Z</time>
      </trkpt>
      <trkpt lat="48.28221" lon="-4.33949">
        <ele>19.463242</ele>
        <time>2020-06-21T14:12:53.683Z</time>
      </trkpt>
      <trkpt lat="48.28215" lon="-4.33964">
        <ele>19.153838</ele>
        <time>2020-06-21T14:12:55.378Z</time>
      </trkpt>
      <trkpt lat="48.28206" lon="-4.34027">
        <ele>17.969479</ele>
        <time>2020-06-21T14:13:01.767Z</time>
      </trkpt>
      <trkpt lat="48.28206" lon="-4.34027">
        <ele>17.969479</ele>
        <time>2020-06-21T14:13:01.891Z</time>
      </trkpt>
      <trkpt lat="48.28206" lon="-4.34027">
        <ele>17.969479</ele>
        <time>2020-06-21T14:13:01.907Z</time>
      </trkpt>
      <trkpt lat="48.2814" lon="-4.34088">
        <ele>18.733419</ele>
        <time>2020-06-21T14:13:17.589Z</time>
      </trkpt>
      <trkpt lat="48.28049" lon="-4.34239">
        <ele>22.178463</ele>
        <time>2020-06-21T14:14:08.813Z</time>
      </trkpt>
      <trkpt lat="48.27958" lon="-4.34377">
        <ele>28.861305</ele>
        <time>2020-06-21T14:15:12.053Z</time>
      </trkpt>
      <trkpt lat="48.27957" lon="-4.34432">
        <ele>30.723818</ele>
        <time>2020-06-21T14:15:28.006Z</time>
      </trkpt>
      <trkpt lat="48.27947" lon="-4.34468">
        <ele>32.141751</ele>
        <time>2020-06-21T14:15:40.112Z</time>
      </trkpt>
      <trkpt lat="48.2788" lon="-4.34595">
        <ele>37.8574</ele>
        <time>2020-06-21T14:16:31.230Z</time>
      </trkpt>
      <trkpt lat="48.27834" lon="-4.347">
        <ele>42.5775</ele>
        <time>2020-06-21T14:17:09.471Z</time>
      </trkpt>
      <trkpt lat="48.27822" lon="-4.34801">
        <ele>46.76492</ele>
        <time>2020-06-21T14:17:42.824Z</time>
      </trkpt>
      <trkpt lat="48.27771" lon="-4.34946">
        <ele>53.51909</ele>
        <time>2020-06-21T14:18:44.064Z</time>
      </trkpt>
      <trkpt lat="48.27711" lon="-4.35257">
        <ele>65.300163</ele>
        <time>2020-06-21T14:20:32.758Z</time>
      </trkpt>
      <trkpt lat="48.27694" lon="-4.35316">
        <ele>66.912594</ele>
        <time>2020-06-21T14:20:49.271Z</time>
      </trkpt>
      <trkpt lat="48.27693" lon="-4.35382">
        <ele>68.587736</ele>
        <time>2020-06-21T14:21:03.590Z</time>
      </trkpt>
      <trkpt lat="48.27669" lon="-4.35504">
        <ele>69.234482</ele>
        <time>2020-06-21T14:21:23.284Z</time>
      </trkpt>
      <trkpt lat="48.27652" lon="-4.35562">
        <ele>69.091099</ele>
        <time>2020-06-21T14:21:31.038Z</time>
      </trkpt>
      <trkpt lat="48.27587" lon="-4.35721">
        <ele>68.521743</ele>
        <time>2020-06-21T14:21:52.744Z</time>
      </trkpt>
      <trkpt lat="48.27576" lon="-4.35834">
        <ele>68.03339</ele>
        <time>2020-06-21T14:22:06.268Z</time>
      </trkpt>
      <trkpt lat="48.27516" lon="-4.36148">
        <ele>68.458022</ele>
        <time>2020-06-21T14:22:54.473Z</time>
      </trkpt>
      <trkpt lat="48.27523" lon="-4.3618">
        <ele>68.56922</ele>
        <time>2020-06-21T14:23:00.279Z</time>
      </trkpt>
      <trkpt lat="48.27554" lon="-4.36213">
        <ele>68.77256</ele>
        <time>2020-06-21T14:23:09.714Z</time>
      </trkpt>
      <trkpt lat="48.27564" lon="-4.36244">
        <ele>68.895679</ele>
        <time>2020-06-21T14:23:15.474Z</time>
      </trkpt>
      <trkpt lat="48.27565" lon="-4.36266">
        <ele>68.974879</ele>
        <time>2020-06-21T14:23:18.982Z</time>
      </trkpt>
      <trkpt lat="48.27548" lon="-4.36482">
        <ele>69.437435</ele>
        <time>2020-06-21T14:23:50.954Z</time>
      </trkpt>
      <trkpt lat="48.27549" lon="-4.36562">
        <ele>69.361516</ele>
        <time>2020-06-21T14:24:00.986Z</time>
      </trkpt>
      <trkpt lat="48.27559" lon="-4.36649">
        <ele>69.277355</ele>
        <time>2020-06-21T14:24:12.249Z</time>
      </trkpt>
      <trkpt lat="48.27559" lon="-4.3668">
        <ele>69.248217</ele>
        <time>2020-06-21T14:24:16.192Z</time>
      </trkpt>
      <trkpt lat="48.27529" lon="-4.36858">
        <ele>69.083901</ele>
        <time>2020-06-21T14:24:40.662Z</time>
      </trkpt>
      <trkpt lat="48.2752" lon="-4.37052">
        <ele>68.794276</ele>
        <time>2020-06-21T14:25:06.374Z</time>
      </trkpt>
      <trkpt lat="48.2747" lon="-4.3718">
        <ele>68.496551</ele>
        <time>2020-06-21T14:25:25.574Z</time>
      </trkpt>
      <trkpt lat="48.27434" lon="-4.37254">
        <ele>68.066015</ele>
        <time>2020-06-21T14:25:36.875Z</time>
      </trkpt>
      <trkpt lat="48.27394" lon="-4.37361">
        <ele>67.41351</ele>
        <time>2020-06-21T14:25:51.856Z</time>
      </trkpt>
      <trkpt lat="48.27363" lon="-4.37412">
        <ele>67.048202</ele>
        <time>2020-06-21T14:26:00.174Z</time>
      </trkpt>
      <trkpt lat="48.27257" lon="-4.37532">
        <ele>65.425627</ele>
        <time>2020-06-21T14:26:23.307Z</time>
      </trkpt>
      <trkpt lat="48.27142" lon="-4.37667">
        <ele>63.556706</ele>
        <time>2020-06-21T14:26:48.595Z</time>
      </trkpt>
      <trkpt lat="48.27108" lon="-4.37748">
        <ele>62.730711</ele>
        <time>2020-06-21T14:26:59.576Z</time>
      </trkpt>
      <trkpt lat="48.27089" lon="-4.37777">
        <ele>62.385685</ele>
        <time>2020-06-21T14:27:07.461Z</time>
      </trkpt>
      <trkpt lat="48.27082" lon="-4.37804">
        <ele>62.170436</ele>
        <time>2020-06-21T14:27:13.004Z</time>
      </trkpt>
      <trkpt lat="48.27088" lon="-4.37853">
        <ele>61.786744</ele>
        <time>2020-06-21T14:27:22.897Z</time>
      </trkpt>
      <trkpt lat="48.27086" lon="-4.37893">
        <ele>61.489828</ele>
        <time>2020-06-21T14:27:27.541Z</time>
      </trkpt>
      <trkpt lat="48.27058" lon="-4.37987">
        <ele>60.708716</ele>
        <time>2020-06-21T14:27:39.745Z</time>
      </trkpt>
      <trkpt lat="48.27046" lon="-4.38068">
        <ele>59.931469</ele>
        <time>2020-06-21T14:27:49.480Z</time>
      </trkpt>
      <trkpt lat="48.27005" lon="-4.38175">
        <ele>58.595868</ele>
        <time>2020-06-21T14:28:03.414Z</time>
      </trkpt>
      <trkpt lat="48.26995" lon="-4.38243">
        <ele>57.847807</ele>
        <time>2020-06-21T14:28:11.063Z</time>
      </trkpt>
      <trkpt lat="48.26985" lon="-4.38278">
        <ele>57.439741</ele>
        <time>2020-06-21T14:28:15.260Z</time>
      </trkpt>
      <trkpt lat="48.26962" lon="-4.38308">
        <ele>56.948729</ele>
        <time>2020-06-21T14:28:20.379Z</time>
      </trkpt>
      <trkpt lat="48.26935" lon="-4.3833">
        <ele>56.459623</ele>
        <time>2020-06-21T14:28:25.469Z</time>
      </trkpt>
      <trkpt lat="48.26906" lon="-4.38415">
        <ele>55.449926</ele>
        <time>2020-06-21T14:28:36.186Z</time>
      </trkpt>
      <trkpt lat="48.26903" lon="-4.38491">
        <ele>54.643849</ele>
        <time>2020-06-21T14:28:44.940Z</time>
      </trkpt>
      <trkpt lat="48.2693" lon="-4.39046">
        <ele>51.785016</ele>
        <time>2020-06-21T14:29:52.637Z</time>
      </trkpt>
      <trkpt lat="48.2693" lon="-4.39083">
        <ele>51.852076</ele>
        <time>2020-06-21T14:29:57.519Z</time>
      </trkpt>
      <trkpt lat="48.26918" lon="-4.39187">
        <ele>52.044844</ele>
        <time>2020-06-21T14:30:12.655Z</time>
      </trkpt>
      <trkpt lat="48.26885" lon="-4.39447">
        <ele>52.967305</ele>
        <time>2020-06-21T14:30:55.071Z</time>
      </trkpt>
      <trkpt lat="48.26887" lon="-4.39513">
        <ele>53.275694</ele>
        <time>2020-06-21T14:31:05.777Z</time>
      </trkpt>
      <trkpt lat="48.26895" lon="-4.39539">
        <ele>53.410787</ele>
        <time>2020-06-21T14:31:10.423Z</time>
      </trkpt>
      <trkpt lat="48.27046" lon="-4.39815">
        <ele>53.88413</ele>
        <time>2020-06-21T14:32:03.304Z</time>
      </trkpt>
      <trkpt lat="48.27059" lon="-4.39847">
        <ele>53.680185</ele>
        <time>2020-06-21T14:32:07.804Z</time>
      </trkpt>
      <trkpt lat="48.27066" lon="-4.39882">
        <ele>53.481723</ele>
        <time>2020-06-21T14:32:12.241Z</time>
      </trkpt>
      <trkpt lat="48.27059" lon="-4.39982">
        <ele>52.934748</ele>
        <time>2020-06-21T14:32:23.919Z</time>
      </trkpt>
      <trkpt lat="48.27054" lon="-4.40018">
        <ele>52.691068</ele>
        <time>2020-06-21T14:32:28.006Z</time>
      </trkpt>
      <trkpt lat="48.27043" lon="-4.40054">
        <ele>52.234987</ele>
        <time>2020-06-21T14:32:32.480Z</time>
      </trkpt>
      <trkpt lat="48.27022" lon="-4.40097">
        <ele>51.631899</ele>
        <time>2020-06-21T14:32:38.219Z</time>
      </trkpt>
      <trkpt lat="48.27003" lon="-4.4015">
        <ele>50.952663</ele>
        <time>2020-06-21T14:32:44.559Z</time>
      </trkpt>
      <trkpt lat="48.26974" lon="-4.40358">
        <ele>49.670053</ele>
        <time>2020-06-21T14:33:09.446Z</time>
      </trkpt>
      <trkpt lat="48.26969" lon="-4.4049">
        <ele>49.63631</ele>
        <time>2020-06-21T14:33:28.550Z</time>
      </trkpt>
      <trkpt lat="48.26969" lon="-4.4049">
        <ele>49.636271</ele>
        <time>2020-06-21T14:33:28.558Z</time>
      </trkpt>
      <trkpt lat="48.26969" lon="-4.4049">
        <ele>49.636233</ele>
        <time>2020-06-21T14:33:28.655Z</time>
      </trkpt>
      <trkpt lat="48.26978" lon="-4.40553">
        <ele>49.903681</ele>
        <time>2020-06-21T14:33:40.229Z</time>
      </trkpt>
      <trkpt lat="48.2698" lon="-4.40655">
        <ele>50.889851</ele>
        <time>2020-06-21T14:34:00.112Z</time>
      </trkpt>
      <trkpt lat="48.27002" lon="-4.40743">
        <ele>51.798627</ele>
        <time>2020-06-21T14:34:18.242Z</time>
      </trkpt>
      <trkpt lat="48.27009" lon="-4.40807">
        <ele>52.361243</ele>
        <time>2020-06-21T14:34:29.444Z</time>
      </trkpt>
      <trkpt lat="48.26992" lon="-4.41076">
        <ele>54.150464</ele>
        <time>2020-06-21T14:35:13.301Z</time>
      </trkpt>
      <trkpt lat="48.26987" lon="-4.41233">
        <ele>55.551465</ele>
        <time>2020-06-21T14:35:41.397Z</time>
      </trkpt>
      <trkpt lat="48.26986" lon="-4.4126">
        <ele>55.789245</ele>
        <time>2020-06-21T14:35:46.509Z</time>
      </trkpt>
      <trkpt lat="48.26986" lon="-4.41289">
        <ele>56.053576</ele>
        <time>2020-06-21T14:35:51.871Z</time>
      </trkpt>
      <trkpt lat="48.26994" lon="-4.41347">
        <ele>56.548573</ele>
        <time>2020-06-21T14:36:02.974Z</time>
      </trkpt>
      <trkpt lat="48.26992" lon="-4.41389">
        <ele>56.855574</ele>
        <time>2020-06-21T14:36:10.921Z</time>
      </trkpt>
      <trkpt lat="48.26969" lon="-4.41522">
        <ele>57.858316</ele>
        <time>2020-06-21T14:36:35.323Z</time>
      </trkpt>
      <trkpt lat="48.26923" lon="-4.41745">
        <ele>58.761425</ele>
        <time>2020-06-21T14:37:08.978Z</time>
      </trkpt>
      <trkpt lat="48.26911" lon="-4.41808">
        <ele>58.920446</ele>
        <time>2020-06-21T14:37:18.048Z</time>
      </trkpt>
      <trkpt lat="48.26868" lon="-4.42056">
        <ele>60.271979</ele>
        <time>2020-06-21T14:37:58.050Z</time>
      </trkpt>
      <trkpt lat="48.26864" lon="-4.42164">
        <ele>61.162811</ele>
        <time>2020-06-21T14:38:18.674Z</time>
      </trkpt>
      <trkpt lat="48.26868" lon="-4.4227">
        <ele>62.302863</ele>
        <time>2020-06-21T14:38:39.254Z</time>
      </trkpt>
      <trkpt lat="48.26868" lon="-4.4227">
        <ele>62.302863</ele>
        <time>2020-06-21T14:38:39.458Z</time>
      </trkpt>
      <trkpt lat="48.26868" lon="-4.4227">
        <ele>62.302863</ele>
        <time>2020-06-21T14:38:39.475Z</time>
      </trkpt>
      <trkpt lat="48.26882" lon="-4.42492">
        <ele>64.199437</ele>
        <time>2020-06-21T14:39:21.424Z</time>
      </trkpt>
      <trkpt lat="48.26883" lon="-4.426">
        <ele>64.893195</ele>
        <time>2020-06-21T14:39:38.219Z</time>
      </trkpt>
      <trkpt lat="48.26885" lon="-4.42678">
        <ele>65.174574</ele>
        <time>2020-06-21T14:39:49.731Z</time>
      </trkpt>
      <trkpt lat="48.26902" lon="-4.4296">
        <ele>64.639187</ele>
        <time>2020-06-21T14:40:26.375Z</time>
      </trkpt>
      <trkpt lat="48.26892" lon="-4.43054">
        <ele>64.048797</ele>
        <time>2020-06-21T14:40:37.894Z</time>
      </trkpt>
      <trkpt lat="48.2685" lon="-4.43216">
        <ele>62.877733</ele>
        <time>2020-06-21T14:40:58.197Z</time>
      </trkpt>
      <trkpt lat="48.26844" lon="-4.43518">
        <ele>60.5744</ele>
        <time>2020-06-21T14:41:33.205Z</time>
      </trkpt>
      <trkpt lat="48.26842" lon="-4.43705">
        <ele>59.593627</ele>
        <time>2020-06-21T14:41:56.284Z</time>
      </trkpt>
      <trkpt lat="48.26833" lon="-4.43842">
        <ele>59.155943</ele>
        <time>2020-06-21T14:42:14.078Z</time>
      </trkpt>
      <trkpt lat="48.26812" lon="-4.44014">
        <ele>58.658207</ele>
        <time>2020-06-21T14:42:36.183Z</time>
      </trkpt>
      <trkpt lat="48.26783" lon="-4.44253">
        <ele>58.133687</ele>
        <time>2020-06-21T14:43:07.182Z</time>
      </trkpt>
      <trkpt lat="48.26779" lon="-4.44279">
        <ele>58.128432</ele>
        <time>2020-06-21T14:43:10.945Z</time>
      </trkpt>
      <trkpt lat="48.2677" lon="-4.44297">
        <ele>58.124123</ele>
        <time>2020-06-21T14:43:14.040Z</time>
      </trkpt>
      <trkpt lat="48.26765" lon="-4.44307">
        <ele>58.121705</ele>
        <time>2020-06-21T14:43:15.853Z</time>
      </trkpt>
      <trkpt lat="48.26758" lon="-4.44339">
        <ele>58.115184</ele>
        <time>2020-06-21T14:43:20.510Z</time>
      </trkpt>
      <trkpt lat="48.26761" lon="-4.44455">
        <ele>58.092534</ele>
        <time>2020-06-21T14:43:36.378Z</time>
      </trkpt>
      <trkpt lat="48.26745" lon="-4.44526">
        <ele>57.884355</ele>
        <time>2020-06-21T14:43:46.392Z</time>
      </trkpt>
      <trkpt lat="48.2672" lon="-4.446">
        <ele>57.061214</ele>
        <time>2020-06-21T14:43:56.997Z</time>
      </trkpt>
      <trkpt lat="48.26651" lon="-4.44762">
        <ele>54.954479</ele>
        <time>2020-06-21T14:44:17.827Z</time>
      </trkpt>
      <trkpt lat="48.26619" lon="-4.44842">
        <ele>53.263203</ele>
        <time>2020-06-21T14:44:27.399Z</time>
      </trkpt>
      <trkpt lat="48.26596" lon="-4.44925">
        <ele>51.61207</ele>
        <time>2020-06-21T14:44:36.705Z</time>
      </trkpt>
      <trkpt lat="48.26566" lon="-4.45104">
        <ele>48.912272</ele>
        <time>2020-06-21T14:44:56.136Z</time>
      </trkpt>
      <trkpt lat="48.26565" lon="-4.45357">
        <ele>45.984894</ele>
        <time>2020-06-21T14:45:25.254Z</time>
      </trkpt>
      <trkpt lat="48.2657" lon="-4.45428">
        <ele>45.292544</ele>
        <time>2020-06-21T14:45:33.474Z</time>
      </trkpt>
      <trkpt lat="48.26554" lon="-4.45587">
        <ele>43.500856</ele>
        <time>2020-06-21T14:45:51.662Z</time>
      </trkpt>
      <trkpt lat="48.26555" lon="-4.45638">
        <ele>42.822442</ele>
        <time>2020-06-21T14:45:57.372Z</time>
      </trkpt>
      <trkpt lat="48.26557" lon="-4.45831">
        <ele>40.15263</ele>
        <time>2020-06-21T14:46:18.120Z</time>
      </trkpt>
      <trkpt lat="48.2653" lon="-4.45984">
        <ele>37.625212</ele>
        <time>2020-06-21T14:46:35.143Z</time>
      </trkpt>
      <trkpt lat="48.26516" lon="-4.4613">
        <ele>35.489524</ele>
        <time>2020-06-21T14:46:50.659Z</time>
      </trkpt>
      <trkpt lat="48.26515" lon="-4.46175">
        <ele>34.902348</ele>
        <time>2020-06-21T14:46:55.415Z</time>
      </trkpt>
      <trkpt lat="48.2652" lon="-4.46233">
        <ele>34.128145</ele>
        <time>2020-06-21T14:47:01.799Z</time>
      </trkpt>
      <trkpt lat="48.26547" lon="-4.46389">
        <ele>32.750554</ele>
        <time>2020-06-21T14:47:20.592Z</time>
      </trkpt>
      <trkpt lat="48.26554" lon="-4.46419">
        <ele>32.660773</ele>
        <time>2020-06-21T14:47:24.610Z</time>
      </trkpt>
      <trkpt lat="48.2658" lon="-4.46461">
        <ele>32.502536</ele>
        <time>2020-06-21T14:47:32.214Z</time>
      </trkpt>
      <trkpt lat="48.26627" lon="-4.46484">
        <ele>32.29707</ele>
        <time>2020-06-21T14:47:42.302Z</time>
      </trkpt>
      <trkpt lat="48.26658" lon="-4.46509">
        <ele>32.120901</ele>
        <time>2020-06-21T14:47:49.500Z</time>
      </trkpt>
      <trkpt lat="48.26671" lon="-4.46541">
        <ele>31.961296</ele>
        <time>2020-06-21T14:47:54.355Z</time>
      </trkpt>
      <trkpt lat="48.26679" lon="-4.46611">
        <ele>31.654526</ele>
        <time>2020-06-21T14:48:04.385Z</time>
      </trkpt>
      <trkpt lat="48.26675" lon="-4.46648">
        <ele>31.493453</ele>
        <time>2020-06-21T14:48:09.033Z</time>
      </trkpt>
      <trkpt lat="48.26689" lon="-4.4677">
        <ele>30.715554</ele>
        <time>2020-06-21T14:48:23.636Z</time>
      </trkpt>
      <trkpt lat="48.2669" lon="-4.46807">
        <ele>30.027564</ele>
        <time>2020-06-21T14:48:27.633Z</time>
      </trkpt>
      <trkpt lat="48.26649" lon="-4.46963">
        <ele>26.916387</ele>
        <time>2020-06-21T14:48:44.789Z</time>
      </trkpt>
      <trkpt lat="48.2664" lon="-4.47019">
        <ele>25.876943</ele>
        <time>2020-06-21T14:48:50.590Z</time>
      </trkpt>
      <trkpt lat="48.26634" lon="-4.47107">
        <ele>24.459068</ele>
        <time>2020-06-21T14:48:59.478Z</time>
      </trkpt>
      <trkpt lat="48.26644" lon="-4.47203">
        <ele>22.880943</ele>
        <time>2020-06-21T14:49:09.724Z</time>
      </trkpt>
      <trkpt lat="48.26695" lon="-4.47351">
        <ele>21.655085</ele>
        <time>2020-06-21T14:49:29.200Z</time>
      </trkpt>
      <trkpt lat="48.26724" lon="-4.47364">
        <ele>21.649216</ele>
        <time>2020-06-21T14:49:35.621Z</time>
      </trkpt>
      <trkpt lat="48.26791" lon="-4.4741">
        <ele>21.634967</ele>
        <time>2020-06-21T14:49:52.602Z</time>
      </trkpt>
      <trkpt lat="48.26821" lon="-4.47435">
        <ele>21.926238</ele>
        <time>2020-06-21T14:50:01.624Z</time>
      </trkpt>
      <trkpt lat="48.26844" lon="-4.47447">
        <ele>22.301298</ele>
        <time>2020-06-21T14:50:08.530Z</time>
      </trkpt>
      <trkpt lat="48.26893" lon="-4.47472">
        <ele>23.084221</ele>
        <time>2020-06-21T14:50:22.875Z</time>
      </trkpt>
      <trkpt lat="48.26947" lon="-4.47467">
        <ele>23.916742</ele>
        <time>2020-06-21T14:50:38.884Z</time>
      </trkpt>
      <trkpt lat="48.26978" lon="-4.47448">
        <ele>24.412289</ele>
        <time>2020-06-21T14:50:48.476Z</time>
      </trkpt>
      <trkpt lat="48.27058" lon="-4.47375">
        <ele>25.520048</ele>
        <time>2020-06-21T14:51:14.375Z</time>
      </trkpt>
      <trkpt lat="48.27117" lon="-4.47353">
        <ele>26.233296</ele>
        <time>2020-06-21T14:51:29.549Z</time>
      </trkpt>
      <trkpt lat="48.27271" lon="-4.47255">
        <ele>27.166505</ele>
        <time>2020-06-21T14:52:06.480Z</time>
      </trkpt>
      <trkpt lat="48.27398" lon="-4.47188">
        <ele>28.714888</ele>
        <time>2020-06-21T14:52:38.007Z</time>
      </trkpt>
      <trkpt lat="48.27445" lon="-4.47164">
        <ele>29.402538</ele>
        <time>2020-06-21T14:52:51.979Z</time>
      </trkpt>
      <trkpt lat="48.27471" lon="-4.47162">
        <ele>29.759878</ele>
        <time>2020-06-21T14:52:59.683Z</time>
      </trkpt>
      <trkpt lat="48.2773" lon="-4.47268">
        <ele>40.491591</ele>
        <time>2020-06-21T14:54:46.894Z</time>
      </trkpt>
      <trkpt lat="48.27742" lon="-4.47274">
        <ele>41.116574</ele>
        <time>2020-06-21T14:54:54.225Z</time>
      </trkpt>
      <trkpt lat="48.27882" lon="-4.47341">
        <ele>47.972006</ele>
        <time>2020-06-21T14:56:02.658Z</time>
      </trkpt>
      <trkpt lat="48.27906" lon="-4.47345">
        <ele>49.055284</ele>
        <time>2020-06-21T14:56:12.415Z</time>
      </trkpt>
      <trkpt lat="48.27904" lon="-4.47474">
        <ele>52.938391</ele>
        <time>2020-06-21T14:56:47.154Z</time>
      </trkpt>
      <trkpt lat="48.27899" lon="-4.47589">
        <ele>55.55017</ele>
        <time>2020-06-21T14:57:19.068Z</time>
      </trkpt>
      <trkpt lat="48.27973" lon="-4.47646">
        <ele>58.294068</ele>
        <time>2020-06-21T14:57:58.118Z</time>
      </trkpt>
      <trkpt lat="48.27967" lon="-4.47694">
        <ele>59.221254</ele>
        <time>2020-06-21T14:58:12.495Z</time>
      </trkpt>
      <trkpt lat="48.27928" lon="-4.47885">
        <ele>61.177691</ele>
        <time>2020-06-21T14:59:06.292Z</time>
      </trkpt>
      <trkpt lat="48.27905" lon="-4.48053">
        <ele>61.842269</ele>
        <time>2020-06-21T14:59:43.434Z</time>
      </trkpt>
      <trkpt lat="48.27898" lon="-4.48103">
        <ele>61.880189</ele>
        <time>2020-06-21T14:59:54.078Z</time>
      </trkpt>
      <trkpt lat="48.27891" lon="-4.48123">
        <ele>61.897284</ele>
        <time>2020-06-21T14:59:58.822Z</time>
      </trkpt>
      <trkpt lat="48.27869" lon="-4.48164">
        <ele>61.937048</ele>
        <time>2020-06-21T15:00:10.052Z</time>
      </trkpt>
      <trkpt lat="48.27807" lon="-4.48254">
        <ele>62.22854</ele>
        <time>2020-06-21T15:00:37.580Z</time>
      </trkpt>
      <trkpt lat="48.27766" lon="-4.48359">
        <ele>62.559717</ele>
        <time>2020-06-21T15:01:05.251Z</time>
      </trkpt>
      <trkpt lat="48.2776" lon="-4.48449">
        <ele>62.914276</ele>
        <time>2020-06-21T15:01:26.842Z</time>
      </trkpt>
      <trkpt lat="48.2775" lon="-4.48481">
        <ele>63.099776</ele>
        <time>2020-06-21T15:01:35.542Z</time>
      </trkpt>
      <trkpt lat="48.27741" lon="-4.48551">
        <ele>63.487969</ele>
        <time>2020-06-21T15:01:53.243Z</time>
      </trkpt>
      <trkpt lat="48.27715" lon="-4.48647">
        <ele>64.045938</ele>
        <time>2020-06-21T15:02:17.867Z</time>
      </trkpt>
      <trkpt lat="48.2773" lon="-4.48668">
        <ele>64.160134</ele>
        <time>2020-06-21T15:02:24.747Z</time>
      </trkpt>
      <trkpt lat="48.2773" lon="-4.48684">
        <ele>64.166345</ele>
        <time>2020-06-21T15:02:28.522Z</time>
      </trkpt>
      <trkpt lat="48.27773" lon="-4.48719">
        <ele>64.195918</ele>
        <time>2020-06-21T15:02:39.062Z</time>
      </trkpt>
      <trkpt lat="48.27777" lon="-4.48723">
        <ele>64.198878</ele>
        <time>2020-06-21T15:02:40.037Z</time>
      </trkpt>
      <trkpt lat="48.27802" lon="-4.48719">
        <ele>64.213644</ele>
        <time>2020-06-21T15:02:45.274Z</time>
      </trkpt>
      <trkpt lat="48.27844" lon="-4.48756">
        <ele>64.24265</ele>
        <time>2020-06-21T15:02:54.871Z</time>
      </trkpt>
      <trkpt lat="48.27813" lon="-4.48842">
        <ele>64.110919</ele>
        <time>2020-06-21T15:03:06.764Z</time>
      </trkpt>
      <trkpt lat="48.27749" lon="-4.49056">
        <ele>63.289236</ele>
        <time>2020-06-21T15:03:34.694Z</time>
      </trkpt>
      <trkpt lat="48.27723" lon="-4.49152">
        <ele>62.489853</ele>
        <time>2020-06-21T15:03:46.553Z</time>
      </trkpt>
      <trkpt lat="48.27749" lon="-4.49056">
        <ele>61.690471</ele>
        <time>2020-06-21T15:03:58.075Z</time>
      </trkpt>
      <trkpt lat="48.2777" lon="-4.49122">
        <ele>60.965241</ele>
        <time>2020-06-21T15:04:11.827Z</time>
      </trkpt>
      <trkpt lat="48.27834" lon="-4.49378">
        <ele>56.636413</ele>
        <time>2020-06-21T15:05:00.160Z</time>
      </trkpt>
      <trkpt lat="48.27839" lon="-4.49445">
        <ele>55.463855</ele>
        <time>2020-06-21T15:05:12.231Z</time>
      </trkpt>
      <trkpt lat="48.27844" lon="-4.49504">
        <ele>54.429601</ele>
        <time>2020-06-21T15:05:18.844Z</time>
      </trkpt>
      <trkpt lat="48.27824" lon="-4.49654">
        <ele>51.285004</ele>
        <time>2020-06-21T15:05:34.638Z</time>
      </trkpt>
      <trkpt lat="48.27806" lon="-4.49709">
        <ele>49.345959</ele>
        <time>2020-06-21T15:05:40.745Z</time>
      </trkpt>
      <trkpt lat="48.27812" lon="-4.49725">
        <ele>48.778435</ele>
        <time>2020-06-21T15:05:42.381Z</time>
      </trkpt>
      <trkpt lat="48.2789" lon="-4.49953">
        <ele>39.131849</ele>
        <time>2020-06-21T15:06:04.614Z</time>
      </trkpt>
      <trkpt lat="48.27902" lon="-4.50003">
        <ele>36.690783</ele>
        <time>2020-06-21T15:06:08.988Z</time>
      </trkpt>
      <trkpt lat="48.27905" lon="-4.50026">
        <ele>35.572175</ele>
        <time>2020-06-21T15:06:10.992Z</time>
      </trkpt>
      <trkpt lat="48.27915" lon="-4.50024">
        <ele>34.897252</ele>
        <time>2020-06-21T15:06:12.260Z</time>
      </trkpt>
      <trkpt lat="48.27921" lon="-4.50144">
        <ele>29.113209</ele>
        <time>2020-06-21T15:06:30.196Z</time>
      </trkpt>
      <trkpt lat="48.27925" lon="-4.50177">
        <ele>27.438221</ele>
        <time>2020-06-21T15:06:35.195Z</time>
      </trkpt>
      <trkpt lat="48.2794" lon="-4.5022">
        <ele>24.96838</ele>
        <time>2020-06-21T15:06:42.356Z</time>
      </trkpt>
      <trkpt lat="48.27974" lon="-4.50236">
        <ele>22.235227</ele>
        <time>2020-06-21T15:06:46.751Z</time>
      </trkpt>
      <trkpt lat="48.28036" lon="-4.50228">
        <ele>17.394911</ele>
        <time>2020-06-21T15:06:54.583Z</time>
      </trkpt>
      <trkpt lat="48.28054" lon="-4.50234">
        <ele>16.307566</ele>
        <time>2020-06-21T15:06:56.862Z</time>
      </trkpt>
      <trkpt lat="48.28068" lon="-4.50249">
        <ele>15.242053</ele>
        <time>2020-06-21T15:06:58.983Z</time>
      </trkpt>
      <trkpt lat="48.28084" lon="-4.50286">
        <ele>13.448542</ele>
        <time>2020-06-21T15:07:02.678Z</time>
      </trkpt>
      <trkpt lat="48.28102" lon="-4.50346">
        <ele>10.753223</ele>
        <time>2020-06-21T15:07:08.313Z</time>
      </trkpt>
      <trkpt lat="48.28149" lon="-4.5048">
        <ele>5.536997</ele>
        <time>2020-06-21T15:07:21.661Z</time>
      </trkpt>
      <trkpt lat="48.28165" lon="-4.50515">
        <ele>4.780595</ele>
        <time>2020-06-21T15:07:25.668Z</time>
      </trkpt>
      <trkpt lat="48.28207" lon="-4.50601">
        <ele>2.892406</ele>
        <time>2020-06-21T15:07:36.186Z</time>
      </trkpt>
      <trkpt lat="48.28353" lon="-4.50834">
        <ele>1.093897</ele>
        <time>2020-06-21T15:08:14.242Z</time>
      </trkpt>
      <trkpt lat="48.28388" lon="-4.50877">
        <ele>1.38503</ele>
        <time>2020-06-21T15:08:25.567Z</time>
      </trkpt>
      <trkpt lat="48.28417" lon="-4.50898">
        <ele>1.793904</ele>
        <time>2020-06-21T15:08:33.310Z</time>
      </trkpt>
      <trkpt lat="48.28417" lon="-4.50898">
        <ele>1.793904</ele>
        <time>2020-06-21T15:08:33.381Z</time>
      </trkpt>
      <trkpt lat="48.28442" lon="-4.50916">
        <ele>2.148045</ele>
        <time>2020-06-21T15:08:40.285Z</time>
      </trkpt>
      <trkpt lat="48.28453" lon="-4.50925">
        <ele>2.298082</ele>
        <time>2020-06-21T15:08:43.664Z</time>
      </trkpt>
      <trkpt lat="48.28458" lon="-4.50928">
        <ele>2.363859</ele>
        <time>2020-06-21T15:08:45.070Z</time>
      </trkpt>
      <trkpt lat="48.28393" lon="-4.5106">
        <ele>3.756775</ele>
        <time>2020-06-21T15:09:17.117Z</time>
      </trkpt>
      <trkpt lat="48.28357" lon="-4.51098">
        <ele>4.337014</ele>
        <time>2020-06-21T15:09:29.921Z</time>
      </trkpt>
      <trkpt lat="48.28323" lon="-4.51122">
        <ele>4.824241</ele>
        <time>2020-06-21T15:09:40.236Z</time>
      </trkpt>
      <trkpt lat="48.28109" lon="-4.51205">
        <ele>7.290112</ele>
        <time>2020-06-21T15:10:38.948Z</time>
      </trkpt>
      <trkpt lat="48.28062" lon="-4.51234">
        <ele>7.933378</ele>
        <time>2020-06-21T15:10:52.190Z</time>
      </trkpt>
      <trkpt lat="48.28045" lon="-4.51253">
        <ele>8.255207</ele>
        <time>2020-06-21T15:10:57.963Z</time>
      </trkpt>
      <trkpt lat="48.28031" lon="-4.51265">
        <ele>8.485048</ele>
        <time>2020-06-21T15:11:02.379Z</time>
      </trkpt>
      <trkpt lat="48.28005" lon="-4.51303">
        <ele>9.015544</ele>
        <time>2020-06-21T15:11:12.464Z</time>
      </trkpt>
      <trkpt lat="48.27979" lon="-4.51359">
        <ele>9.682369</ele>
        <time>2020-06-21T15:11:25.536Z</time>
      </trkpt>
      <trkpt lat="48.27963" lon="-4.51411">
        <ele>10.280458</ele>
        <time>2020-06-21T15:11:37.259Z</time>
      </trkpt>
      <trkpt lat="48.27862" lon="-4.51748">
        <ele>15.877604</ele>
        <time>2020-06-21T15:13:00.617Z</time>
      </trkpt>
      <trkpt lat="48.27848" lon="-4.51796">
        <ele>16.581795</ele>
        <time>2020-06-21T15:13:11.802Z</time>
      </trkpt>
      <trkpt lat="48.27752" lon="-4.52101">
        <ele>20.379054</ele>
        <time>2020-06-21T15:14:16.693Z</time>
      </trkpt>
      <trkpt lat="48.27709" lon="-4.52209">
        <ele>21.909729</ele>
        <time>2020-06-21T15:14:41.217Z</time>
      </trkpt>
      <trkpt lat="48.27642" lon="-4.5237">
        <ele>24.428668</ele>
        <time>2020-06-21T15:15:35.107Z</time>
      </trkpt>
      <trkpt lat="48.27542" lon="-4.52565">
        <ele>27.811442</ele>
        <time>2020-06-21T15:16:45.331Z</time>
      </trkpt>
      <trkpt lat="48.2749" lon="-4.52669">
        <ele>28.673908</ele>
        <time>2020-06-21T15:17:18.454Z</time>
      </trkpt>
      <trkpt lat="48.27422" lon="-4.52803">
        <ele>29.488727</ele>
        <time>2020-06-21T15:17:56.084Z</time>
      </trkpt>
      <trkpt lat="48.27357" lon="-4.52931">
        <ele>29.210585</ele>
        <time>2020-06-21T15:18:18.714Z</time>
      </trkpt>
      <trkpt lat="48.27286" lon="-4.5309">
        <ele>28.24153</ele>
        <time>2020-06-21T15:18:43.978Z</time>
      </trkpt>
      <trkpt lat="48.27071" lon="-4.53645">
        <ele>22.162307</ele>
        <time>2020-06-21T15:20:01.749Z</time>
      </trkpt>
      <trkpt lat="48.27057" lon="-4.53678">
        <ele>21.761291</ele>
        <time>2020-06-21T15:20:08.971Z</time>
      </trkpt>
      <trkpt lat="48.2701" lon="-4.53795">
        <ele>20.235981</ele>
        <time>2020-06-21T15:20:25.426Z</time>
      </trkpt>
      <trkpt lat="48.26967" lon="-4.53922">
        <ele>18.57177</ele>
        <time>2020-06-21T15:20:42.390Z</time>
      </trkpt>
      <trkpt lat="48.26961" lon="-4.53939">
        <ele>18.341287</ele>
        <time>2020-06-21T15:20:44.734Z</time>
      </trkpt>
      <trkpt lat="48.2685" lon="-4.54309">
        <ele>12.615136</ele>
        <time>2020-06-21T15:21:31.147Z</time>
      </trkpt>
      <trkpt lat="48.26813" lon="-4.54379">
        <ele>11.478506</ele>
        <time>2020-06-21T15:21:41.534Z</time>
      </trkpt>
      <trkpt lat="48.26772" lon="-4.54422">
        <ele>10.714998</ele>
        <time>2020-06-21T15:21:50.899Z</time>
      </trkpt>
      <trkpt lat="48.2672" lon="-4.54452">
        <ele>10.713738</ele>
        <time>2020-06-21T15:22:02.087Z</time>
      </trkpt>
      <trkpt lat="48.26715" lon="-4.54459">
        <ele>10.713591</ele>
        <time>2020-06-21T15:22:03.345Z</time>
      </trkpt>
      <trkpt lat="48.26717" lon="-4.54467">
        <ele>10.713476</ele>
        <time>2020-06-21T15:22:04.319Z</time>
      </trkpt>
      <trkpt lat="48.26769" lon="-4.54495">
        <ele>10.712231</ele>
        <time>2020-06-21T15:22:16.634Z</time>
      </trkpt>
      <trkpt lat="48.26816" lon="-4.54546">
        <ele>10.995321</ele>
        <time>2020-06-21T15:22:31.256Z</time>
      </trkpt>
      <trkpt lat="48.26837" lon="-4.54579">
        <ele>11.71972</ele>
        <time>2020-06-21T15:22:39.595Z</time>
      </trkpt>
      <trkpt lat="48.2687" lon="-4.5466">
        <ele>13.251712</ele>
        <time>2020-06-21T15:23:00.432Z</time>
      </trkpt>
      <trkpt lat="48.26888" lon="-4.54747">
        <ele>14.707271</ele>
        <time>2020-06-21T15:23:23.644Z</time>
      </trkpt>
      <trkpt lat="48.2689" lon="-4.5478">
        <ele>15.365208</ele>
        <time>2020-06-21T15:23:32.232Z</time>
      </trkpt>
      <trkpt lat="48.26887" lon="-4.54821">
        <ele>16.440913</ele>
        <time>2020-06-21T15:23:43.254Z</time>
      </trkpt>
      <trkpt lat="48.26885" lon="-4.54847">
        <ele>17.106082</ele>
        <time>2020-06-21T15:23:50.626Z</time>
      </trkpt>
      <trkpt lat="48.26876" lon="-4.54867">
        <ele>17.749139</ele>
        <time>2020-06-21T15:23:58.535Z</time>
      </trkpt>
      <trkpt lat="48.26866" lon="-4.54921">
        <ele>19.191179</ele>
        <time>2020-06-21T15:24:17.215Z</time>
      </trkpt>
      <trkpt lat="48.26859" lon="-4.54958">
        <ele>20.198435</ele>
        <time>2020-06-21T15:24:30.724Z</time>
      </trkpt>
      <trkpt lat="48.26836" lon="-4.55186">
        <ele>25.966799</ele>
        <time>2020-06-21T15:25:52.643Z</time>
      </trkpt>
      <trkpt lat="48.26835" lon="-4.55198">
        <ele>26.267852</ele>
        <time>2020-06-21T15:25:57.097Z</time>
      </trkpt>
      <trkpt lat="48.26836" lon="-4.55234">
        <ele>27.144207</ele>
        <time>2020-06-21T15:26:07.766Z</time>
      </trkpt>
      <trkpt lat="48.26833" lon="-4.55279">
        <ele>28.270478</ele>
        <time>2020-06-21T15:26:18.483Z</time>
      </trkpt>
      <trkpt lat="48.26811" lon="-4.55345">
        <ele>29.074444</ele>
        <time>2020-06-21T15:26:33.896Z</time>
      </trkpt>
      <trkpt lat="48.268" lon="-4.55365">
        <ele>29.241998</ele>
        <time>2020-06-21T15:26:40.040Z</time>
      </trkpt>
      <trkpt lat="48.26767" lon="-4.55385">
        <ele>29.582789</ele>
        <time>2020-06-21T15:26:50.516Z</time>
      </trkpt>
      <trkpt lat="48.26757" lon="-4.55429">
        <ele>29.877334</ele>
        <time>2020-06-21T15:26:57.301Z</time>
      </trkpt>
      <trkpt lat="48.26762" lon="-4.5548">
        <ele>30.209726</ele>
        <time>2020-06-21T15:27:03.814Z</time>
      </trkpt>
      <trkpt lat="48.26756" lon="-4.55494">
        <ele>30.313414</ele>
        <time>2020-06-21T15:27:05.890Z</time>
      </trkpt>
      <trkpt lat="48.26743" lon="-4.55508">
        <ele>30.448496</ele>
        <time>2020-06-21T15:27:08.464Z</time>
      </trkpt>
      <trkpt lat="48.26731" lon="-4.55511">
        <ele>30.44267</ele>
        <time>2020-06-21T15:27:10.905Z</time>
      </trkpt>
      <trkpt lat="48.26699" lon="-4.55496">
        <ele>30.426299</ele>
        <time>2020-06-21T15:27:16.967Z</time>
      </trkpt>
      <trkpt lat="48.26676" lon="-4.555">
        <ele>30.415509</ele>
        <time>2020-06-21T15:27:21.003Z</time>
      </trkpt>
      <trkpt lat="48.26639" lon="-4.556">
        <ele>30.378827</ele>
        <time>2020-06-21T15:27:36.581Z</time>
      </trkpt>
      <trkpt lat="48.26622" lon="-4.55647">
        <ele>30.415969</ele>
        <time>2020-06-21T15:27:45.421Z</time>
      </trkpt>
      <trkpt lat="48.26622" lon="-4.55671">
        <ele>30.783201</ele>
        <time>2020-06-21T15:27:49.523Z</time>
      </trkpt>
      <trkpt lat="48.2663" lon="-4.55769">
        <ele>32.319966</ele>
        <time>2020-06-21T15:28:09.340Z</time>
      </trkpt>
      <trkpt lat="48.26644" lon="-4.55844">
        <ele>33.539443</ele>
        <time>2020-06-21T15:28:27.125Z</time>
      </trkpt>
      <trkpt lat="48.2665" lon="-4.55865">
        <ele>33.894759</ele>
        <time>2020-06-21T15:28:32.910Z</time>
      </trkpt>
      <trkpt lat="48.26668" lon="-4.55899">
        <ele>34.575545</ele>
        <time>2020-06-21T15:28:43.679Z</time>
      </trkpt>
      <trkpt lat="48.26674" lon="-4.55911">
        <ele>34.800495</ele>
        <time>2020-06-21T15:28:47.622Z</time>
      </trkpt>
      <trkpt lat="48.26678" lon="-4.55929">
        <ele>35.108611</ele>
        <time>2020-06-21T15:28:52.142Z</time>
      </trkpt>
      <trkpt lat="48.26678" lon="-4.56003">
        <ele>36.263358</ele>
        <time>2020-06-21T15:29:08.951Z</time>
      </trkpt>
      <trkpt lat="48.26682" lon="-4.56029">
        <ele>36.672752</ele>
        <time>2020-06-21T15:29:14.956Z</time>
      </trkpt>
      <trkpt lat="48.26726" lon="-4.56135">
        <ele>38.629866</ele>
        <time>2020-06-21T15:29:40.414Z</time>
      </trkpt>
      <trkpt lat="48.26743" lon="-4.56234">
        <ele>39.095096</ele>
        <time>2020-06-21T15:29:56.843Z</time>
      </trkpt>
      <trkpt lat="48.26751" lon="-4.56276">
        <ele>39.240088</ele>
        <time>2020-06-21T15:30:03.254Z</time>
      </trkpt>
      <trkpt lat="48.26739" lon="-4.56381">
        <ele>39.591434</ele>
        <time>2020-06-21T15:30:18.038Z</time>
      </trkpt>
      <trkpt lat="48.26762" lon="-4.56509">
        <ele>40.361495</ele>
        <time>2020-06-21T15:30:35.852Z</time>
      </trkpt>
      <trkpt lat="48.26772" lon="-4.56569">
        <ele>40.761089</ele>
        <time>2020-06-21T15:30:45.256Z</time>
      </trkpt>
      <trkpt lat="48.26826" lon="-4.56752">
        <ele>42.908401</ele>
        <time>2020-06-21T15:31:26.657Z</time>
      </trkpt>
      <trkpt lat="48.26848" lon="-4.56823">
        <ele>44.105499</ele>
        <time>2020-06-21T15:31:44.413Z</time>
      </trkpt>
      <trkpt lat="48.26849" lon="-4.56824">
        <ele>44.124652</ele>
        <time>2020-06-21T15:31:44.812Z</time>
      </trkpt>
      <trkpt lat="48.26882" lon="-4.56902">
        <ele>45.540593</ele>
        <time>2020-06-21T15:32:04.456Z</time>
      </trkpt>
      <trkpt lat="48.26881" lon="-4.56955">
        <ele>45.930014</ele>
        <time>2020-06-21T15:32:15.429Z</time>
      </trkpt>
      <trkpt lat="48.26848" lon="-4.5726">
        <ele>47.301005</ele>
        <time>2020-06-21T15:33:03.985Z</time>
      </trkpt>
      <trkpt lat="48.26843" lon="-4.57295">
        <ele>47.238027</ele>
        <time>2020-06-21T15:33:08.451Z</time>
      </trkpt>
      <trkpt lat="48.26798" lon="-4.57676">
        <ele>45.664754</ele>
        <time>2020-06-21T15:33:55.473Z</time>
      </trkpt>
      <trkpt lat="48.26794" lon="-4.57713">
        <ele>45.499277</ele>
        <time>2020-06-21T15:33:59.883Z</time>
      </trkpt>
      <trkpt lat="48.26875" lon="-4.57798">
        <ele>45.19505</ele>
        <time>2020-06-21T15:34:17.595Z</time>
      </trkpt>
      <trkpt lat="48.26966" lon="-4.57903">
        <ele>45.131727</ele>
        <time>2020-06-21T15:34:39.997Z</time>
      </trkpt>
      <trkpt lat="48.26982" lon="-4.57931">
        <ele>45.233132</ele>
        <time>2020-06-21T15:34:45.090Z</time>
      </trkpt>
      <trkpt lat="48.27" lon="-4.57971">
        <ele>45.362312</ele>
        <time>2020-06-21T15:34:51.564Z</time>
      </trkpt>
      <trkpt lat="48.27011" lon="-4.58008">
        <ele>45.469481</ele>
        <time>2020-06-21T15:34:57.194Z</time>
      </trkpt>
      <trkpt lat="48.27017" lon="-4.58037">
        <ele>45.551122</ele>
        <time>2020-06-21T15:35:01.762Z</time>
      </trkpt>
      <trkpt lat="48.27021" lon="-4.58093">
        <ele>45.719274</ele>
        <time>2020-06-21T15:35:10.562Z</time>
      </trkpt>
      <trkpt lat="48.2702" lon="-4.58141">
        <ele>46.029994</ele>
        <time>2020-06-21T15:35:18.382Z</time>
      </trkpt>
      <trkpt lat="48.27019" lon="-4.58166">
        <ele>46.189267</ele>
        <time>2020-06-21T15:35:22.428Z</time>
      </trkpt>
      <trkpt lat="48.27011" lon="-4.58379">
        <ele>47.524524</ele>
        <time>2020-06-21T15:35:56.668Z</time>
      </trkpt>
      <trkpt lat="48.27014" lon="-4.58432">
        <ele>47.731548</ele>
        <time>2020-06-21T15:36:05.188Z</time>
      </trkpt>
      <trkpt lat="48.27036" lon="-4.58495">
        <ele>48.007936</ele>
        <time>2020-06-21T15:36:16.058Z</time>
      </trkpt>
      <trkpt lat="48.27055" lon="-4.58529">
        <ele>48.179924</ele>
        <time>2020-06-21T15:36:22.585Z</time>
      </trkpt>
      <trkpt lat="48.27066" lon="-4.58552">
        <ele>48.292006</ele>
        <time>2020-06-21T15:36:26.620Z</time>
      </trkpt>
      <trkpt lat="48.27146" lon="-4.58696">
        <ele>47.799494</ele>
        <time>2020-06-21T15:36:50.941Z</time>
      </trkpt>
      <trkpt lat="48.27157" lon="-4.58706">
        <ele>47.696925</ele>
        <time>2020-06-21T15:36:53.256Z</time>
      </trkpt>
      <trkpt lat="48.27165" lon="-4.58713">
        <ele>47.625145</ele>
        <time>2020-06-21T15:36:54.895Z</time>
      </trkpt>
      <trkpt lat="48.27171" lon="-4.58712">
        <ele>47.578263</ele>
        <time>2020-06-21T15:36:55.896Z</time>
      </trkpt>
      <trkpt lat="48.2718" lon="-4.58727">
        <ele>47.47744</ele>
        <time>2020-06-21T15:36:58.059Z</time>
      </trkpt>
      <trkpt lat="48.27179" lon="-4.58734">
        <ele>47.442474</ele>
        <time>2020-06-21T15:36:58.810Z</time>
      </trkpt>
      <trkpt lat="48.27177" lon="-4.5874">
        <ele>47.407697</ele>
        <time>2020-06-21T15:36:59.559Z</time>
      </trkpt>
      <trkpt lat="48.2718" lon="-4.58751">
        <ele>47.344262</ele>
        <time>2020-06-21T15:37:00.914Z</time>
      </trkpt>
      <trkpt lat="48.27182" lon="-4.58761">
        <ele>47.291975</ele>
        <time>2020-06-21T15:37:01.988Z</time>
      </trkpt>
      <trkpt lat="48.27188" lon="-4.58806">
        <ele>46.911792</ele>
        <time>2020-06-21T15:37:06.814Z</time>
      </trkpt>
      <trkpt lat="48.27204" lon="-4.59049">
        <ele>40.937244</ele>
        <time>2020-06-21T15:37:29.661Z</time>
      </trkpt>
      <trkpt lat="48.27212" lon="-4.59083">
        <ele>39.74495</ele>
        <time>2020-06-21T15:37:32.875Z</time>
      </trkpt>
      <trkpt lat="48.27216" lon="-4.59098">
        <ele>39.106661</ele>
        <time>2020-06-21T15:37:34.263Z</time>
      </trkpt>
      <trkpt lat="48.27269" lon="-4.59098">
        <ele>35.851124</ele>
        <time>2020-06-21T15:37:41.208Z</time>
      </trkpt>
      <trkpt lat="48.27314" lon="-4.59088">
        <ele>33.006527</ele>
        <time>2020-06-21T15:37:47.116Z</time>
      </trkpt>
      <trkpt lat="48.27383" lon="-4.59082">
        <ele>28.684305</ele>
        <time>2020-06-21T15:37:55.693Z</time>
      </trkpt>
      <trkpt lat="48.27399" lon="-4.59082">
        <ele>27.45464</ele>
        <time>2020-06-21T15:37:57.778Z</time>
      </trkpt>
      <trkpt lat="48.27418" lon="-4.5909">
        <ele>26.017236</ele>
        <time>2020-06-21T15:38:00.220Z</time>
      </trkpt>
      <trkpt lat="48.2744" lon="-4.59136">
        <ele>23.233293</ele>
        <time>2020-06-21T15:38:04.952Z</time>
      </trkpt>
      <trkpt lat="48.27466" lon="-4.5919">
        <ele>20.016722</ele>
        <time>2020-06-21T15:38:10.398Z</time>
      </trkpt>
      <trkpt lat="48.2749" lon="-4.59252">
        <ele>16.45033</ele>
        <time>2020-06-21T15:38:16.403Z</time>
      </trkpt>
      <trkpt lat="48.27499" lon="-4.59275">
        <ele>15.519545</ele>
        <time>2020-06-21T15:38:18.587Z</time>
      </trkpt>
      <trkpt lat="48.27509" lon="-4.59308">
        <ele>14.368143</ele>
        <time>2020-06-21T15:38:21.598Z</time>
      </trkpt>
      <trkpt lat="48.27514" lon="-4.59325">
        <ele>13.764385</ele>
        <time>2020-06-21T15:38:23.204Z</time>
      </trkpt>
      <trkpt lat="48.27525" lon="-4.59365">
        <ele>12.345554</ele>
        <time>2020-06-21T15:38:27.031Z</time>
      </trkpt>
      <trkpt lat="48.27552" lon="-4.5945">
        <ele>9.324949</ele>
        <time>2020-06-21T15:38:35.569Z</time>
      </trkpt>
      <trkpt lat="48.27554" lon="-4.59453">
        <ele>9.181685</ele>
        <time>2020-06-21T15:38:35.992Z</time>
      </trkpt>
      <trkpt lat="48.27621" lon="-4.59524">
        <ele>7.039044</ele>
        <time>2020-06-21T15:38:48.315Z</time>
      </trkpt>
      <trkpt lat="48.27646" lon="-4.59546">
        <ele>6.762209</ele>
        <time>2020-06-21T15:38:52.952Z</time>
      </trkpt>
      <trkpt lat="48.27692" lon="-4.59591">
        <ele>6.239345</ele>
        <time>2020-06-21T15:39:02.750Z</time>
      </trkpt>
      <trkpt lat="48.277" lon="-4.59606">
        <ele>6.115947</ele>
        <time>2020-06-21T15:39:05.690Z</time>
      </trkpt>
      <trkpt lat="48.27731" lon="-4.59635">
        <ele>5.773346</ele>
        <time>2020-06-21T15:39:13.352Z</time>
      </trkpt>
      <trkpt lat="48.27763" lon="-4.59663">
        <ele>6.092643</ele>
        <time>2020-06-21T15:39:21.759Z</time>
      </trkpt>
      <trkpt lat="48.27792" lon="-4.59685">
        <ele>6.37103</ele>
        <time>2020-06-21T15:39:29.360Z</time>
      </trkpt>
      <trkpt lat="48.27837" lon="-4.59713">
        <ele>6.788653</ele>
        <time>2020-06-21T15:39:41.264Z</time>
      </trkpt>
      <trkpt lat="48.27843" lon="-4.59718">
        <ele>6.850204</ele>
        <time>2020-06-21T15:39:42.913Z</time>
      </trkpt>
      <trkpt lat="48.27879" lon="-4.59741">
        <ele>7.184276</ele>
        <time>2020-06-21T15:39:51.915Z</time>
      </trkpt>
      <trkpt lat="48.27908" lon="-4.5976">
        <ele>7.833895</ele>
        <time>2020-06-21T15:39:59.238Z</time>
      </trkpt>
      <trkpt lat="48.27923" lon="-4.59764">
        <ele>8.328087</ele>
        <time>2020-06-21T15:40:02.545Z</time>
      </trkpt>
      <trkpt lat="48.27936" lon="-4.59789">
        <ele>9.006943</ele>
        <time>2020-06-21T15:40:10.524Z</time>
      </trkpt>
      <trkpt lat="48.27948" lon="-4.59806">
        <ele>9.521015</ele>
        <time>2020-06-21T15:40:16.022Z</time>
      </trkpt>
      <trkpt lat="48.27987" lon="-4.59859">
        <ele>11.210223</ele>
        <time>2020-06-21T15:40:39.704Z</time>
      </trkpt>
      <trkpt lat="48.28022" lon="-4.59893">
        <ele>12.528915</ele>
        <time>2020-06-21T15:40:57.763Z</time>
      </trkpt>
      <trkpt lat="48.28027" lon="-4.59889">
        <ele>12.69859</ele>
        <time>2020-06-21T15:40:59.646Z</time>
      </trkpt>
      <trkpt lat="48.28032" lon="-4.59897">
        <ele>12.942182</ele>
        <time>2020-06-21T15:41:02.924Z</time>
      </trkpt>
      <trkpt lat="48.28024" lon="-4.59904">
        <ele>13.370684</ele>
        <time>2020-06-21T15:41:07.244Z</time>
      </trkpt>
      <trkpt lat="48.28022" lon="-4.59909">
        <ele>13.592915</ele>
        <time>2020-06-21T15:41:09.283Z</time>
      </trkpt>
      <trkpt lat="48.2797" lon="-4.60002">
        <ele>18.009442</ele>
        <time>2020-06-21T15:41:44.973Z</time>
      </trkpt>
      <trkpt lat="48.27939" lon="-4.60061">
        <ele>20.764737</ele>
        <time>2020-06-21T15:42:08.795Z</time>
      </trkpt>
      <trkpt lat="48.27943" lon="-4.60075">
        <ele>21.322886</ele>
        <time>2020-06-21T15:42:14.383Z</time>
      </trkpt>
      <trkpt lat="48.27939" lon="-4.60084">
        <ele>21.733931</ele>
        <time>2020-06-21T15:42:18.707Z</time>
      </trkpt>
      <trkpt lat="48.2794" lon="-4.60098">
        <ele>22.245179</ele>
        <time>2020-06-21T15:42:23.686Z</time>
      </trkpt>
      <trkpt lat="48.27937" lon="-4.60198">
        <ele>26.11092</ele>
        <time>2020-06-21T15:42:57.526Z</time>
      </trkpt>
      <trkpt lat="48.27939" lon="-4.60354">
        <ele>32.147509</ele>
        <time>2020-06-21T15:43:46.020Z</time>
      </trkpt>
      <trkpt lat="48.27946" lon="-4.60423">
        <ele>35.080258</ele>
        <time>2020-06-21T15:44:10.373Z</time>
      </trkpt>
      <trkpt lat="48.27948" lon="-4.60451">
        <ele>36.297892</ele>
        <time>2020-06-21T15:44:20.203Z</time>
      </trkpt>
      <trkpt lat="48.27964" lon="-4.60555">
        <ele>41.107166</ele>
        <time>2020-06-21T15:44:59.367Z</time>
      </trkpt>
      <trkpt lat="48.27976" lon="-4.60615">
        <ele>43.896428</ele>
        <time>2020-06-21T15:45:22.264Z</time>
      </trkpt>
      <trkpt lat="48.27989" lon="-4.60678">
        <ele>46.502341</ele>
        <time>2020-06-21T15:45:46.106Z</time>
      </trkpt>
      <trkpt lat="48.28003" lon="-4.60748">
        <ele>49.028809</ele>
        <time>2020-06-21T15:46:12.533Z</time>
      </trkpt>
      <trkpt lat="48.28041" lon="-4.60894">
        <ele>54.454383</ele>
        <time>2020-06-21T15:46:58.288Z</time>
      </trkpt>
      <trkpt lat="48.28049" lon="-4.60925">
        <ele>54.95854</ele>
        <time>2020-06-21T15:47:06.176Z</time>
      </trkpt>
      <trkpt lat="48.28045" lon="-4.60962">
        <ele>55.231599</ele>
        <time>2020-06-21T15:47:13.845Z</time>
      </trkpt>
      <trkpt lat="48.28" lon="-4.61025">
        <ele>55.899005</ele>
        <time>2020-06-21T15:47:30.213Z</time>
      </trkpt>
      <trkpt lat="48.27985" lon="-4.61047">
        <ele>56.130708</ele>
        <time>2020-06-21T15:47:35.308Z</time>
      </trkpt>
      <trkpt lat="48.2798" lon="-4.61054">
        <ele>56.208151</ele>
        <time>2020-06-21T15:47:36.627Z</time>
      </trkpt>
      <trkpt lat="48.27934" lon="-4.61077">
        <ele>56.735152</ele>
        <time>2020-06-21T15:47:51.146Z</time>
      </trkpt>
      <trkpt lat="48.27905" lon="-4.61107">
        <ele>56.484866</ele>
        <time>2020-06-21T15:48:01.214Z</time>
      </trkpt>
      <trkpt lat="48.27878" lon="-4.61152">
        <ele>56.142304</ele>
        <time>2020-06-21T15:48:13.019Z</time>
      </trkpt>
      <trkpt lat="48.27836" lon="-4.61164">
        <ele>55.786366</ele>
        <time>2020-06-21T15:48:25.550Z</time>
      </trkpt>
      <trkpt lat="48.27788" lon="-4.61154">
        <ele>55.380658</ele>
        <time>2020-06-21T15:48:40.119Z</time>
      </trkpt>
      <trkpt lat="48.2776" lon="-4.61161">
        <ele>55.169063</ele>
        <time>2020-06-21T15:48:48.772Z</time>
      </trkpt>
      <trkpt lat="48.27711" lon="-4.6119">
        <ele>54.823549</ele>
        <time>2020-06-21T15:49:04.672Z</time>
      </trkpt>
      <trkpt lat="48.27675" lon="-4.61196">
        <ele>54.585715</ele>
        <time>2020-06-21T15:49:15.355Z</time>
      </trkpt>
      <trkpt lat="48.27638" lon="-4.61219">
        <ele>54.323962</ele>
        <time>2020-06-21T15:49:27.201Z</time>
      </trkpt>
      <trkpt lat="48.27649" lon="-4.61177">
        <ele>54.125538</ele>
        <time>2020-06-21T15:49:36.364Z</time>
      </trkpt>
      <trkpt lat="48.27641" lon="-4.61138">
        <ele>53.872825</ele>
        <time>2020-06-21T15:49:44.962Z</time>
      </trkpt>
      <trkpt lat="48.27631" lon="-4.61132">
        <ele>53.758046</ele>
        <time>2020-06-21T15:49:47.934Z</time>
      </trkpt>
      <trkpt lat="48.27585" lon="-4.61073">
        <ele>53.140038</ele>
        <time>2020-06-21T15:50:06.244Z</time>
      </trkpt>
      <trkpt lat="48.27576" lon="-4.61043">
        <ele>52.915511</ele>
        <time>2020-06-21T15:50:12.264Z</time>
      </trkpt>
      <trkpt lat="48.27543" lon="-4.61014">
        <ele>52.520387</ele>
        <time>2020-06-21T15:50:23.241Z</time>
      </trkpt>
      <trkpt lat="48.27536" lon="-4.61018">
        <ele>52.444655</ele>
        <time>2020-06-21T15:50:25.427Z</time>
      </trkpt>
      <trkpt lat="48.27528" lon="-4.6104">
        <ele>52.275786</ele>
        <time>2020-06-21T15:50:29.770Z</time>
      </trkpt>
      <trkpt lat="48.27501" lon="-4.61053">
        <ele>52.042812</ele>
        <time>2020-06-21T15:50:38.228Z</time>
      </trkpt>
      <trkpt lat="48.27489" lon="-4.61065">
        <ele>51.932417</ele>
        <time>2020-06-21T15:50:42.588Z</time>
      </trkpt>
      <trkpt lat="48.27484" lon="-4.61055">
        <ele>51.870258</ele>
        <time>2020-06-21T15:50:45.079Z</time>
      </trkpt>
      <trkpt lat="48.27476" lon="-4.61054">
        <ele>51.810996</ele>
        <time>2020-06-21T15:50:47.390Z</time>
      </trkpt>
      <trkpt lat="48.27472" lon="-4.61026">
        <ele>51.665196</ele>
        <time>2020-06-21T15:50:51.931Z</time>
      </trkpt>
      <trkpt lat="48.27462" lon="-4.61">
        <ele>51.514348</ele>
        <time>2020-06-21T15:50:56.620Z</time>
      </trkpt>
      <trkpt lat="48.27381" lon="-4.61058">
        <ele>50.85053</ele>
        <time>2020-06-21T15:51:13.450Z</time>
      </trkpt>
      <trkpt lat="48.27368" lon="-4.61067">
        <ele>50.806392</ele>
        <time>2020-06-21T15:51:16.064Z</time>
      </trkpt>
      <trkpt lat="48.27281" lon="-4.61128">
        <ele>50.511622</ele>
        <time>2020-06-21T15:51:34.978Z</time>
      </trkpt>
      <trkpt lat="48.2725" lon="-4.61134">
        <ele>50.4162</ele>
        <time>2020-06-21T15:51:41.170Z</time>
      </trkpt>
      <trkpt lat="48.2723" lon="-4.61122">
        <ele>50.348579</ele>
        <time>2020-06-21T15:51:45.608Z</time>
      </trkpt>
      <trkpt lat="48.27223" lon="-4.61113">
        <ele>50.321315</ele>
        <time>2020-06-21T15:51:47.216Z</time>
      </trkpt>
      <trkpt lat="48.27228" lon="-4.61148">
        <ele>50.222603</ele>
        <time>2020-06-21T15:51:54.576Z</time>
      </trkpt>
      <trkpt lat="48.27225" lon="-4.61159">
        <ele>50.189059</ele>
        <time>2020-06-21T15:51:56.887Z</time>
      </trkpt>
      <trkpt lat="48.27186" lon="-4.61188">
        <ele>49.998183</ele>
        <time>2020-06-21T15:52:10.089Z</time>
      </trkpt>
      <trkpt lat="48.27184" lon="-4.6119">
        <ele>49.984833</ele>
        <time>2020-06-21T15:52:11.020Z</time>
      </trkpt>
      <trkpt lat="48.27106" lon="-4.61242">
        <ele>49.612377</ele>
        <time>2020-06-21T15:52:36.966Z</time>
      </trkpt>
      <trkpt lat="48.27009" lon="-4.61306">
        <ele>48.850153</ele>
        <time>2020-06-21T15:53:08.831Z</time>
      </trkpt>
      <trkpt lat="48.26992" lon="-4.61331">
        <ele>48.659926</ele>
        <time>2020-06-21T15:53:12.927Z</time>
      </trkpt>
      <trkpt lat="48.26979" lon="-4.61347">
        <ele>48.528502</ele>
        <time>2020-06-21T15:53:15.780Z</time>
      </trkpt>
      <trkpt lat="48.26967" lon="-4.61362">
        <ele>48.403417</ele>
        <time>2020-06-21T15:53:18.465Z</time>
      </trkpt>
      <trkpt lat="48.2694" lon="-4.61395">
        <ele>48.127648</ele>
        <time>2020-06-21T15:53:24.391Z</time>
      </trkpt>
      <trkpt lat="48.26903" lon="-4.61427">
        <ele>47.648965</ele>
        <time>2020-06-21T15:53:31.535Z</time>
      </trkpt>
      <trkpt lat="48.26869" lon="-4.61455">
        <ele>47.202552</ele>
        <time>2020-06-21T15:53:37.987Z</time>
      </trkpt>
      <trkpt lat="48.26859" lon="-4.61463">
        <ele>47.068868</ele>
        <time>2020-06-21T15:53:39.906Z</time>
      </trkpt>
      <trkpt lat="48.26816" lon="-4.6149">
        <ele>46.53167</ele>
        <time>2020-06-21T15:53:47.522Z</time>
      </trkpt>
      <trkpt lat="48.26771" lon="-4.61519">
        <ele>45.964463</ele>
        <time>2020-06-21T15:53:55.552Z</time>
      </trkpt>
      <trkpt lat="48.26763" lon="-4.61524">
        <ele>45.873621</ele>
        <time>2020-06-21T15:53:56.854Z</time>
      </trkpt>
      <trkpt lat="48.26646" lon="-4.61592">
        <ele>44.456121</ele>
        <time>2020-06-21T15:54:18.332Z</time>
      </trkpt>
      <trkpt lat="48.26646" lon="-4.61592">
        <ele>44.456121</ele>
        <time>2020-06-21T15:54:18.335Z</time>
      </trkpt>
      <trkpt lat="48.26597" lon="-4.61612">
        <ele>43.64322</ele>
        <time>2020-06-21T15:54:27.294Z</time>
      </trkpt>
      <trkpt lat="48.26481" lon="-4.61631">
        <ele>39.685197</ele>
        <time>2020-06-21T15:54:44.228Z</time>
      </trkpt>
      <trkpt lat="48.2645" lon="-4.61642">
        <ele>38.597852</ele>
        <time>2020-06-21T15:54:48.412Z</time>
      </trkpt>
      <trkpt lat="48.2644" lon="-4.61638">
        <ele>38.241112</ele>
        <time>2020-06-21T15:54:49.840Z</time>
      </trkpt>
      <trkpt lat="48.26408" lon="-4.61627">
        <ele>36.995961</ele>
        <time>2020-06-21T15:54:54.459Z</time>
      </trkpt>
      <trkpt lat="48.26394" lon="-4.61594">
        <ele>35.972081</ele>
        <time>2020-06-21T15:54:58.106Z</time>
      </trkpt>
      <trkpt lat="48.26369" lon="-4.61474">
        <ele>32.654792</ele>
        <time>2020-06-21T15:55:10.324Z</time>
      </trkpt>
      <trkpt lat="48.26422" lon="-4.61435">
        <ele>30.850059</ele>
        <time>2020-06-21T15:55:19.435Z</time>
      </trkpt>
      <trkpt lat="48.26422" lon="-4.61435">
        <ele>30.850059</ele>
        <time>2020-06-21T15:55:19.533Z</time>
      </trkpt>
      <trkpt lat="48.26449" lon="-4.61444">
        <ele>31.112408</ele>
        <time>2020-06-21T15:55:24.396Z</time>
      </trkpt>
      <trkpt lat="48.26462" lon="-4.61437">
        <ele>31.243187</ele>
        <time>2020-06-21T15:55:27.584Z</time>
      </trkpt>
      <trkpt lat="48.26484" lon="-4.61424">
        <ele>31.470034</ele>
        <time>2020-06-21T15:55:32.916Z</time>
      </trkpt>
      <trkpt lat="48.26505" lon="-4.614">
        <ele>31.727097</ele>
        <time>2020-06-21T15:55:41.018Z</time>
      </trkpt>
      <trkpt lat="48.26511" lon="-4.61392">
        <ele>31.801782</ele>
        <time>2020-06-21T15:55:43.246Z</time>
      </trkpt>
      <trkpt lat="48.26535" lon="-4.61392">
        <ele>32.027598</ele>
        <time>2020-06-21T15:55:54.724Z</time>
      </trkpt>
      <trkpt lat="48.26582" lon="-4.61376">
        <ele>32.524925</ele>
        <time>2020-06-21T15:56:16.501Z</time>
      </trkpt>
      <trkpt lat="48.26648" lon="-4.61323">
        <ele>34.319734</ele>
        <time>2020-06-21T15:56:50.637Z</time>
      </trkpt>
      <trkpt lat="48.2674" lon="-4.61287">
        <ele>36.579804</ele>
        <time>2020-06-21T15:57:32.393Z</time>
      </trkpt>
      <trkpt lat="48.26816" lon="-4.61244">
        <ele>36.799252</ele>
        <time>2020-06-21T15:58:03.101Z</time>
      </trkpt>
      <trkpt lat="48.26811" lon="-4.61205">
        <ele>36.814411</ele>
        <time>2020-06-21T15:58:11.319Z</time>
      </trkpt>
      <trkpt lat="48.26782" lon="-4.61195">
        <ele>36.83114</ele>
        <time>2020-06-21T15:58:20.268Z</time>
      </trkpt>
      <trkpt lat="48.26757" lon="-4.6117">
        <ele>36.84856</ele>
        <time>2020-06-21T15:58:29.164Z</time>
      </trkpt>
      <trkpt lat="48.26744" lon="-4.61172">
        <ele>36.856179</ele>
        <time>2020-06-21T15:58:32.910Z</time>
      </trkpt>
      <trkpt lat="48.26732" lon="-4.60971">
        <ele>34.901339</ele>
        <time>2020-06-21T15:59:09.023Z</time>
      </trkpt>
      <trkpt lat="48.26722" lon="-4.60881">
        <ele>34.190332</ele>
        <time>2020-06-21T15:59:27.286Z</time>
      </trkpt>
      <trkpt lat="48.26715" lon="-4.60853">
        <ele>34.45365</ele>
        <time>2020-06-21T15:59:33.425Z</time>
      </trkpt>
      <trkpt lat="48.26719" lon="-4.60832">
        <ele>34.656904</ele>
        <time>2020-06-21T15:59:36.687Z</time>
      </trkpt>
      <trkpt lat="48.26719" lon="-4.60694">
        <ele>35.915719</ele>
        <time>2020-06-21T16:00:03.483Z</time>
      </trkpt>
      <trkpt lat="48.26733" lon="-4.60601">
        <ele>36.722803</ele>
        <time>2020-06-21T16:00:24.990Z</time>
      </trkpt>
      <trkpt lat="48.26758" lon="-4.60496">
        <ele>37.475785</ele>
        <time>2020-06-21T16:00:46.052Z</time>
      </trkpt>
      <trkpt lat="48.26637" lon="-4.60525">
        <ele>38.166719</ele>
        <time>2020-06-21T16:01:25.470Z</time>
      </trkpt>
      <trkpt lat="48.26617" lon="-4.60529">
        <ele>38.044785</ele>
        <time>2020-06-21T16:01:31.300Z</time>
      </trkpt>
      <trkpt lat="48.2656" lon="-4.60525">
        <ele>37.690941</ele>
        <time>2020-06-21T16:01:48.117Z</time>
      </trkpt>
      <trkpt lat="48.26557" lon="-4.60516">
        <ele>37.648179</ele>
        <time>2020-06-21T16:01:50.110Z</time>
      </trkpt>
      <trkpt lat="48.26552" lon="-4.60432">
        <ele>37.305051</ele>
        <time>2020-06-21T16:02:06.740Z</time>
      </trkpt>
      <trkpt lat="48.26524" lon="-4.60419">
        <ele>37.354463</ele>
        <time>2020-06-21T16:02:12.322Z</time>
      </trkpt>
      <trkpt lat="48.26481" lon="-4.60387">
        <ele>37.515683</ele>
        <time>2020-06-21T16:02:21.939Z</time>
      </trkpt>
      <trkpt lat="48.26341" lon="-4.60156">
        <ele>39.813203</ele>
        <time>2020-06-21T16:03:36.756Z</time>
      </trkpt>
      <trkpt lat="48.26281" lon="-4.60057">
        <ele>41.732282</ele>
        <time>2020-06-21T16:04:18.751Z</time>
      </trkpt>
      <trkpt lat="48.26229" lon="-4.59974">
        <ele>44.690396</ele>
        <time>2020-06-21T16:04:59.226Z</time>
      </trkpt>
      <trkpt lat="48.26202" lon="-4.59959">
        <ele>45.802073</ele>
        <time>2020-06-21T16:05:14.641Z</time>
      </trkpt>
      <trkpt lat="48.26181" lon="-4.59941">
        <ele>46.745121</ele>
        <time>2020-06-21T16:05:27.112Z</time>
      </trkpt>
      <trkpt lat="48.26161" lon="-4.59877">
        <ele>48.501994</ele>
        <time>2020-06-21T16:05:51.093Z</time>
      </trkpt>
      <trkpt lat="48.26146" lon="-4.59823">
        <ele>49.332526</ele>
        <time>2020-06-21T16:06:09.552Z</time>
      </trkpt>
      <trkpt lat="48.26139" lon="-4.59777">
        <ele>50.011305</ele>
        <time>2020-06-21T16:06:23.935Z</time>
      </trkpt>
      <trkpt lat="48.26136" lon="-4.59692">
        <ele>51.242118</ele>
        <time>2020-06-21T16:06:47.787Z</time>
      </trkpt>
      <trkpt lat="48.2613" lon="-4.59636">
        <ele>52.053506</ele>
        <time>2020-06-21T16:07:01.946Z</time>
      </trkpt>
      <trkpt lat="48.2612" lon="-4.59589">
        <ele>52.200925</ele>
        <time>2020-06-21T16:07:13.161Z</time>
      </trkpt>
      <trkpt lat="48.26077" lon="-4.59483">
        <ele>51.980447</ele>
        <time>2020-06-21T16:07:39.057Z</time>
      </trkpt>
      <trkpt lat="48.26066" lon="-4.59442">
        <ele>51.90149</ele>
        <time>2020-06-21T16:07:48.038Z</time>
      </trkpt>
      <trkpt lat="48.2604" lon="-4.59277">
        <ele>50.567304</ele>
        <time>2020-06-21T16:08:20.651Z</time>
      </trkpt>
      <trkpt lat="48.26036" lon="-4.59183">
        <ele>49.443549</ele>
        <time>2020-06-21T16:08:37.662Z</time>
      </trkpt>
      <trkpt lat="48.26023" lon="-4.59171">
        <ele>49.17086</ele>
        <time>2020-06-21T16:08:41.696Z</time>
      </trkpt>
      <trkpt lat="48.25957" lon="-4.59142">
        <ele>48.324663</ele>
        <time>2020-06-21T16:09:00.544Z</time>
      </trkpt>
      <trkpt lat="48.25883" lon="-4.59084">
        <ele>47.752076</ele>
        <time>2020-06-21T16:09:24.168Z</time>
      </trkpt>
      <trkpt lat="48.25684" lon="-4.58892">
        <ele>49.550705</ele>
        <time>2020-06-21T16:10:52.245Z</time>
      </trkpt>
      <trkpt lat="48.2561" lon="-4.58934">
        <ele>51.382957</ele>
        <time>2020-06-21T16:11:27.580Z</time>
      </trkpt>
      <trkpt lat="48.25578" lon="-4.58933">
        <ele>52.144706</ele>
        <time>2020-06-21T16:11:42.007Z</time>
      </trkpt>
      <trkpt lat="48.2553" lon="-4.58917">
        <ele>53.328459</ele>
        <time>2020-06-21T16:12:04.066Z</time>
      </trkpt>
      <trkpt lat="48.25529" lon="-4.58844">
        <ele>54.344501</ele>
        <time>2020-06-21T16:12:25.708Z</time>
      </trkpt>
      <trkpt lat="48.25537" lon="-4.58701">
        <ele>56.07281</ele>
        <time>2020-06-21T16:13:05.419Z</time>
      </trkpt>
      <trkpt lat="48.25539" lon="-4.58684">
        <ele>56.273277</ele>
        <time>2020-06-21T16:13:10.296Z</time>
      </trkpt>
      <trkpt lat="48.25554" lon="-4.5855">
        <ele>57.390722</ele>
        <time>2020-06-21T16:13:44.069Z</time>
      </trkpt>
      <trkpt lat="48.2559" lon="-4.58407">
        <ele>58.00267</ele>
        <time>2020-06-21T16:14:19.109Z</time>
      </trkpt>
      <trkpt lat="48.25594" lon="-4.58372">
        <ele>58.14245</ele>
        <time>2020-06-21T16:14:26.833Z</time>
      </trkpt>
      <trkpt lat="48.25556" lon="-4.58306">
        <ele>57.912498</ele>
        <time>2020-06-21T16:14:45.381Z</time>
      </trkpt>
      <trkpt lat="48.2555" lon="-4.58284">
        <ele>57.807469</ele>
        <time>2020-06-21T16:14:50.469Z</time>
      </trkpt>
      <trkpt lat="48.2555" lon="-4.58241">
        <ele>57.615535</ele>
        <time>2020-06-21T16:14:59.397Z</time>
      </trkpt>
      <trkpt lat="48.25563" lon="-4.58178">
        <ele>57.326774</ele>
        <time>2020-06-21T16:15:12.335Z</time>
      </trkpt>
      <trkpt lat="48.25567" lon="-4.58169">
        <ele>57.278879</ele>
        <time>2020-06-21T16:15:14.443Z</time>
      </trkpt>
      <trkpt lat="48.25636" lon="-4.58105">
        <ele>56.005581</ele>
        <time>2020-06-21T16:15:37.139Z</time>
      </trkpt>
      <trkpt lat="48.25595" lon="-4.57906">
        <ele>52.743531</ele>
        <time>2020-06-21T16:16:13.919Z</time>
      </trkpt>
      <trkpt lat="48.25599" lon="-4.5782">
        <ele>51.671085</ele>
        <time>2020-06-21T16:16:28.880Z</time>
      </trkpt>
      <trkpt lat="48.25595" lon="-4.57763">
        <ele>50.954986</ele>
        <time>2020-06-21T16:16:38.932Z</time>
      </trkpt>
      <trkpt lat="48.25628" lon="-4.57518">
        <ele>49.541788</ele>
        <time>2020-06-21T16:17:28.104Z</time>
      </trkpt>
      <trkpt lat="48.25653" lon="-4.573">
        <ele>49.809645</ele>
        <time>2020-06-21T16:18:22.786Z</time>
      </trkpt>
      <trkpt lat="48.25696" lon="-4.57002">
        <ele>49.538633</ele>
        <time>2020-06-21T16:19:26.497Z</time>
      </trkpt>
      <trkpt lat="48.2571" lon="-4.56904">
        <ele>49.029523</ele>
        <time>2020-06-21T16:19:46.046Z</time>
      </trkpt>
      <trkpt lat="48.2572" lon="-4.56837">
        <ele>48.533358</ele>
        <time>2020-06-21T16:19:59.135Z</time>
      </trkpt>
      <trkpt lat="48.2573" lon="-4.5682">
        <ele>48.1066</ele>
        <time>2020-06-21T16:20:03.817Z</time>
      </trkpt>
      <trkpt lat="48.25764" lon="-4.56794">
        <ele>47.068864</ele>
        <time>2020-06-21T16:20:14.165Z</time>
      </trkpt>
      <trkpt lat="48.25798" lon="-4.56797">
        <ele>46.1208</ele>
        <time>2020-06-21T16:20:23.345Z</time>
      </trkpt>
      <trkpt lat="48.25823" lon="-4.56789">
        <ele>45.412259</ele>
        <time>2020-06-21T16:20:29.920Z</time>
      </trkpt>
      <trkpt lat="48.25853" lon="-4.56754">
        <ele>44.357601</ele>
        <time>2020-06-21T16:20:39.547Z</time>
      </trkpt>
      <trkpt lat="48.25864" lon="-4.56731">
        <ele>43.818644</ele>
        <time>2020-06-21T16:20:44.494Z</time>
      </trkpt>
      <trkpt lat="48.25879" lon="-4.56719">
        <ele>42.977832</ele>
        <time>2020-06-21T16:20:48.392Z</time>
      </trkpt>
      <trkpt lat="48.25903" lon="-4.56627">
        <ele>39.22302</ele>
        <time>2020-06-21T16:21:04.226Z</time>
      </trkpt>
      <trkpt lat="48.25899" lon="-4.56553">
        <ele>36.405433</ele>
        <time>2020-06-21T16:21:15.823Z</time>
      </trkpt>
      <trkpt lat="48.25931" lon="-4.5653">
        <ele>34.388051</ele>
        <time>2020-06-21T16:21:24.028Z</time>
      </trkpt>
      <trkpt lat="48.2599" lon="-4.56532">
        <ele>30.778916</ele>
        <time>2020-06-21T16:21:37.328Z</time>
      </trkpt>
      <trkpt lat="48.26013" lon="-4.56549">
        <ele>29.154066</ele>
        <time>2020-06-21T16:21:40.730Z</time>
      </trkpt>
      <trkpt lat="48.26067" lon="-4.56557">
        <ele>25.682527</ele>
        <time>2020-06-21T16:21:48.246Z</time>
      </trkpt>
      <trkpt lat="48.26068" lon="-4.56504">
        <ele>23.419972</ele>
        <time>2020-06-21T16:21:53.230Z</time>
      </trkpt>
      <trkpt lat="48.26071" lon="-4.56497">
        <ele>23.082241</ele>
        <time>2020-06-21T16:21:53.943Z</time>
      </trkpt>
      <trkpt lat="48.26062" lon="-4.56473">
        <ele>21.938623</ele>
        <time>2020-06-21T16:21:56.374Z</time>
      </trkpt>
      <trkpt lat="48.26018" lon="-4.56359">
        <ele>17.28194</ele>
        <time>2020-06-21T16:22:07.849Z</time>
      </trkpt>
      <trkpt lat="48.25955" lon="-4.56186">
        <ele>10.907439</ele>
        <time>2020-06-21T16:22:25.465Z</time>
      </trkpt>
      <trkpt lat="48.25949" lon="-4.56169">
        <ele>10.40627</ele>
        <time>2020-06-21T16:22:27.117Z</time>
      </trkpt>
      <trkpt lat="48.25946" lon="-4.56156">
        <ele>10.062464</ele>
        <time>2020-06-21T16:22:28.384Z</time>
      </trkpt>
      <trkpt lat="48.2594" lon="-4.56107">
        <ele>8.755167</ele>
        <time>2020-06-21T16:22:33.019Z</time>
      </trkpt>
      <trkpt lat="48.25941" lon="-4.56036">
        <ele>6.931732</ele>
        <time>2020-06-21T16:22:39.704Z</time>
      </trkpt>
      <trkpt lat="48.25941" lon="-4.56013">
        <ele>6.323358</ele>
        <time>2020-06-21T16:22:41.843Z</time>
      </trkpt>
      <trkpt lat="48.25937" lon="-4.55912">
        <ele>5.732463</ele>
        <time>2020-06-21T16:22:51.903Z</time>
      </trkpt>
      <trkpt lat="48.25926" lon="-4.55846">
        <ele>5.886552</ele>
        <time>2020-06-21T16:22:59.787Z</time>
      </trkpt>
      <trkpt lat="48.25913" lon="-4.55772">
        <ele>6.060315</ele>
        <time>2020-06-21T16:23:11.384Z</time>
      </trkpt>
      <trkpt lat="48.25878" lon="-4.55668">
        <ele>8.916053</ele>
        <time>2020-06-21T16:23:43.153Z</time>
      </trkpt>
      <trkpt lat="48.25842" lon="-4.5556">
        <ele>14.210223</ele>
        <time>2020-06-21T16:24:23.843Z</time>
      </trkpt>
      <trkpt lat="48.25842" lon="-4.55554">
        <ele>14.503578</ele>
        <time>2020-06-21T16:24:28.038Z</time>
      </trkpt>
      <trkpt lat="48.25841" lon="-4.55486">
        <ele>17.476895</ele>
        <time>2020-06-21T16:24:53.558Z</time>
      </trkpt>
      <trkpt lat="48.25835" lon="-4.55487">
        <ele>17.879229</ele>
        <time>2020-06-21T16:24:57.556Z</time>
      </trkpt>
      <trkpt lat="48.25828" lon="-4.55478">
        <ele>18.636843</ele>
        <time>2020-06-21T16:25:05.987Z</time>
      </trkpt>
      <trkpt lat="48.25843" lon="-4.5539">
        <ele>24.08349</ele>
        <time>2020-06-21T16:25:57.459Z</time>
      </trkpt>
      <trkpt lat="48.25843" lon="-4.55308">
        <ele>29.011097</ele>
        <time>2020-06-21T16:26:42.354Z</time>
      </trkpt>
      <trkpt lat="48.25834" lon="-4.5525">
        <ele>32.576516</ele>
        <time>2020-06-21T16:27:11.523Z</time>
      </trkpt>
      <trkpt lat="48.2582" lon="-4.55211">
        <ele>34.773523</ele>
        <time>2020-06-21T16:27:30.096Z</time>
      </trkpt>
      <trkpt lat="48.25816" lon="-4.55201">
        <ele>35.17889</ele>
        <time>2020-06-21T16:27:36.085Z</time>
      </trkpt>
      <trkpt lat="48.25807" lon="-4.55159">
        <ele>36.665579</ele>
        <time>2020-06-21T16:27:54.331Z</time>
      </trkpt>
      <trkpt lat="48.25803" lon="-4.54971">
        <ele>43.11494</ele>
        <time>2020-06-21T16:29:06.993Z</time>
      </trkpt>
      <trkpt lat="48.25804" lon="-4.54685">
        <ele>44.809259</ele>
        <time>2020-06-21T16:30:13.213Z</time>
      </trkpt>
      <trkpt lat="48.25804" lon="-4.54685">
        <ele>44.809259</ele>
        <time>2020-06-21T16:30:13.249Z</time>
      </trkpt>
      <trkpt lat="48.25804" lon="-4.54685">
        <ele>44.809259</ele>
        <time>2020-06-21T16:30:13.254Z</time>
      </trkpt>
      <trkpt lat="48.25749" lon="-4.54635">
        <ele>42.46207</ele>
        <time>2020-06-21T16:30:32.063Z</time>
      </trkpt>
      <trkpt lat="48.25744" lon="-4.54637">
        <ele>42.292293</ele>
        <time>2020-06-21T16:30:33.198Z</time>
      </trkpt>
      <trkpt lat="48.25743" lon="-4.54704">
        <ele>40.677588</ele>
        <time>2020-06-21T16:30:44.182Z</time>
      </trkpt>
      <trkpt lat="48.25722" lon="-4.54769">
        <ele>38.924756</ele>
        <time>2020-06-21T16:30:55.439Z</time>
      </trkpt>
      <trkpt lat="48.25713" lon="-4.54813">
        <ele>37.460966</ele>
        <time>2020-06-21T16:31:02.484Z</time>
      </trkpt>
      <trkpt lat="48.25644" lon="-4.54736">
        <ele>32.6061</ele>
        <time>2020-06-21T16:31:22.421Z</time>
      </trkpt>
      <trkpt lat="48.25585" lon="-4.54862">
        <ele>28.12283</ele>
        <time>2020-06-21T16:31:47.261Z</time>
      </trkpt>
      <trkpt lat="48.25581" lon="-4.54863">
        <ele>28.084968</ele>
        <time>2020-06-21T16:31:48.099Z</time>
      </trkpt>
      <trkpt lat="48.25577" lon="-4.54853">
        <ele>28.006164</ele>
        <time>2020-06-21T16:31:50.340Z</time>
      </trkpt>
      <trkpt lat="48.25576" lon="-4.54783">
        <ele>27.546686</ele>
        <time>2020-06-21T16:32:03.631Z</time>
      </trkpt>
      <trkpt lat="48.25595" lon="-4.54725">
        <ele>27.117149</ele>
        <time>2020-06-21T16:32:18.388Z</time>
      </trkpt>
      <trkpt lat="48.25616" lon="-4.54605">
        <ele>27.269288</ele>
        <time>2020-06-21T16:32:49.090Z</time>
      </trkpt>
      <trkpt lat="48.25593" lon="-4.54527">
        <ele>28.467915</ele>
        <time>2020-06-21T16:33:14.391Z</time>
      </trkpt>
      <trkpt lat="48.25586" lon="-4.54475">
        <ele>29.200101</ele>
        <time>2020-06-21T16:33:29.207Z</time>
      </trkpt>
      <trkpt lat="48.25593" lon="-4.54441">
        <ele>29.693325</ele>
        <time>2020-06-21T16:33:39.851Z</time>
      </trkpt>
      <trkpt lat="48.25593" lon="-4.54399">
        <ele>30.283407</ele>
        <time>2020-06-21T16:33:52.382Z</time>
      </trkpt>
      <trkpt lat="48.25613" lon="-4.54189">
        <ele>32.710162</ele>
        <time>2020-06-21T16:34:53.581Z</time>
      </trkpt>
      <trkpt lat="48.25613" lon="-4.54167">
        <ele>32.954535</ele>
        <time>2020-06-21T16:34:58.943Z</time>
      </trkpt>
      <trkpt lat="48.25603" lon="-4.54131">
        <ele>33.395463</ele>
        <time>2020-06-21T16:35:04.523Z</time>
      </trkpt>
      <trkpt lat="48.25592" lon="-4.54036">
        <ele>32.618913</ele>
        <time>2020-06-21T16:35:16.403Z</time>
      </trkpt>
      <trkpt lat="48.25591" lon="-4.53988">
        <ele>32.185874</ele>
        <time>2020-06-21T16:35:21.911Z</time>
      </trkpt>
      <trkpt lat="48.2559" lon="-4.53978">
        <ele>32.103183</ele>
        <time>2020-06-21T16:35:22.939Z</time>
      </trkpt>
      <trkpt lat="48.25571" lon="-4.54016">
        <ele>31.681744</ele>
        <time>2020-06-21T16:35:28.082Z</time>
      </trkpt>
      <trkpt lat="48.25555" lon="-4.54062">
        <ele>31.217054</ele>
        <time>2020-06-21T16:35:33.664Z</time>
      </trkpt>
      <trkpt lat="48.25532" lon="-4.54083">
        <ele>30.854416</ele>
        <time>2020-06-21T16:35:38.002Z</time>
      </trkpt>
      <trkpt lat="48.25532" lon="-4.54083">
        <ele>30.854416</ele>
        <time>2020-06-21T16:35:38.010Z</time>
      </trkpt>
      <trkpt lat="48.25529" lon="-4.5408">
        <ele>30.799418</ele>
        <time>2020-06-21T16:35:38.597Z</time>
      </trkpt>
      <trkpt lat="48.25531" lon="-4.54062">
        <ele>30.624678</ele>
        <time>2020-06-21T16:35:40.522Z</time>
      </trkpt>
      <trkpt lat="48.25522" lon="-4.53951">
        <ele>29.578356</ele>
        <time>2020-06-21T16:35:52.228Z</time>
      </trkpt>
      <trkpt lat="48.25513" lon="-4.53843">
        <ele>28.563308</ele>
        <time>2020-06-21T16:36:04.527Z</time>
      </trkpt>
      <trkpt lat="48.25509" lon="-4.53805">
        <ele>28.526305</ele>
        <time>2020-06-21T16:36:09.470Z</time>
      </trkpt>
      <trkpt lat="48.25505" lon="-4.53743">
        <ele>28.552246</ele>
        <time>2020-06-21T16:36:17.430Z</time>
      </trkpt>
      <trkpt lat="48.25507" lon="-4.53703">
        <ele>28.568617</ele>
        <time>2020-06-21T16:36:22.756Z</time>
      </trkpt>
      <trkpt lat="48.25509" lon="-4.53678">
        <ele>28.579359</ele>
        <time>2020-06-21T16:36:26.234Z</time>
      </trkpt>
      <trkpt lat="48.2551" lon="-4.53656">
        <ele>28.588512</ele>
        <time>2020-06-21T16:36:29.276Z</time>
      </trkpt>
      <trkpt lat="48.25533" lon="-4.53414">
        <ele>29.117685</ele>
        <time>2020-06-21T16:37:03.366Z</time>
      </trkpt>
      <trkpt lat="48.2557" lon="-4.5324">
        <ele>29.479207</ele>
        <time>2020-06-21T16:37:30.633Z</time>
      </trkpt>
      <trkpt lat="48.2558" lon="-4.53223">
        <ele>29.481071</ele>
        <time>2020-06-21T16:37:34.056Z</time>
      </trkpt>
      <trkpt lat="48.25578" lon="-4.53153">
        <ele>29.486554</ele>
        <time>2020-06-21T16:37:42.539Z</time>
      </trkpt>
      <trkpt lat="48.25578" lon="-4.53123">
        <ele>29.488887</ele>
        <time>2020-06-21T16:37:46.069Z</time>
      </trkpt>
      <trkpt lat="48.25569" lon="-4.53064">
        <ele>29.493606</ele>
        <time>2020-06-21T16:37:53.452Z</time>
      </trkpt>
      <trkpt lat="48.2547" lon="-4.53088">
        <ele>29.549452</ele>
        <time>2020-06-21T16:38:13.065Z</time>
      </trkpt>
      <trkpt lat="48.25457" lon="-4.53061">
        <ele>29.563094</ele>
        <time>2020-06-21T16:38:17.924Z</time>
      </trkpt>
      <trkpt lat="48.25445" lon="-4.52986">
        <ele>29.594724</ele>
        <time>2020-06-21T16:38:28.103Z</time>
      </trkpt>
      <trkpt lat="48.25444" lon="-4.52982">
        <ele>29.59666</ele>
        <time>2020-06-21T16:38:28.881Z</time>
      </trkpt>
      <trkpt lat="48.25426" lon="-4.52934">
        <ele>29.766203</ele>
        <time>2020-06-21T16:38:37.148Z</time>
      </trkpt>
      <trkpt lat="48.25386" lon="-4.52772">
        <ele>30.598793</ele>
        <time>2020-06-21T16:39:08.050Z</time>
      </trkpt>
      <trkpt lat="48.25371" lon="-4.52752">
        <ele>30.747464</ele>
        <time>2020-06-21T16:39:13.273Z</time>
      </trkpt>
      <trkpt lat="48.25329" lon="-4.52715">
        <ele>30.455262</ele>
        <time>2020-06-21T16:39:22.624Z</time>
      </trkpt>
      <trkpt lat="48.25302" lon="-4.5268">
        <ele>29.836359</ele>
        <time>2020-06-21T16:39:28.945Z</time>
      </trkpt>
      <trkpt lat="48.25296" lon="-4.52666">
        <ele>29.653442</ele>
        <time>2020-06-21T16:39:30.760Z</time>
      </trkpt>
      <trkpt lat="48.25261" lon="-4.52624">
        <ele>28.867574</ele>
        <time>2020-06-21T16:39:38.271Z</time>
      </trkpt>
      <trkpt lat="48.25236" lon="-4.52646">
        <ele>28.364036</ele>
        <time>2020-06-21T16:39:42.818Z</time>
      </trkpt>
      <trkpt lat="48.25162" lon="-4.52693">
        <ele>26.592193</ele>
        <time>2020-06-21T16:39:54.991Z</time>
      </trkpt>
      <trkpt lat="48.2502" lon="-4.52791">
        <ele>23.523753</ele>
        <time>2020-06-21T16:40:19.678Z</time>
      </trkpt>
      <trkpt lat="48.24996" lon="-4.528">
        <ele>23.890052</ele>
        <time>2020-06-21T16:40:24.911Z</time>
      </trkpt>
      <trkpt lat="48.24961" lon="-4.52799">
        <ele>24.39546</ele>
        <time>2020-06-21T16:40:33.570Z</time>
      </trkpt>
      <trkpt lat="48.24784" lon="-4.5276">
        <ele>28.825043</ele>
        <time>2020-06-21T16:41:39.252Z</time>
      </trkpt>
      <trkpt lat="48.2477" lon="-4.52759">
        <ele>29.377229</ele>
        <time>2020-06-21T16:41:45.311Z</time>
      </trkpt>
      <trkpt lat="48.24745" lon="-4.52771">
        <ele>30.318824</ele>
        <time>2020-06-21T16:41:55.147Z</time>
      </trkpt>
      <trkpt lat="48.24733" lon="-4.52786">
        <ele>30.913535</ele>
        <time>2020-06-21T16:42:01.624Z</time>
      </trkpt>
      <trkpt lat="48.24686" lon="-4.52894">
        <ele>34.768684</ele>
        <time>2020-06-21T16:42:36.435Z</time>
      </trkpt>
      <trkpt lat="48.24628" lon="-4.52959">
        <ele>38.521875</ele>
        <time>2020-06-21T16:43:12.517Z</time>
      </trkpt>
      <trkpt lat="48.24611" lon="-4.52969">
        <ele>39.45004</ele>
        <time>2020-06-21T16:43:21.511Z</time>
      </trkpt>
      <trkpt lat="48.24598" lon="-4.52965">
        <ele>40.111561</ele>
        <time>2020-06-21T16:43:27.056Z</time>
      </trkpt>
      <trkpt lat="48.24595" lon="-4.52962">
        <ele>40.336326</ele>
        <time>2020-06-21T16:43:28.787Z</time>
      </trkpt>
      <trkpt lat="48.24571" lon="-4.52921">
        <ele>42.113055</ele>
        <time>2020-06-21T16:43:45.268Z</time>
      </trkpt>
      <trkpt lat="48.24552" lon="-4.52908">
        <ele>42.988458</ele>
        <time>2020-06-21T16:43:55.773Z</time>
      </trkpt>
      <trkpt lat="48.24511" lon="-4.52917">
        <ele>44.750311</ele>
        <time>2020-06-21T16:44:15.428Z</time>
      </trkpt>
      <trkpt lat="48.24493" lon="-4.52933">
        <ele>45.615287</ele>
        <time>2020-06-21T16:44:25.080Z</time>
      </trkpt>
      <trkpt lat="48.24421" lon="-4.53028">
        <ele>49.347746</ele>
        <time>2020-06-21T16:45:02.030Z</time>
      </trkpt>
      <trkpt lat="48.24406" lon="-4.53033">
        <ele>49.394505</ele>
        <time>2020-06-21T16:45:05.775Z</time>
      </trkpt>
      <trkpt lat="48.24379" lon="-4.53087">
        <ele>49.538418</ele>
        <time>2020-06-21T16:45:14.495Z</time>
      </trkpt>
      <trkpt lat="48.24345" lon="-4.53187">
        <ele>49.772838</ele>
        <time>2020-06-21T16:45:28.371Z</time>
      </trkpt>
      <trkpt lat="48.24327" lon="-4.53239">
        <ele>49.873413</ele>
        <time>2020-06-21T16:45:35.551Z</time>
      </trkpt>
      <trkpt lat="48.24298" lon="-4.53302">
        <ele>48.925975</ele>
        <time>2020-06-21T16:45:44.332Z</time>
      </trkpt>
      <trkpt lat="48.24252" lon="-4.53449">
        <ele>46.940695</ele>
        <time>2020-06-21T16:46:00.608Z</time>
      </trkpt>
      <trkpt lat="48.24242" lon="-4.53498">
        <ele>46.122244</ele>
        <time>2020-06-21T16:46:05.760Z</time>
      </trkpt>
      <trkpt lat="48.2428" lon="-4.53554">
        <ele>44.433671</ele>
        <time>2020-06-21T16:46:13.642Z</time>
      </trkpt>
      <trkpt lat="48.24254" lon="-4.53796">
        <ele>38.349366</ele>
        <time>2020-06-21T16:46:36.734Z</time>
      </trkpt>
      <trkpt lat="48.24248" lon="-4.53848">
        <ele>36.634781</ele>
        <time>2020-06-21T16:46:41.503Z</time>
      </trkpt>
      <trkpt lat="48.2424" lon="-4.53902">
        <ele>34.800451</ele>
        <time>2020-06-21T16:46:46.452Z</time>
      </trkpt>
      <trkpt lat="48.24237" lon="-4.53955">
        <ele>33.055927</ele>
        <time>2020-06-21T16:46:51.034Z</time>
      </trkpt>
      <trkpt lat="48.24233" lon="-4.54033">
        <ele>29.953469</ele>
        <time>2020-06-21T16:46:57.645Z</time>
      </trkpt>
      <trkpt lat="48.2423" lon="-4.54108">
        <ele>26.672049</ele>
        <time>2020-06-21T16:47:03.831Z</time>
      </trkpt>
      <trkpt lat="48.24229" lon="-4.54146">
        <ele>24.983931</ele>
        <time>2020-06-21T16:47:07.013Z</time>
      </trkpt>
      <trkpt lat="48.24227" lon="-4.54206">
        <ele>22.317162</ele>
        <time>2020-06-21T16:47:12.169Z</time>
      </trkpt>
      <trkpt lat="48.24227" lon="-4.54218">
        <ele>21.82855</ele>
        <time>2020-06-21T16:47:13.139Z</time>
      </trkpt>
      <trkpt lat="48.24235" lon="-4.54257">
        <ele>20.039454</ele>
        <time>2020-06-21T16:47:16.734Z</time>
      </trkpt>
      <trkpt lat="48.24243" lon="-4.54291">
        <ele>19.270494</ele>
        <time>2020-06-21T16:47:19.968Z</time>
      </trkpt>
      <trkpt lat="48.24242" lon="-4.54302">
        <ele>19.03168</ele>
        <time>2020-06-21T16:47:20.923Z</time>
      </trkpt>
      <trkpt lat="48.24231" lon="-4.54317">
        <ele>18.559981</ele>
        <time>2020-06-21T16:47:23.113Z</time>
      </trkpt>
      <trkpt lat="48.24203" lon="-4.54342">
        <ele>17.531597</ele>
        <time>2020-06-21T16:47:31.021Z</time>
      </trkpt>
      <trkpt lat="48.24196" lon="-4.54348">
        <ele>17.252888</ele>
        <time>2020-06-21T16:47:33.313Z</time>
      </trkpt>
      <trkpt lat="48.24168" lon="-4.54381">
        <ele>16.13892</ele>
        <time>2020-06-21T16:47:42.338Z</time>
      </trkpt>
      <trkpt lat="48.24158" lon="-4.54402">
        <ele>15.573737</ele>
        <time>2020-06-21T16:47:46.849Z</time>
      </trkpt>
      <trkpt lat="48.24138" lon="-4.54414">
        <ele>14.909186</ele>
        <time>2020-06-21T16:47:53.263Z</time>
      </trkpt>
      <trkpt lat="48.24127" lon="-4.5442">
        <ele>14.525709</ele>
        <time>2020-06-21T16:47:56.846Z</time>
      </trkpt>
      <trkpt lat="48.24099" lon="-4.54454">
        <ele>14.684855</ele>
        <time>2020-06-21T16:48:09.289Z</time>
      </trkpt>
      <trkpt lat="48.24097" lon="-4.54458">
        <ele>14.721804</ele>
        <time>2020-06-21T16:48:10.117Z</time>
      </trkpt>
      <trkpt lat="48.24072" lon="-4.5449">
        <ele>15.084874</ele>
        <time>2020-06-21T16:48:22.638Z</time>
      </trkpt>
      <trkpt lat="48.24053" lon="-4.54515">
        <ele>15.369875</ele>
        <time>2020-06-21T16:48:30.460Z</time>
      </trkpt>
      <trkpt lat="48.24042" lon="-4.54529">
        <ele>15.529993</ele>
        <time>2020-06-21T16:48:36.764Z</time>
      </trkpt>
      <trkpt lat="48.24039" lon="-4.54542">
        <ele>15.63272</ele>
        <time>2020-06-21T16:48:39.220Z</time>
      </trkpt>
      <trkpt lat="48.24039" lon="-4.54542">
        <ele>15.63272</ele>
        <time>2020-06-21T16:48:39.302Z</time>
      </trkpt>
      <trkpt lat="48.24039" lon="-4.54542">
        <ele>15.63272</ele>
        <time>2020-06-21T16:48:39.302Z</time>
      </trkpt>
      <trkpt lat="48.24037" lon="-4.54541">
        <ele>15.64809</ele>
        <time>2020-06-21T16:48:39.893Z</time>
      </trkpt>
      <trkpt lat="48.24031" lon="-4.54565">
        <ele>15.836418</ele>
        <time>2020-06-21T16:48:47.131Z</time>
      </trkpt>
      <trkpt lat="48.24031" lon="-4.54565">
        <ele>15.836418</ele>
        <time>2020-06-21T16:48:47.225Z</time>
      </trkpt>
      <trkpt lat="48.24031" lon="-4.54565">
        <ele>15.836418</ele>
        <time>2020-06-21T16:48:47.225Z</time>
      </trkpt>
      <trkpt lat="48.24032" lon="-4.54565">
        <ele>15.841766</ele>
        <time>2020-06-21T16:48:47.431Z</time>
      </trkpt>
      <trkpt lat="48.24018" lon="-4.54563">
        <ele>15.991427</ele>
        <time>2020-06-21T16:48:53.186Z</time>
      </trkpt>
      <trkpt lat="48.24018" lon="-4.54563">
        <ele>15.991427</ele>
        <time>2020-06-21T16:48:53.218Z</time>
      </trkpt>
      <trkpt lat="48.24018" lon="-4.54563">
        <ele>15.991427</ele>
        <time>2020-06-21T16:48:53.218Z</time>
      </trkpt>
      <trkpt lat="48.23998" lon="-4.54538">
        <ele>16.284091</ele>
        <time>2020-06-21T16:49:04.468Z</time>
      </trkpt>
      <trkpt lat="48.23998" lon="-4.54538">
        <ele>16.284091</ele>
        <time>2020-06-21T16:49:04.550Z</time>
      </trkpt>
      <trkpt lat="48.23998" lon="-4.54538">
        <ele>16.284091</ele>
        <time>2020-06-21T16:49:04.550Z</time>
      </trkpt>
      <trkpt lat="48.23982" lon="-4.54525">
        <ele>16.979203</ele>
        <time>2020-06-21T16:49:12.458Z</time>
      </trkpt>
      <trkpt lat="48.23982" lon="-4.54525">
        <ele>16.979203</ele>
        <time>2020-06-21T16:49:12.514Z</time>
      </trkpt>
      <trkpt lat="48.23982" lon="-4.54525">
        <ele>16.979203</ele>
        <time>2020-06-21T16:49:12.514Z</time>
      </trkpt>
      <trkpt lat="48.23982" lon="-4.54524">
        <ele>17.025669</ele>
        <time>2020-06-21T16:49:12.916Z</time>
      </trkpt>
      <trkpt lat="48.23968" lon="-4.54522">
        <ele>17.720488</ele>
        <time>2020-06-21T16:49:18.914Z</time>
      </trkpt>
      <trkpt lat="48.23968" lon="-4.54522">
        <ele>17.720488</ele>
        <time>2020-06-21T16:49:18.991Z</time>
      </trkpt>
      <trkpt lat="48.23968" lon="-4.54522">
        <ele>17.720488</ele>
        <time>2020-06-21T16:49:18.991Z</time>
      </trkpt>
      <trkpt lat="48.23968" lon="-4.54521">
        <ele>17.760398</ele>
        <time>2020-06-21T16:49:19.336Z</time>
      </trkpt>
      <trkpt lat="48.23951" lon="-4.54519">
        <ele>18.620398</ele>
        <time>2020-06-21T16:49:26.760Z</time>
      </trkpt>
      <trkpt lat="48.23951" lon="-4.54519">
        <ele>18.620398</ele>
        <time>2020-06-21T16:49:26.855Z</time>
      </trkpt>
      <trkpt lat="48.23951" lon="-4.54519">
        <ele>18.620398</ele>
        <time>2020-06-21T16:49:26.855Z</time>
      </trkpt>
      <trkpt lat="48.23951" lon="-4.54519">
        <ele>18.630298</ele>
        <time>2020-06-21T16:49:26.941Z</time>
      </trkpt>
      <trkpt lat="48.23936" lon="-4.54512">
        <ele>19.36017</ele>
        <time>2020-06-21T16:49:33.242Z</time>
      </trkpt>
      <trkpt lat="48.23936" lon="-4.54512">
        <ele>19.36017</ele>
        <time>2020-06-21T16:49:33.305Z</time>
      </trkpt>
      <trkpt lat="48.23936" lon="-4.54512">
        <ele>19.36017</ele>
        <time>2020-06-21T16:49:33.305Z</time>
      </trkpt>
      <trkpt lat="48.23937" lon="-4.54512">
        <ele>19.371241</ele>
        <time>2020-06-21T16:49:33.401Z</time>
      </trkpt>
      <trkpt lat="48.23923" lon="-4.54503">
        <ele>20.101797</ele>
        <time>2020-06-21T16:49:39.725Z</time>
      </trkpt>
      <trkpt lat="48.23923" lon="-4.54504">
        <ele>20.115896</ele>
        <time>2020-06-21T16:49:39.784Z</time>
      </trkpt>
      <trkpt lat="48.23918" lon="-4.5452">
        <ele>20.725563</ele>
        <time>2020-06-21T16:49:46.160Z</time>
      </trkpt>
      <trkpt lat="48.23914" lon="-4.5453">
        <ele>21.074679</ele>
        <time>2020-06-21T16:49:47.950Z</time>
      </trkpt>
      <trkpt lat="48.23913" lon="-4.54555">
        <ele>21.924554</ele>
        <time>2020-06-21T16:49:56.326Z</time>
      </trkpt>
      <trkpt lat="48.23933" lon="-4.54668">
        <ele>25.935058</ele>
        <time>2020-06-21T16:50:37.482Z</time>
      </trkpt>
      <trkpt lat="48.23931" lon="-4.54716">
        <ele>28.07538</ele>
        <time>2020-06-21T16:50:55.740Z</time>
      </trkpt>
      <trkpt lat="48.23921" lon="-4.54762">
        <ele>30.184876</ele>
        <time>2020-06-21T16:51:13.439Z</time>
      </trkpt>
      <trkpt lat="48.23906" lon="-4.548">
        <ele>32.147308</ele>
        <time>2020-06-21T16:51:28.896Z</time>
      </trkpt>
      <trkpt lat="48.23883" lon="-4.54829">
        <ele>34.12643</ele>
        <time>2020-06-21T16:51:44.597Z</time>
      </trkpt>
      <trkpt lat="48.23884" lon="-4.54853">
        <ele>35.202106</ele>
        <time>2020-06-21T16:51:56.469Z</time>
      </trkpt>
      <trkpt lat="48.23869" lon="-4.54894">
        <ele>37.232431</ele>
        <time>2020-06-21T16:52:15.938Z</time>
      </trkpt>
      <trkpt lat="48.23858" lon="-4.54963">
        <ele>39.155009</ele>
        <time>2020-06-21T16:52:44.624Z</time>
      </trkpt>
      <trkpt lat="48.23865" lon="-4.55041">
        <ele>41.284212</ele>
        <time>2020-06-21T16:53:14.437Z</time>
      </trkpt>
      <trkpt lat="48.23863" lon="-4.55061">
        <ele>41.850517</ele>
        <time>2020-06-21T16:53:22.521Z</time>
      </trkpt>
      <trkpt lat="48.23836" lon="-4.55151">
        <ele>44.514113</ele>
        <time>2020-06-21T16:53:49.474Z</time>
      </trkpt>
      <trkpt lat="48.23832" lon="-4.55337">
        <ele>44.98606</ele>
        <time>2020-06-21T16:54:33.678Z</time>
      </trkpt>
      <trkpt lat="48.23823" lon="-4.55395">
        <ele>45.137988</ele>
        <time>2020-06-21T16:54:45.520Z</time>
      </trkpt>
      <trkpt lat="48.23807" lon="-4.55424">
        <ele>45.151481</ele>
        <time>2020-06-21T16:54:52.826Z</time>
      </trkpt>
      <trkpt lat="48.23742" lon="-4.55491">
        <ele>44.724986</ele>
        <time>2020-06-21T16:55:15.698Z</time>
      </trkpt>
      <trkpt lat="48.23691" lon="-4.55486">
        <ele>44.449477</ele>
        <time>2020-06-21T16:55:30.824Z</time>
      </trkpt>
      <trkpt lat="48.23658" lon="-4.55471">
        <ele>44.26221</ele>
        <time>2020-06-21T16:55:41.656Z</time>
      </trkpt>
      <trkpt lat="48.2358" lon="-4.55454">
        <ele>45.555904</ele>
        <time>2020-06-21T16:56:10.921Z</time>
      </trkpt>
      <trkpt lat="48.23438" lon="-4.55381">
        <ele>48.396074</ele>
        <time>2020-06-21T16:57:18.142Z</time>
      </trkpt>
      <trkpt lat="48.23418" lon="-4.55378">
        <ele>48.814233</ele>
        <time>2020-06-21T16:57:27.792Z</time>
      </trkpt>
      <trkpt lat="48.23401" lon="-4.554">
        <ele>49.265425</ele>
        <time>2020-06-21T16:57:37.161Z</time>
      </trkpt>
      <trkpt lat="48.23354" lon="-4.55506">
        <ele>51.023826</ele>
        <time>2020-06-21T16:58:12.431Z</time>
      </trkpt>
      <trkpt lat="48.23316" lon="-4.55622">
        <ele>51.504034</ele>
        <time>2020-06-21T16:58:42.267Z</time>
      </trkpt>
      <trkpt lat="48.23293" lon="-4.55665">
        <ele>51.640022</ele>
        <time>2020-06-21T16:58:54.277Z</time>
      </trkpt>
      <trkpt lat="48.23272" lon="-4.55695">
        <ele>51.746558</ele>
        <time>2020-06-21T16:59:03.464Z</time>
      </trkpt>
      <trkpt lat="48.2326" lon="-4.55713">
        <ele>51.810363</ele>
        <time>2020-06-21T16:59:08.923Z</time>
      </trkpt>
      <trkpt lat="48.2322" lon="-4.55773">
        <ele>52.112885</ele>
        <time>2020-06-21T16:59:20.004Z</time>
      </trkpt>
      <trkpt lat="48.23209" lon="-4.55803">
        <ele>52.2557</ele>
        <time>2020-06-21T16:59:24.717Z</time>
      </trkpt>
      <trkpt lat="48.23201" lon="-4.5585">
        <ele>52.458767</ele>
        <time>2020-06-21T16:59:32.116Z</time>
      </trkpt>
      <trkpt lat="48.23158" lon="-4.55942">
        <ele>52.934334</ele>
        <time>2020-06-21T16:59:50.796Z</time>
      </trkpt>
      <trkpt lat="48.23098" lon="-4.55855">
        <ele>54.091244</ele>
        <time>2020-06-21T17:00:13.334Z</time>
      </trkpt>
      <trkpt lat="48.2302" lon="-4.5574">
        <ele>55.774959</ele>
        <time>2020-06-21T17:00:43.960Z</time>
      </trkpt>
      <trkpt lat="48.23016" lon="-4.55725">
        <ele>55.780873</ele>
        <time>2020-06-21T17:00:47.064Z</time>
      </trkpt>
      <trkpt lat="48.23003" lon="-4.55728">
        <ele>55.765692</ele>
        <time>2020-06-21T17:00:51.496Z</time>
      </trkpt>
      <trkpt lat="48.22995" lon="-4.55778">
        <ele>55.723592</ele>
        <time>2020-06-21T17:01:03.620Z</time>
      </trkpt>
      <trkpt lat="48.22962" lon="-4.55881">
        <ele>55.631407</ele>
        <time>2020-06-21T17:01:27.771Z</time>
      </trkpt>
      <trkpt lat="48.22913" lon="-4.55927">
        <ele>54.926306</ele>
        <time>2020-06-21T17:01:44.614Z</time>
      </trkpt>
      <trkpt lat="48.22846" lon="-4.55921">
        <ele>50.806349</ele>
        <time>2020-06-21T17:02:01.914Z</time>
      </trkpt>
      <trkpt lat="48.22804" lon="-4.55929">
        <ele>48.180839</ele>
        <time>2020-06-21T17:02:11.712Z</time>
      </trkpt>
      <trkpt lat="48.22751" lon="-4.55955">
        <ele>44.743975</ele>
        <time>2020-06-21T17:02:23.787Z</time>
      </trkpt>
      <trkpt lat="48.2268" lon="-4.55957">
        <ele>37.918885</ele>
        <time>2020-06-21T17:02:38.556Z</time>
      </trkpt>
      <trkpt lat="48.22638" lon="-4.55952">
        <ele>33.717191</ele>
        <time>2020-06-21T17:02:47.458Z</time>
      </trkpt>
      <trkpt lat="48.22635" lon="-4.5595">
        <ele>33.374767</ele>
        <time>2020-06-21T17:02:48.200Z</time>
      </trkpt>
      <trkpt lat="48.22631" lon="-4.55949">
        <ele>33.055114</ele>
        <time>2020-06-21T17:02:48.868Z</time>
      </trkpt>
      <trkpt lat="48.22592" lon="-4.5592">
        <ele>28.692653</ele>
        <time>2020-06-21T17:02:58.249Z</time>
      </trkpt>
      <trkpt lat="48.22528" lon="-4.55838">
        <ele>27.297236</ele>
        <time>2020-06-21T17:03:18.822Z</time>
      </trkpt>
      <trkpt lat="48.22508" lon="-4.55854">
        <ele>27.486555</ele>
        <time>2020-06-21T17:03:28.775Z</time>
      </trkpt>
      <trkpt lat="48.22496" lon="-4.55847">
        <ele>27.597663</ele>
        <time>2020-06-21T17:03:32.775Z</time>
      </trkpt>
      <trkpt lat="48.22496" lon="-4.55833">
        <ele>27.678278</ele>
        <time>2020-06-21T17:03:37.938Z</time>
      </trkpt>
      <trkpt lat="48.22497" lon="-4.55824">
        <ele>27.727342</ele>
        <time>2020-06-21T17:03:41.985Z</time>
      </trkpt>
      <trkpt lat="48.22507" lon="-4.55797">
        <ele>27.900996</ele>
        <time>2020-06-21T17:03:51.370Z</time>
      </trkpt>
      <trkpt lat="48.22504" lon="-4.5579">
        <ele>27.94462</ele>
        <time>2020-06-21T17:03:54.719Z</time>
      </trkpt>
      <trkpt lat="48.22493" lon="-4.55798">
        <ele>28.052735</ele>
        <time>2020-06-21T17:04:05.021Z</time>
      </trkpt>
      <trkpt lat="48.2247" lon="-4.55753">
        <ele>28.991151</ele>
        <time>2020-06-21T17:04:28.874Z</time>
      </trkpt>
      <trkpt lat="48.22476" lon="-4.55703">
        <ele>31.192929</ele>
        <time>2020-06-21T17:04:51.422Z</time>
      </trkpt>
      <trkpt lat="48.22474" lon="-4.55654">
        <ele>33.294521</ele>
        <time>2020-06-21T17:05:13.074Z</time>
      </trkpt>
      <trkpt lat="48.22469" lon="-4.55624">
        <ele>34.662025</ele>
        <time>2020-06-21T17:05:26.906Z</time>
      </trkpt>
      <trkpt lat="48.22466" lon="-4.55621">
        <ele>34.875912</ele>
        <time>2020-06-21T17:05:28.932Z</time>
      </trkpt>
      <trkpt lat="48.22466" lon="-4.55621">
        <ele>34.875912</ele>
        <time>2020-06-21T17:05:29.087Z</time>
      </trkpt>
      <trkpt lat="48.22446" lon="-4.55663">
        <ele>37.106702</ele>
        <time>2020-06-21T17:05:52.839Z</time>
      </trkpt>
      <trkpt lat="48.22412" lon="-4.55715">
        <ele>40.203591</ele>
        <time>2020-06-21T17:06:20.281Z</time>
      </trkpt>
      <trkpt lat="48.22367" lon="-4.55721">
        <ele>42.944081</ele>
        <time>2020-06-21T17:06:47.208Z</time>
      </trkpt>
      <trkpt lat="48.22337" lon="-4.55714">
        <ele>44.722763</ele>
        <time>2020-06-21T17:07:05.656Z</time>
      </trkpt>
      <trkpt lat="48.22315" lon="-4.55684">
        <ele>46.536453</ele>
        <time>2020-06-21T17:07:24.112Z</time>
      </trkpt>
      <trkpt lat="48.2226" lon="-4.55647">
        <ele>50.084802</ele>
        <time>2020-06-21T17:08:02.169Z</time>
      </trkpt>
      <trkpt lat="48.22252" lon="-4.55649">
        <ele>50.561504</ele>
        <time>2020-06-21T17:08:08.209Z</time>
      </trkpt>
      <trkpt lat="48.22232" lon="-4.55634">
        <ele>51.761849</ele>
        <time>2020-06-21T17:08:22.576Z</time>
      </trkpt>
      <trkpt lat="48.22089" lon="-4.55505">
        <ele>60.355455</ele>
        <time>2020-06-21T17:10:01.005Z</time>
      </trkpt>
      <trkpt lat="48.22095" lon="-4.55485">
        <ele>60.619901</ele>
        <time>2020-06-21T17:10:07.779Z</time>
      </trkpt>
      <trkpt lat="48.22154" lon="-4.55271">
        <ele>63.394814</ele>
        <time>2020-06-21T17:11:07.767Z</time>
      </trkpt>
      <trkpt lat="48.22048" lon="-4.55172">
        <ele>62.300818</ele>
        <time>2020-06-21T17:11:45.755Z</time>
      </trkpt>
      <trkpt lat="48.21996" lon="-4.55101">
        <ele>61.268122</ele>
        <time>2020-06-21T17:12:05.003Z</time>
      </trkpt>
      <trkpt lat="48.21988" lon="-4.5509">
        <ele>60.806792</ele>
        <time>2020-06-21T17:12:07.894Z</time>
      </trkpt>
      <trkpt lat="48.21994" lon="-4.55046">
        <ele>59.53886</ele>
        <time>2020-06-21T17:12:15.384Z</time>
      </trkpt>
      <trkpt lat="48.21988" lon="-4.54973">
        <ele>57.491717</ele>
        <time>2020-06-21T17:12:27.547Z</time>
      </trkpt>
      <trkpt lat="48.21979" lon="-4.54925">
        <ele>56.079491</ele>
        <time>2020-06-21T17:12:35.776Z</time>
      </trkpt>
      <trkpt lat="48.21958" lon="-4.54931">
        <ele>55.196891</ele>
        <time>2020-06-21T17:12:40.658Z</time>
      </trkpt>
      <trkpt lat="48.21926" lon="-4.5491">
        <ele>53.52037</ele>
        <time>2020-06-21T17:12:48.862Z</time>
      </trkpt>
      <trkpt lat="48.21874" lon="-4.54895">
        <ele>50.285926</ele>
        <time>2020-06-21T17:13:01.532Z</time>
      </trkpt>
      <trkpt lat="48.21844" lon="-4.54857">
        <ele>47.91508</ele>
        <time>2020-06-21T17:13:10.479Z</time>
      </trkpt>
      <trkpt lat="48.21833" lon="-4.54855">
        <ele>47.241126</ele>
        <time>2020-06-21T17:13:12.955Z</time>
      </trkpt>
      <trkpt lat="48.21811" lon="-4.54865">
        <ele>45.797491</ele>
        <time>2020-06-21T17:13:18.353Z</time>
      </trkpt>
      <trkpt lat="48.21755" lon="-4.54933">
        <ele>41.284734</ele>
        <time>2020-06-21T17:13:28.220Z</time>
      </trkpt>
      <trkpt lat="48.21739" lon="-4.54966">
        <ele>39.455087</ele>
        <time>2020-06-21T17:13:32.042Z</time>
      </trkpt>
      <trkpt lat="48.2172" lon="-4.54985">
        <ele>37.902051</ele>
        <time>2020-06-21T17:13:37.341Z</time>
      </trkpt>
      <trkpt lat="48.21695" lon="-4.54974">
        <ele>36.161645</ele>
        <time>2020-06-21T17:13:43.280Z</time>
      </trkpt>
      <trkpt lat="48.21648" lon="-4.54926">
        <ele>32.34653</ele>
        <time>2020-06-21T17:13:56.350Z</time>
      </trkpt>
      <trkpt lat="48.21591" lon="-4.54854">
        <ele>27.747626</ele>
        <time>2020-06-21T17:14:12.849Z</time>
      </trkpt>
      <trkpt lat="48.21553" lon="-4.54757">
        <ele>23.194836</ele>
        <time>2020-06-21T17:14:30.534Z</time>
      </trkpt>
      <trkpt lat="48.2155" lon="-4.54742">
        <ele>22.559459</ele>
        <time>2020-06-21T17:14:33.027Z</time>
      </trkpt>
      <trkpt lat="48.21528" lon="-4.54709">
        <ele>20.713132</ele>
        <time>2020-06-21T17:14:40.304Z</time>
      </trkpt>
      <trkpt lat="48.21523" lon="-4.54672">
        <ele>20.045927</ele>
        <time>2020-06-21T17:14:46.545Z</time>
      </trkpt>
      <trkpt lat="48.21528" lon="-4.54637">
        <ele>19.721685</ele>
        <time>2020-06-21T17:14:52.472Z</time>
      </trkpt>
      <trkpt lat="48.21551" lon="-4.54557">
        <ele>18.92741</ele>
        <time>2020-06-21T17:15:08.308Z</time>
      </trkpt>
      <trkpt lat="48.21546" lon="-4.54507">
        <ele>18.467519</ele>
        <time>2020-06-21T17:15:19.299Z</time>
      </trkpt>
      <trkpt lat="48.21518" lon="-4.54472">
        <ele>17.96424</ele>
        <time>2020-06-21T17:15:29.205Z</time>
      </trkpt>
      <trkpt lat="48.21502" lon="-4.54454">
        <ele>18.046462</ele>
        <time>2020-06-21T17:15:34.796Z</time>
      </trkpt>
      <trkpt lat="48.21465" lon="-4.54405">
        <ele>19.094299</ele>
        <time>2020-06-21T17:15:48.948Z</time>
      </trkpt>
      <trkpt lat="48.21406" lon="-4.54305">
        <ele>20.961428</ele>
        <time>2020-06-21T17:16:16.963Z</time>
      </trkpt>
      <trkpt lat="48.21378" lon="-4.54258">
        <ele>21.995318</ele>
        <time>2020-06-21T17:16:31.246Z</time>
      </trkpt>
      <trkpt lat="48.21357" lon="-4.54224">
        <ele>23.041112</ele>
        <time>2020-06-21T17:16:41.519Z</time>
      </trkpt>
      <trkpt lat="48.21185" lon="-4.53942">
        <ele>32.519168</ele>
        <time>2020-06-21T17:18:20.439Z</time>
      </trkpt>
      <trkpt lat="48.21103" lon="-4.53807">
        <ele>37.429091</ele>
        <time>2020-06-21T17:19:14.273Z</time>
      </trkpt>
      <trkpt lat="48.21029" lon="-4.53688">
        <ele>41.696723</ele>
        <time>2020-06-21T17:19:57.409Z</time>
      </trkpt>
      <trkpt lat="48.21002" lon="-4.53662">
        <ele>42.50164</ele>
        <time>2020-06-21T17:20:08.433Z</time>
      </trkpt>
      <trkpt lat="48.20984" lon="-4.53655">
        <ele>42.773687</ele>
        <time>2020-06-21T17:20:14.090Z</time>
      </trkpt>
      <trkpt lat="48.20874" lon="-4.53581">
        <ele>44.589833</ele>
        <time>2020-06-21T17:20:46.334Z</time>
      </trkpt>
      <trkpt lat="48.20829" lon="-4.53545">
        <ele>44.991067</ele>
        <time>2020-06-21T17:20:57.142Z</time>
      </trkpt>
      <trkpt lat="48.20762" lon="-4.53469">
        <ele>45.221084</ele>
        <time>2020-06-21T17:21:14.703Z</time>
      </trkpt>
      <trkpt lat="48.20742" lon="-4.53444">
        <ele>45.292425</ele>
        <time>2020-06-21T17:21:20.234Z</time>
      </trkpt>
      <trkpt lat="48.20607" lon="-4.53275">
        <ele>45.969294</ele>
        <time>2020-06-21T17:21:57.839Z</time>
      </trkpt>
      <trkpt lat="48.20601" lon="-4.53268">
        <ele>46.002707</ele>
        <time>2020-06-21T17:21:59.667Z</time>
      </trkpt>
      <trkpt lat="48.20553" lon="-4.53207">
        <ele>46.826015</ele>
        <time>2020-06-21T17:22:13.769Z</time>
      </trkpt>
      <trkpt lat="48.20544" lon="-4.53207">
        <ele>47.045529</ele>
        <time>2020-06-21T17:22:16.051Z</time>
      </trkpt>
      <trkpt lat="48.20538" lon="-4.53214">
        <ele>47.225817</ele>
        <time>2020-06-21T17:22:18.382Z</time>
      </trkpt>
      <trkpt lat="48.20522" lon="-4.53209">
        <ele>47.639672</ele>
        <time>2020-06-21T17:22:24.028Z</time>
      </trkpt>
      <trkpt lat="48.2048" lon="-4.53175">
        <ele>48.835905</ele>
        <time>2020-06-21T17:22:39.833Z</time>
      </trkpt>
      <trkpt lat="48.20447" lon="-4.53138">
        <ele>49.870897</ele>
        <time>2020-06-21T17:22:54.968Z</time>
      </trkpt>
      <trkpt lat="48.20419" lon="-4.53124">
        <ele>50.623894</ele>
        <time>2020-06-21T17:23:06.591Z</time>
      </trkpt>
      <trkpt lat="48.20393" lon="-4.53107">
        <ele>51.590529</ele>
        <time>2020-06-21T17:23:18.106Z</time>
      </trkpt>
      <trkpt lat="48.20316" lon="-4.52961">
        <ele>55.972362</ele>
        <time>2020-06-21T17:24:05.862Z</time>
      </trkpt>
      <trkpt lat="48.20278" lon="-4.53035">
        <ele>57.89529</ele>
        <time>2020-06-21T17:24:27.433Z</time>
      </trkpt>
      <trkpt lat="48.20278" lon="-4.53035">
        <ele>57.897067</ele>
        <time>2020-06-21T17:24:27.437Z</time>
      </trkpt>
      <trkpt lat="48.20258" lon="-4.53065">
        <ele>58.659324</ele>
        <time>2020-06-21T17:24:37.085Z</time>
      </trkpt>
      <trkpt lat="48.20233" lon="-4.53122">
        <ele>59.855768</ele>
        <time>2020-06-21T17:24:51.611Z</time>
      </trkpt>
      <trkpt lat="48.20153" lon="-4.52978">
        <ele>62.696763</ele>
        <time>2020-06-21T17:25:31.933Z</time>
      </trkpt>
      <trkpt lat="48.1995" lon="-4.53168">
        <ele>66.468714</ele>
        <time>2020-06-21T17:26:36.846Z</time>
      </trkpt>
      <trkpt lat="48.19866" lon="-4.53248">
        <ele>68.235944</ele>
        <time>2020-06-21T17:27:03.881Z</time>
      </trkpt>
      <trkpt lat="48.19849" lon="-4.53264">
        <ele>68.725493</ele>
        <time>2020-06-21T17:27:09.745Z</time>
      </trkpt>
      <trkpt lat="48.19678" lon="-4.53439">
        <ele>74.432329</ele>
        <time>2020-06-21T17:28:22.048Z</time>
      </trkpt>
      <trkpt lat="48.19548" lon="-4.53601">
        <ele>79.459638</ele>
        <time>2020-06-21T17:29:25.128Z</time>
      </trkpt>
      <trkpt lat="48.19479" lon="-4.53698">
        <ele>81.983524</ele>
        <time>2020-06-21T17:29:55.573Z</time>
      </trkpt>
      <trkpt lat="48.19438" lon="-4.53753">
        <ele>82.919111</ele>
        <time>2020-06-21T17:30:11.264Z</time>
      </trkpt>
      <trkpt lat="48.19411" lon="-4.53795">
        <ele>83.418168</ele>
        <time>2020-06-21T17:30:21.936Z</time>
      </trkpt>
      <trkpt lat="48.19294" lon="-4.53971">
        <ele>84.938123</ele>
        <time>2020-06-21T17:31:03.877Z</time>
      </trkpt>
      <trkpt lat="48.1911" lon="-4.5428">
        <ele>85.117916</ele>
        <time>2020-06-21T17:32:31.015Z</time>
      </trkpt>
      <trkpt lat="48.19077" lon="-4.54324">
        <ele>85.136662</ele>
        <time>2020-06-21T17:32:44.005Z</time>
      </trkpt>
      <trkpt lat="48.18947" lon="-4.54471">
        <ele>85.520511</ele>
        <time>2020-06-21T17:33:37.752Z</time>
      </trkpt>
      <trkpt lat="48.18828" lon="-4.54606">
        <ele>87.066454</ele>
        <time>2020-06-21T17:34:33.916Z</time>
      </trkpt>
      <trkpt lat="48.18802" lon="-4.54643">
        <ele>87.448064</ele>
        <time>2020-06-21T17:34:47.300Z</time>
      </trkpt>
      <trkpt lat="48.18747" lon="-4.54721">
        <ele>88.378264</ele>
        <time>2020-06-21T17:35:15.708Z</time>
      </trkpt>
      <trkpt lat="48.18709" lon="-4.54737">
        <ele>88.869301</ele>
        <time>2020-06-21T17:35:30.427Z</time>
      </trkpt>
      <trkpt lat="48.18479" lon="-4.54781">
        <ele>92.247882</ele>
        <time>2020-06-21T17:37:01.314Z</time>
      </trkpt>
      <trkpt lat="48.18493" lon="-4.54778">
        <ele>92.519278</ele>
        <time>2020-06-21T17:37:05.721Z</time>
      </trkpt>
      <trkpt lat="48.18479" lon="-4.54781">
        <ele>92.797941</ele>
        <time>2020-06-21T17:37:13.469Z</time>
      </trkpt>
      <trkpt lat="48.18412" lon="-4.5479">
        <ele>94.089367</ele>
        <time>2020-06-21T17:37:40.854Z</time>
      </trkpt>
      <trkpt lat="48.18431" lon="-4.54636">
        <ele>96.060679</ele>
        <time>2020-06-21T17:38:24.719Z</time>
      </trkpt>
      <trkpt lat="48.18436" lon="-4.54561">
        <ele>96.892661</ele>
        <time>2020-06-21T17:38:46.173Z</time>
      </trkpt>
      <trkpt lat="48.18448" lon="-4.545">
        <ele>97.592722</ele>
        <time>2020-06-21T17:39:04.008Z</time>
      </trkpt>
      <trkpt lat="48.18413" lon="-4.54467">
        <ele>98.273635</ele>
        <time>2020-06-21T17:39:19.804Z</time>
      </trkpt>
      <trkpt lat="48.1839" lon="-4.54464">
        <ele>98.664255</ele>
        <time>2020-06-21T17:39:28.384Z</time>
      </trkpt>
      <trkpt lat="48.18383" lon="-4.54439">
        <ele>98.784777</ele>
        <time>2020-06-21T17:39:32.634Z</time>
      </trkpt>
      <trkpt lat="48.18362" lon="-4.54362">
        <ele>98.976112</ele>
        <time>2020-06-21T17:39:45.701Z</time>
      </trkpt>
      <trkpt lat="48.18358" lon="-4.54331">
        <ele>99.048849</ele>
        <time>2020-06-21T17:39:50.241Z</time>
      </trkpt>
      <trkpt lat="48.18386" lon="-4.54295">
        <ele>99.174835</ele>
        <time>2020-06-21T17:39:57.857Z</time>
      </trkpt>
      <trkpt lat="48.18409" lon="-4.54297">
        <ele>99.254453</ele>
        <time>2020-06-21T17:40:02.398Z</time>
      </trkpt>
      <trkpt lat="48.1844" lon="-4.54301">
        <ele>99.344429</ele>
        <time>2020-06-21T17:40:08.767Z</time>
      </trkpt>
      <trkpt lat="48.18504" lon="-4.54317">
        <ele>98.941373</ele>
        <time>2020-06-21T17:40:21.686Z</time>
      </trkpt>
      <trkpt lat="48.18528" lon="-4.54309">
        <ele>98.789833</ele>
        <time>2020-06-21T17:40:26.235Z</time>
      </trkpt>
      <trkpt lat="48.18538" lon="-4.54304">
        <ele>98.725756</ele>
        <time>2020-06-21T17:40:28.306Z</time>
      </trkpt>
      <trkpt lat="48.18553" lon="-4.5428">
        <ele>98.587264</ele>
        <time>2020-06-21T17:40:32.266Z</time>
      </trkpt>
      <trkpt lat="48.1855" lon="-4.54259">
        <ele>98.500757</ele>
        <time>2020-06-21T17:40:34.895Z</time>
      </trkpt>
      <trkpt lat="48.18542" lon="-4.54202">
        <ele>98.257167</ele>
        <time>2020-06-21T17:40:41.828Z</time>
      </trkpt>
      <trkpt lat="48.18541" lon="-4.54198">
        <ele>98.240817</ele>
        <time>2020-06-21T17:40:42.288Z</time>
      </trkpt>
      <trkpt lat="48.18581" lon="-4.54186">
        <ele>97.697363</ele>
        <time>2020-06-21T17:40:53.888Z</time>
      </trkpt>
      <trkpt lat="48.18583" lon="-4.54185">
        <ele>97.670602</ele>
        <time>2020-06-21T17:40:54.388Z</time>
      </trkpt>
      <trkpt lat="48.18617" lon="-4.5416">
        <ele>97.162562</ele>
        <time>2020-06-21T17:41:05.073Z</time>
      </trkpt>
      <trkpt lat="48.18605" lon="-4.54133">
        <ele>96.875725</ele>
        <time>2020-06-21T17:41:11.228Z</time>
      </trkpt>
      <trkpt lat="48.18608" lon="-4.54118">
        <ele>96.733766</ele>
        <time>2020-06-21T17:41:14.216Z</time>
      </trkpt>
      <trkpt lat="48.18729" lon="-4.54058">
        <ele>95.838226</ele>
        <time>2020-06-21T17:41:50.784Z</time>
      </trkpt>
      <trkpt lat="48.18726" lon="-4.54004">
        <ele>95.843952</ele>
        <time>2020-06-21T17:42:02.079Z</time>
      </trkpt>
      <trkpt lat="48.18861" lon="-4.53945">
        <ele>96.607608</ele>
        <time>2020-06-21T17:42:53.707Z</time>
      </trkpt>
      <trkpt lat="48.18928" lon="-4.53915">
        <ele>97.537844</ele>
        <time>2020-06-21T17:43:21.424Z</time>
      </trkpt>
      <trkpt lat="48.18917" lon="-4.5389">
        <ele>97.810933</ele>
        <time>2020-06-21T17:43:26.966Z</time>
      </trkpt>
      <trkpt lat="48.18996" lon="-4.5385">
        <ele>98.822966</ele>
        <time>2020-06-21T17:43:59.811Z</time>
      </trkpt>
      <trkpt lat="48.19076" lon="-4.53846">
        <ele>99.718198</ele>
        <time>2020-06-21T17:44:29.324Z</time>
      </trkpt>
      <trkpt lat="48.19067" lon="-4.53785">
        <ele>100.181912</ele>
        <time>2020-06-21T17:44:44.241Z</time>
      </trkpt>
      <trkpt lat="48.19067" lon="-4.53757">
        <ele>100.346116</ele>
        <time>2020-06-21T17:44:50.991Z</time>
      </trkpt>
      <trkpt lat="48.19073" lon="-4.53709">
        <ele>100.582744</ele>
        <time>2020-06-21T17:45:02.778Z</time>
      </trkpt>
      <trkpt lat="48.19102" lon="-4.53641">
        <ele>100.972578</ele>
        <time>2020-06-21T17:45:22.112Z</time>
      </trkpt>
      <trkpt lat="48.19094" lon="-4.53576">
        <ele>101.288465</ele>
        <time>2020-06-21T17:45:37.711Z</time>
      </trkpt>
      <trkpt lat="48.19094" lon="-4.53568">
        <ele>101.329059</ele>
        <time>2020-06-21T17:45:39.819Z</time>
      </trkpt>
      <trkpt lat="48.19104" lon="-4.53438">
        <ele>101.716601</ele>
        <time>2020-06-21T17:46:09.336Z</time>
      </trkpt>
      <trkpt lat="48.19106" lon="-4.53397">
        <ele>101.793807</ele>
        <time>2020-06-21T17:46:18.614Z</time>
      </trkpt>
      <trkpt lat="48.19095" lon="-4.53345">
        <ele>101.89476</ele>
        <time>2020-06-21T17:46:30.566Z</time>
      </trkpt>
      <trkpt lat="48.19092" lon="-4.53202">
        <ele>102.033274</ele>
        <time>2020-06-21T17:47:00.999Z</time>
      </trkpt>
      <trkpt lat="48.19133" lon="-4.53178">
        <ele>101.986961</ele>
        <time>2020-06-21T17:47:09.297Z</time>
      </trkpt>
      <trkpt lat="48.19135" lon="-4.53164">
        <ele>101.976882</ele>
        <time>2020-06-21T17:47:12.241Z</time>
      </trkpt>
      <trkpt lat="48.19213" lon="-4.53049">
        <ele>101.907184</ele>
        <time>2020-06-21T17:47:46.540Z</time>
      </trkpt>
      <trkpt lat="48.19257" lon="-4.52972">
        <ele>102.015045</ele>
        <time>2020-06-21T17:48:08.470Z</time>
      </trkpt>
      <trkpt lat="48.19263" lon="-4.5288">
        <ele>102.113469</ele>
        <time>2020-06-21T17:48:29.045Z</time>
      </trkpt>
      <trkpt lat="48.19268" lon="-4.52805">
        <ele>102.172728</ele>
        <time>2020-06-21T17:48:45.902Z</time>
      </trkpt>
      <trkpt lat="48.19325" lon="-4.52738">
        <ele>102.200566</ele>
        <time>2020-06-21T17:49:09.479Z</time>
      </trkpt>
      <trkpt lat="48.19343" lon="-4.52689">
        <ele>102.215056</ele>
        <time>2020-06-21T17:49:21.420Z</time>
      </trkpt>
      <trkpt lat="48.19368" lon="-4.52698">
        <ele>102.225207</ele>
        <time>2020-06-21T17:49:29.706Z</time>
      </trkpt>
      <trkpt lat="48.19387" lon="-4.52713">
        <ele>102.233391</ele>
        <time>2020-06-21T17:49:36.294Z</time>
      </trkpt>
      <trkpt lat="48.19423" lon="-4.52732">
        <ele>101.960266</ele>
        <time>2020-06-21T17:49:48.075Z</time>
      </trkpt>
      <trkpt lat="48.1943" lon="-4.52726">
        <ele>101.896518</ele>
        <time>2020-06-21T17:49:50.403Z</time>
      </trkpt>
      <trkpt lat="48.19442" lon="-4.52666">
        <ele>101.544037</ele>
        <time>2020-06-21T17:50:03.050Z</time>
      </trkpt>
      <trkpt lat="48.19448" lon="-4.52565">
        <ele>100.980603</ele>
        <time>2020-06-21T17:50:22.724Z</time>
      </trkpt>
      <trkpt lat="48.19525" lon="-4.5256">
        <ele>100.104157</ele>
        <time>2020-06-21T17:50:44.663Z</time>
      </trkpt>
      <trkpt lat="48.19572" lon="-4.52557">
        <ele>99.4783</ele>
        <time>2020-06-21T17:50:57.926Z</time>
      </trkpt>
      <trkpt lat="48.19646" lon="-4.52519">
        <ele>98.435082</ele>
        <time>2020-06-21T17:51:20.264Z</time>
      </trkpt>
      <trkpt lat="48.19692" lon="-4.5247">
        <ele>97.901208</ele>
        <time>2020-06-21T17:51:36.749Z</time>
      </trkpt>
      <trkpt lat="48.19794" lon="-4.52309">
        <ele>96.589365</ele>
        <time>2020-06-21T17:52:20.661Z</time>
      </trkpt>
      <trkpt lat="48.19843" lon="-4.52244">
        <ele>95.99333</ele>
        <time>2020-06-21T17:52:40.096Z</time>
      </trkpt>
      <trkpt lat="48.19962" lon="-4.52168">
        <ele>94.758621</ele>
        <time>2020-06-21T17:53:17.799Z</time>
      </trkpt>
      <trkpt lat="48.19968" lon="-4.52163">
        <ele>94.683104</ele>
        <time>2020-06-21T17:53:19.808Z</time>
      </trkpt>
      <trkpt lat="48.20115" lon="-4.52045">
        <ele>92.648129</ele>
        <time>2020-06-21T17:54:08.401Z</time>
      </trkpt>
      <trkpt lat="48.2016" lon="-4.5203">
        <ele>91.750545</ele>
        <time>2020-06-21T17:54:21.443Z</time>
      </trkpt>
      <trkpt lat="48.20219" lon="-4.52002">
        <ele>90.534109</ele>
        <time>2020-06-21T17:54:38.468Z</time>
      </trkpt>
      <trkpt lat="48.2026" lon="-4.51979">
        <ele>89.689021</ele>
        <time>2020-06-21T17:54:49.978Z</time>
      </trkpt>
      <trkpt lat="48.20309" lon="-4.51952">
        <ele>87.846711</ele>
        <time>2020-06-21T17:55:03.623Z</time>
      </trkpt>
      <trkpt lat="48.20314" lon="-4.51944">
        <ele>87.568681</ele>
        <time>2020-06-21T17:55:05.619Z</time>
      </trkpt>
      <trkpt lat="48.20357" lon="-4.51915">
        <ele>85.878911</ele>
        <time>2020-06-21T17:55:17.555Z</time>
      </trkpt>
      <trkpt lat="48.20397" lon="-4.51896">
        <ele>84.34405</ele>
        <time>2020-06-21T17:55:28.166Z</time>
      </trkpt>
      <trkpt lat="48.2049" lon="-4.5187">
        <ele>80.307331</ele>
        <time>2020-06-21T17:55:51.117Z</time>
      </trkpt>
      <trkpt lat="48.20612" lon="-4.51844">
        <ele>74.673019</ele>
        <time>2020-06-21T17:56:20.851Z</time>
      </trkpt>
      <trkpt lat="48.20696" lon="-4.51808">
        <ele>71.649101</ele>
        <time>2020-06-21T17:56:42.575Z</time>
      </trkpt>
      <trkpt lat="48.20798" lon="-4.51803">
        <ele>68.323849</ele>
        <time>2020-06-21T17:57:09.490Z</time>
      </trkpt>
      <trkpt lat="48.2098" lon="-4.51741">
        <ele>65.002055</ele>
        <time>2020-06-21T17:58:01.521Z</time>
      </trkpt>
      <trkpt lat="48.21026" lon="-4.51729">
        <ele>64.34343</ele>
        <time>2020-06-21T17:58:14.986Z</time>
      </trkpt>
      <trkpt lat="48.21053" lon="-4.51721">
        <ele>63.953592</ele>
        <time>2020-06-21T17:58:22.958Z</time>
      </trkpt>
      <trkpt lat="48.2131" lon="-4.5165">
        <ele>60.373631</ele>
        <time>2020-06-21T17:59:37.550Z</time>
      </trkpt>
      <trkpt lat="48.215" lon="-4.51603">
        <ele>58.354063</ele>
        <time>2020-06-21T18:00:32.139Z</time>
      </trkpt>
      <trkpt lat="48.21607" lon="-4.51578">
        <ele>60.067112</ele>
        <time>2020-06-21T18:01:13.006Z</time>
      </trkpt>
      <trkpt lat="48.21531" lon="-4.51444">
        <ele>63.618174</ele>
        <time>2020-06-21T18:02:09.395Z</time>
      </trkpt>
      <trkpt lat="48.21572" lon="-4.51322">
        <ele>67.892222</ele>
        <time>2020-06-21T18:03:03.883Z</time>
      </trkpt>
      <trkpt lat="48.21613" lon="-4.51248">
        <ele>70.852912</ele>
        <time>2020-06-21T18:03:40.792Z</time>
      </trkpt>
      <trkpt lat="48.21619" lon="-4.5122">
        <ele>71.731539</ele>
        <time>2020-06-21T18:03:52.517Z</time>
      </trkpt>
      <trkpt lat="48.21771" lon="-4.50788">
        <ele>84.262388</ele>
        <time>2020-06-21T18:06:43.674Z</time>
      </trkpt>
      <trkpt lat="48.21795" lon="-4.50739">
        <ele>83.733641</ele>
        <time>2020-06-21T18:06:58.343Z</time>
      </trkpt>
      <trkpt lat="48.21866" lon="-4.50546">
        <ele>80.700825</ele>
        <time>2020-06-21T18:07:36.929Z</time>
      </trkpt>
      <trkpt lat="48.21916" lon="-4.50598">
        <ele>76.914497</ele>
        <time>2020-06-21T18:07:50.810Z</time>
      </trkpt>
      <trkpt lat="48.21968" lon="-4.5066">
        <ele>72.793284</ele>
        <time>2020-06-21T18:08:05.802Z</time>
      </trkpt>
      <trkpt lat="48.22037" lon="-4.50741">
        <ele>68.082927</ele>
        <time>2020-06-21T18:08:25.749Z</time>
      </trkpt>
      <trkpt lat="48.22038" lon="-4.50734">
        <ele>67.843347</ele>
        <time>2020-06-21T18:08:26.418Z</time>
      </trkpt>
      <trkpt lat="48.22114" lon="-4.50498">
        <ele>59.914833</ele>
        <time>2020-06-21T18:08:52.371Z</time>
      </trkpt>
      <trkpt lat="48.2215" lon="-4.50395">
        <ele>57.057611</ele>
        <time>2020-06-21T18:09:04.702Z</time>
      </trkpt>
      <trkpt lat="48.22186" lon="-4.50275">
        <ele>51.331422</ele>
        <time>2020-06-21T18:09:17.210Z</time>
      </trkpt>
      <trkpt lat="48.22197" lon="-4.50238">
        <ele>48.764755</ele>
        <time>2020-06-21T18:09:20.771Z</time>
      </trkpt>
      <trkpt lat="48.22201" lon="-4.50228">
        <ele>48.01007</ele>
        <time>2020-06-21T18:09:21.794Z</time>
      </trkpt>
      <trkpt lat="48.22276" lon="-4.5028">
        <ele>40.207897</ele>
        <time>2020-06-21T18:09:31.996Z</time>
      </trkpt>
      <trkpt lat="48.2231" lon="-4.50266">
        <ele>36.61116</ele>
        <time>2020-06-21T18:09:36.335Z</time>
      </trkpt>
      <trkpt lat="48.22332" lon="-4.50256">
        <ele>34.041309</ele>
        <time>2020-06-21T18:09:39.227Z</time>
      </trkpt>
      <trkpt lat="48.22356" lon="-4.50254">
        <ele>31.47255</ele>
        <time>2020-06-21T18:09:42.036Z</time>
      </trkpt>
      <trkpt lat="48.2241" lon="-4.50269">
        <ele>25.39591</ele>
        <time>2020-06-21T18:09:48.902Z</time>
      </trkpt>
      <trkpt lat="48.2244" lon="-4.50291">
        <ele>21.680135</ele>
        <time>2020-06-21T18:09:53.163Z</time>
      </trkpt>
      <trkpt lat="48.22418" lon="-4.50257">
        <ele>18.288456</ele>
        <time>2020-06-21T18:09:57.264Z</time>
      </trkpt>
      <trkpt lat="48.2242" lon="-4.50241">
        <ele>17.700478</ele>
        <time>2020-06-21T18:09:58.629Z</time>
      </trkpt>
      <trkpt lat="48.2244" lon="-4.50267">
        <ele>16.241472</ele>
        <time>2020-06-21T18:10:02.164Z</time>
      </trkpt>
      <trkpt lat="48.22452" lon="-4.50298">
        <ele>14.901112</ele>
        <time>2020-06-21T18:10:05.574Z</time>
      </trkpt>
      <trkpt lat="48.2246" lon="-4.50321">
        <ele>13.974346</ele>
        <time>2020-06-21T18:10:07.977Z</time>
      </trkpt>
      <trkpt lat="48.22475" lon="-4.50367">
        <ele>12.083052</ele>
        <time>2020-06-21T18:10:12.750Z</time>
      </trkpt>
      <trkpt lat="48.22496" lon="-4.50396">
        <ele>10.527527</ele>
        <time>2020-06-21T18:10:16.905Z</time>
      </trkpt>
      <trkpt lat="48.22546" lon="-4.50438">
        <ele>8.185241</ele>
        <time>2020-06-21T18:10:25.517Z</time>
      </trkpt>
      <trkpt lat="48.22549" lon="-4.50448">
        <ele>8.084262</ele>
        <time>2020-06-21T18:10:26.535Z</time>
      </trkpt>
      <trkpt lat="48.22601" lon="-4.50416">
        <ele>7.269014</ele>
        <time>2020-06-21T18:10:35.431Z</time>
      </trkpt>
      <trkpt lat="48.22645" lon="-4.50395">
        <ele>6.606732</ele>
        <time>2020-06-21T18:10:43.114Z</time>
      </trkpt>
      <trkpt lat="48.22772" lon="-4.50377">
        <ele>6.698183</ele>
        <time>2020-06-21T18:11:08.882Z</time>
      </trkpt>
      <trkpt lat="48.22816" lon="-4.50354">
        <ele>7.187417</ele>
        <time>2020-06-21T18:11:21.820Z</time>
      </trkpt>
      <trkpt lat="48.22864" lon="-4.50322">
        <ele>7.745883</ele>
        <time>2020-06-21T18:11:37.537Z</time>
      </trkpt>
      <trkpt lat="48.22882" lon="-4.5031">
        <ele>7.953922</ele>
        <time>2020-06-21T18:11:42.254Z</time>
      </trkpt>
      <trkpt lat="48.22933" lon="-4.50273">
        <ele>8.568841</ele>
        <time>2020-06-21T18:11:57.325Z</time>
      </trkpt>
      <trkpt lat="48.23048" lon="-4.50202">
        <ele>9.538633</ele>
        <time>2020-06-21T18:12:27.121Z</time>
      </trkpt>
      <trkpt lat="48.23095" lon="-4.50168">
        <ele>8.973993</ele>
        <time>2020-06-21T18:12:36.556Z</time>
      </trkpt>
      <trkpt lat="48.23115" lon="-4.50151">
        <ele>8.729304</ele>
        <time>2020-06-21T18:12:40.283Z</time>
      </trkpt>
      <trkpt lat="48.23208" lon="-4.50011">
        <ele>7.071246</ele>
        <time>2020-06-21T18:13:00.553Z</time>
      </trkpt>
      <trkpt lat="48.23214" lon="-4.50001">
        <ele>6.918616</ele>
        <time>2020-06-21T18:13:01.973Z</time>
      </trkpt>
      <trkpt lat="48.23292" lon="-4.49884">
        <ele>5.14014</ele>
        <time>2020-06-21T18:13:19.045Z</time>
      </trkpt>
      <trkpt lat="48.23313" lon="-4.49853">
        <ele>5.241427</ele>
        <time>2020-06-21T18:13:24.214Z</time>
      </trkpt>
      <trkpt lat="48.23325" lon="-4.49844">
        <ele>5.627082</ele>
        <time>2020-06-21T18:13:27.052Z</time>
      </trkpt>
      <trkpt lat="48.23333" lon="-4.49833">
        <ele>5.937339</ele>
        <time>2020-06-21T18:13:29.444Z</time>
      </trkpt>
      <trkpt lat="48.23351" lon="-4.49783">
        <ele>6.997417</ele>
        <time>2020-06-21T18:13:40.689Z</time>
      </trkpt>
      <trkpt lat="48.23374" lon="-4.49743">
        <ele>8.008234</ele>
        <time>2020-06-21T18:13:53.774Z</time>
      </trkpt>
      <trkpt lat="48.23399" lon="-4.4974">
        <ele>8.697973</ele>
        <time>2020-06-21T18:14:02.079Z</time>
      </trkpt>
      <trkpt lat="48.23416" lon="-4.49721">
        <ele>9.286329</ele>
        <time>2020-06-21T18:14:11.320Z</time>
      </trkpt>
      <trkpt lat="48.2346" lon="-4.49664">
        <ele>12.184917</ele>
        <time>2020-06-21T18:14:41.821Z</time>
      </trkpt>
      <trkpt lat="48.23466" lon="-4.49658">
        <ele>12.639276</ele>
        <time>2020-06-21T18:14:47.880Z</time>
      </trkpt>
      <trkpt lat="48.23507" lon="-4.49665">
        <ele>15.242524</ele>
        <time>2020-06-21T18:15:10.652Z</time>
      </trkpt>
      <trkpt lat="48.23524" lon="-4.49653">
        <ele>16.474028</ele>
        <time>2020-06-21T18:15:22.583Z</time>
      </trkpt>
      <trkpt lat="48.2354" lon="-4.49632">
        <ele>17.80938</ele>
        <time>2020-06-21T18:15:34.554Z</time>
      </trkpt>
      <trkpt lat="48.23541" lon="-4.49628">
        <ele>18.009254</ele>
        <time>2020-06-21T18:15:38.849Z</time>
      </trkpt>
      <trkpt lat="48.23598" lon="-4.49437">
        <ele>22.382292</ele>
        <time>2020-06-21T18:16:34.096Z</time>
      </trkpt>
      <trkpt lat="48.23635" lon="-4.49312">
        <ele>23.442256</ele>
        <time>2020-06-21T18:16:49.983Z</time>
      </trkpt>
      <trkpt lat="48.2367" lon="-4.49193">
        <ele>23.236952</ele>
        <time>2020-06-21T18:17:03.383Z</time>
      </trkpt>
      <trkpt lat="48.23703" lon="-4.49087">
        <ele>23.018104</ele>
        <time>2020-06-21T18:17:18.765Z</time>
      </trkpt>
      <trkpt lat="48.23741" lon="-4.48954">
        <ele>28.48669</ele>
        <time>2020-06-21T18:18:03.487Z</time>
      </trkpt>
      <trkpt lat="48.23811" lon="-4.48714">
        <ele>41.356556</ele>
        <time>2020-06-21T18:19:59.495Z</time>
      </trkpt>
      <trkpt lat="48.23746" lon="-4.48631">
        <ele>48.018509</ele>
        <time>2020-06-21T18:20:49.306Z</time>
      </trkpt>
      <trkpt lat="48.23731" lon="-4.48617">
        <ele>49.351352</ele>
        <time>2020-06-21T18:20:57.266Z</time>
      </trkpt>
      <trkpt lat="48.23711" lon="-4.48608">
        <ele>50.536032</ele>
        <time>2020-06-21T18:21:07.751Z</time>
      </trkpt>
      <trkpt lat="48.23729" lon="-4.48495">
        <ele>54.264466</ele>
        <time>2020-06-21T18:21:42.531Z</time>
      </trkpt>
      <trkpt lat="48.23752" lon="-4.48356">
        <ele>58.631759</ele>
        <time>2020-06-21T18:22:23.006Z</time>
      </trkpt>
      <trkpt lat="48.23772" lon="-4.48339">
        <ele>59.229475</ele>
        <time>2020-06-21T18:22:31.691Z</time>
      </trkpt>
      <trkpt lat="48.23776" lon="-4.48263">
        <ele>60.569056</ele>
        <time>2020-06-21T18:22:48.205Z</time>
      </trkpt>
      <trkpt lat="48.23768" lon="-4.48157">
        <ele>62.457287</ele>
        <time>2020-06-21T18:23:11.058Z</time>
      </trkpt>
      <trkpt lat="48.23764" lon="-4.4811">
        <ele>63.176263</ele>
        <time>2020-06-21T18:23:21.262Z</time>
      </trkpt>
      <trkpt lat="48.23736" lon="-4.4793">
        <ele>64.26228</ele>
        <time>2020-06-21T18:23:51.412Z</time>
      </trkpt>
      <trkpt lat="48.23735" lon="-4.47846">
        <ele>64.631486</ele>
        <time>2020-06-21T18:24:05.028Z</time>
      </trkpt>
      <trkpt lat="48.23744" lon="-4.47791">
        <ele>64.129002</ele>
        <time>2020-06-21T18:24:12.002Z</time>
      </trkpt>
      <trkpt lat="48.23745" lon="-4.47764">
        <ele>63.886224</ele>
        <time>2020-06-21T18:24:17.264Z</time>
      </trkpt>
      <trkpt lat="48.23757" lon="-4.47697">
        <ele>63.274055</ele>
        <time>2020-06-21T18:24:30.610Z</time>
      </trkpt>
      <trkpt lat="48.23764" lon="-4.47613">
        <ele>62.515124</ele>
        <time>2020-06-21T18:24:46.205Z</time>
      </trkpt>
      <trkpt lat="48.23774" lon="-4.47569">
        <ele>61.767582</ele>
        <time>2020-06-21T18:24:54.300Z</time>
      </trkpt>
      <trkpt lat="48.23819" lon="-4.47469">
        <ele>58.917722</ele>
        <time>2020-06-21T18:25:14.352Z</time>
      </trkpt>
      <trkpt lat="48.23889" lon="-4.47371">
        <ele>55.466041</ele>
        <time>2020-06-21T18:25:38.393Z</time>
      </trkpt>
      <trkpt lat="48.239" lon="-4.47337">
        <ele>54.570718</ele>
        <time>2020-06-21T18:25:44.950Z</time>
      </trkpt>
      <trkpt lat="48.23936" lon="-4.4732">
        <ele>53.235343</ele>
        <time>2020-06-21T18:25:54.694Z</time>
      </trkpt>
      <trkpt lat="48.23978" lon="-4.47294">
        <ele>51.581939</ele>
        <time>2020-06-21T18:26:01.741Z</time>
      </trkpt>
      <trkpt lat="48.24072" lon="-4.473">
        <ele>47.999737</ele>
        <time>2020-06-21T18:26:15.480Z</time>
      </trkpt>
      <trkpt lat="48.24105" lon="-4.47291">
        <ele>46.631781</ele>
        <time>2020-06-21T18:26:20.354Z</time>
      </trkpt>
      <trkpt lat="48.24096" lon="-4.47241">
        <ele>45.182313</ele>
        <time>2020-06-21T18:26:25.572Z</time>
      </trkpt>
      <trkpt lat="48.24086" lon="-4.47182">
        <ele>43.492424</ele>
        <time>2020-06-21T18:26:31.656Z</time>
      </trkpt>
      <trkpt lat="48.24053" lon="-4.46976">
        <ele>35.507839</ele>
        <time>2020-06-21T18:26:51.636Z</time>
      </trkpt>
      <trkpt lat="48.24035" lon="-4.46895">
        <ele>31.949837</ele>
        <time>2020-06-21T18:26:59.343Z</time>
      </trkpt>
      <trkpt lat="48.24011" lon="-4.46831">
        <ele>27.959682</ele>
        <time>2020-06-21T18:27:05.642Z</time>
      </trkpt>
      <trkpt lat="48.24004" lon="-4.46812">
        <ele>26.607877</ele>
        <time>2020-06-21T18:27:07.419Z</time>
      </trkpt>
      <trkpt lat="48.23969" lon="-4.46746">
        <ele>21.252602</ele>
        <time>2020-06-21T18:27:14.582Z</time>
      </trkpt>
      <trkpt lat="48.23913" lon="-4.46629">
        <ele>13.146981</ele>
        <time>2020-06-21T18:27:26.777Z</time>
      </trkpt>
      <trkpt lat="48.23901" lon="-4.46592">
        <ele>12.186072</ele>
        <time>2020-06-21T18:27:30.457Z</time>
      </trkpt>
      <trkpt lat="48.23909" lon="-4.46547">
        <ele>11.122936</ele>
        <time>2020-06-21T18:27:34.687Z</time>
      </trkpt>
      <trkpt lat="48.2392" lon="-4.46523">
        <ele>10.422558</ele>
        <time>2020-06-21T18:27:37.616Z</time>
      </trkpt>
      <trkpt lat="48.23939" lon="-4.46505">
        <ele>9.643604</ele>
        <time>2020-06-21T18:27:41.120Z</time>
      </trkpt>
      <trkpt lat="48.23951" lon="-4.46488">
        <ele>9.080481</ele>
        <time>2020-06-21T18:27:43.939Z</time>
      </trkpt>
      <trkpt lat="48.23955" lon="-4.46443">
        <ele>8.012965</ele>
        <time>2020-06-21T18:27:50.343Z</time>
      </trkpt>
      <trkpt lat="48.23955" lon="-4.46387">
        <ele>8.599731</ele>
        <time>2020-06-21T18:28:03.515Z</time>
      </trkpt>
      <trkpt lat="48.23955" lon="-4.46387">
        <ele>8.599731</ele>
        <time>2020-06-21T18:28:03.709Z</time>
      </trkpt>
      <trkpt lat="48.23955" lon="-4.46387">
        <ele>8.599731</ele>
        <time>2020-06-21T18:28:03.725Z</time>
      </trkpt>
      <trkpt lat="48.2394" lon="-4.46331">
        <ele>10.873846</ele>
        <time>2020-06-21T18:28:19.453Z</time>
      </trkpt>
      <trkpt lat="48.23899" lon="-4.46222">
        <ele>15.530977</ele>
        <time>2020-06-21T18:28:58.556Z</time>
      </trkpt>
      <trkpt lat="48.23879" lon="-4.46179">
        <ele>17.521835</ele>
        <time>2020-06-21T18:29:23.457Z</time>
      </trkpt>
      <trkpt lat="48.23864" lon="-4.46159">
        <ele>19.706068</ele>
        <time>2020-06-21T18:29:37.419Z</time>
      </trkpt>
      <trkpt lat="48.2381" lon="-4.46127">
        <ele>26.017451</ele>
        <time>2020-06-21T18:30:23.063Z</time>
      </trkpt>
      <trkpt lat="48.23795" lon="-4.46107">
        <ele>28.229149</ele>
        <time>2020-06-21T18:30:35.328Z</time>
      </trkpt>
      <trkpt lat="48.2379" lon="-4.46081">
        <ele>30.237894</ele>
        <time>2020-06-21T18:30:53.476Z</time>
      </trkpt>
      <trkpt lat="48.23795" lon="-4.45902">
        <ele>41.313742</ele>
        <time>2020-06-21T18:32:24.372Z</time>
      </trkpt>
      <trkpt lat="48.23786" lon="-4.45811">
        <ele>45.937488</ele>
        <time>2020-06-21T18:33:04.761Z</time>
      </trkpt>
      <trkpt lat="48.23788" lon="-4.45782">
        <ele>47.405413</ele>
        <time>2020-06-21T18:33:15.135Z</time>
      </trkpt>
      <trkpt lat="48.23766" lon="-4.45775">
        <ele>49.037112</ele>
        <time>2020-06-21T18:33:24.923Z</time>
      </trkpt>
      <trkpt lat="48.23759" lon="-4.45765">
        <ele>49.758567</ele>
        <time>2020-06-21T18:33:29.694Z</time>
      </trkpt>
      <trkpt lat="48.23751" lon="-4.45687">
        <ele>50.835847</ele>
        <time>2020-06-21T18:33:47.502Z</time>
      </trkpt>
      <trkpt lat="48.23744" lon="-4.45603">
        <ele>51.074033</ele>
        <time>2020-06-21T18:34:07.198Z</time>
      </trkpt>
      <trkpt lat="48.2374" lon="-4.45565">
        <ele>51.181512</ele>
        <time>2020-06-21T18:34:14.538Z</time>
      </trkpt>
      <trkpt lat="48.23714" lon="-4.45555">
        <ele>51.294089</ele>
        <time>2020-06-21T18:34:22.437Z</time>
      </trkpt>
      <trkpt lat="48.2374" lon="-4.45445">
        <ele>51.85784</ele>
        <time>2020-06-21T18:34:47.006Z</time>
      </trkpt>
      <trkpt lat="48.23746" lon="-4.45391">
        <ele>52.197351</ele>
        <time>2020-06-21T18:34:59.408Z</time>
      </trkpt>
      <trkpt lat="48.2376" lon="-4.45332">
        <ele>52.581084</ele>
        <time>2020-06-21T18:35:15.504Z</time>
      </trkpt>
      <trkpt lat="48.23763" lon="-4.45291">
        <ele>52.84138</ele>
        <time>2020-06-21T18:35:28.122Z</time>
      </trkpt>
      <trkpt lat="48.23792" lon="-4.45161">
        <ele>52.996196</ele>
        <time>2020-06-21T18:36:04.388Z</time>
      </trkpt>
      <trkpt lat="48.23793" lon="-4.45095">
        <ele>52.929308</ele>
        <time>2020-06-21T18:36:18.131Z</time>
      </trkpt>
      <trkpt lat="48.23791" lon="-4.45091">
        <ele>52.924311</ele>
        <time>2020-06-21T18:36:19.053Z</time>
      </trkpt>
      <trkpt lat="48.23791" lon="-4.45079">
        <ele>52.911232</ele>
        <time>2020-06-21T18:36:21.511Z</time>
      </trkpt>
      <trkpt lat="48.23797" lon="-4.45067">
        <ele>52.896146</ele>
        <time>2020-06-21T18:36:24.412Z</time>
      </trkpt>
      <trkpt lat="48.23807" lon="-4.44973">
        <ele>52.391104</ele>
        <time>2020-06-21T18:36:41.980Z</time>
      </trkpt>
      <trkpt lat="48.23791" lon="-4.44884">
        <ele>50.475542</ele>
        <time>2020-06-21T18:36:58.436Z</time>
      </trkpt>
      <trkpt lat="48.23792" lon="-4.44845">
        <ele>49.668806</ele>
        <time>2020-06-21T18:37:05.193Z</time>
      </trkpt>
      <trkpt lat="48.23792" lon="-4.44826">
        <ele>49.281992</ele>
        <time>2020-06-21T18:37:08.193Z</time>
      </trkpt>
      <trkpt lat="48.23797" lon="-4.44775">
        <ele>48.212562</ele>
        <time>2020-06-21T18:37:16.792Z</time>
      </trkpt>
      <trkpt lat="48.23811" lon="-4.44702">
        <ele>46.410615</ele>
        <time>2020-06-21T18:37:29.436Z</time>
      </trkpt>
      <trkpt lat="48.23816" lon="-4.44633">
        <ele>44.409922</ele>
        <time>2020-06-21T18:37:40.957Z</time>
      </trkpt>
      <trkpt lat="48.23808" lon="-4.44614">
        <ele>43.750728</ele>
        <time>2020-06-21T18:37:43.098Z</time>
      </trkpt>
      <trkpt lat="48.23815" lon="-4.44582">
        <ele>42.779921</ele>
        <time>2020-06-21T18:37:46.430Z</time>
      </trkpt>
      <trkpt lat="48.23839" lon="-4.44509">
        <ele>40.441914</ele>
        <time>2020-06-21T18:37:54.151Z</time>
      </trkpt>
      <trkpt lat="48.23871" lon="-4.44285">
        <ele>34.60452</ele>
        <time>2020-06-21T18:38:16.473Z</time>
      </trkpt>
      <trkpt lat="48.23885" lon="-4.44247">
        <ele>33.507618</ele>
        <time>2020-06-21T18:38:21.013Z</time>
      </trkpt>
      <trkpt lat="48.23887" lon="-4.44083">
        <ele>30.799256</ele>
        <time>2020-06-21T18:38:38.347Z</time>
      </trkpt>
      <trkpt lat="48.23906" lon="-4.43945">
        <ele>28.797858</ele>
        <time>2020-06-21T18:38:54.051Z</time>
      </trkpt>
      <trkpt lat="48.23912" lon="-4.43895">
        <ele>28.454367</ele>
        <time>2020-06-21T18:38:59.872Z</time>
      </trkpt>
      <trkpt lat="48.23934" lon="-4.43769">
        <ele>27.572494</ele>
        <time>2020-06-21T18:39:15.241Z</time>
      </trkpt>
      <trkpt lat="48.23938" lon="-4.43742">
        <ele>27.383907</ele>
        <time>2020-06-21T18:39:18.636Z</time>
      </trkpt>
      <trkpt lat="48.24009" lon="-4.4347">
        <ele>25.56501</ele>
        <time>2020-06-21T18:39:55.701Z</time>
      </trkpt>
      <trkpt lat="48.24016" lon="-4.43431">
        <ele>25.241337</ele>
        <time>2020-06-21T18:40:00.170Z</time>
      </trkpt>
      <trkpt lat="48.24017" lon="-4.43343">
        <ele>22.522327</ele>
        <time>2020-06-21T18:40:09.103Z</time>
      </trkpt>
      <trkpt lat="48.24017" lon="-4.43276">
        <ele>20.439238</ele>
        <time>2020-06-21T18:40:15.546Z</time>
      </trkpt>
      <trkpt lat="48.23966" lon="-4.43283">
        <ele>18.036829</ele>
        <time>2020-06-21T18:40:22.192Z</time>
      </trkpt>
      <trkpt lat="48.23937" lon="-4.43279">
        <ele>16.625114</ele>
        <time>2020-06-21T18:40:25.865Z</time>
      </trkpt>
      <trkpt lat="48.2388" lon="-4.43257">
        <ele>13.458957</ele>
        <time>2020-06-21T18:40:33.289Z</time>
      </trkpt>
      <trkpt lat="48.23837" lon="-4.43241">
        <ele>11.083034</ele>
        <time>2020-06-21T18:40:38.907Z</time>
      </trkpt>
      <trkpt lat="48.23792" lon="-4.4321">
        <ele>8.405294</ele>
        <time>2020-06-21T18:40:45.451Z</time>
      </trkpt>
      <trkpt lat="48.23613" lon="-4.42985">
        <ele>6.022898</ele>
        <time>2020-06-21T18:41:24.737Z</time>
      </trkpt>
      <trkpt lat="48.23607" lon="-4.42977">
        <ele>6.26705</ele>
        <time>2020-06-21T18:41:27.094Z</time>
      </trkpt>
      <trkpt lat="48.23548" lon="-4.42904">
        <ele>8.308359</ele>
        <time>2020-06-21T18:41:51.574Z</time>
      </trkpt>
      <trkpt lat="48.23498" lon="-4.42824">
        <ele>10.649437</ele>
        <time>2020-06-21T18:42:23.370Z</time>
      </trkpt>
      <trkpt lat="48.23458" lon="-4.42686">
        <ele>16.669324</ele>
        <time>2020-06-21T18:43:15.188Z</time>
      </trkpt>
      <trkpt lat="48.23402" lon="-4.4258">
        <ele>21.71142</ele>
        <time>2020-06-21T18:44:03.170Z</time>
      </trkpt>
      <trkpt lat="48.23371" lon="-4.42696">
        <ele>25.169466</ele>
        <time>2020-06-21T18:44:38.980Z</time>
      </trkpt>
      <trkpt lat="48.23351" lon="-4.42734">
        <ele>26.498734</ele>
        <time>2020-06-21T18:44:51.014Z</time>
      </trkpt>
      <trkpt lat="48.23334" lon="-4.4275">
        <ele>27.345768</ele>
        <time>2020-06-21T18:44:58.144Z</time>
      </trkpt>
      <trkpt lat="48.23288" lon="-4.42776">
        <ele>28.584862</ele>
        <time>2020-06-21T18:45:13.954Z</time>
      </trkpt>
      <trkpt lat="48.23285" lon="-4.42778">
        <ele>28.616254</ele>
        <time>2020-06-21T18:45:15.013Z</time>
      </trkpt>
      <trkpt lat="48.23248" lon="-4.42769">
        <ele>28.977744</ele>
        <time>2020-06-21T18:45:25.033Z</time>
      </trkpt>
      <trkpt lat="48.23203" lon="-4.42783">
        <ele>29.409957</ele>
        <time>2020-06-21T18:45:37.923Z</time>
      </trkpt>
      <trkpt lat="48.23166" lon="-4.42785">
        <ele>29.758276</ele>
        <time>2020-06-21T18:45:46.540Z</time>
      </trkpt>
      <trkpt lat="48.23135" lon="-4.42782">
        <ele>30.049883</ele>
        <time>2020-06-21T18:45:52.409Z</time>
      </trkpt>
      <trkpt lat="48.23105" lon="-4.42754">
        <ele>29.534093</ele>
        <time>2020-06-21T18:45:58.329Z</time>
      </trkpt>
      <trkpt lat="48.23126" lon="-4.42679">
        <ele>28.719633</ele>
        <time>2020-06-21T18:46:07.142Z</time>
      </trkpt>
      <trkpt lat="48.23086" lon="-4.42612">
        <ele>27.826764</ele>
        <time>2020-06-21T18:46:23.907Z</time>
      </trkpt>
      <trkpt lat="48.23009" lon="-4.42571">
        <ele>27.818872</ele>
        <time>2020-06-21T18:46:47.719Z</time>
      </trkpt>
      <trkpt lat="48.23005" lon="-4.42512">
        <ele>28.151653</ele>
        <time>2020-06-21T18:46:59.323Z</time>
      </trkpt>
      <trkpt lat="48.22988" lon="-4.42464">
        <ele>28.457457</ele>
        <time>2020-06-21T18:47:13.416Z</time>
      </trkpt>
      <trkpt lat="48.22982" lon="-4.42405">
        <ele>28.796602</ele>
        <time>2020-06-21T18:47:31.832Z</time>
      </trkpt>
      <trkpt lat="48.2297" lon="-4.4236">
        <ele>29.562685</ele>
        <time>2020-06-21T18:47:48.055Z</time>
      </trkpt>
      <trkpt lat="48.2297" lon="-4.42315">
        <ele>30.610942</ele>
        <time>2020-06-21T18:48:04.324Z</time>
      </trkpt>
      <trkpt lat="48.2296" lon="-4.42254">
        <ele>32.061206</ele>
        <time>2020-06-21T18:48:24.427Z</time>
      </trkpt>
      <trkpt lat="48.22903" lon="-4.41895">
        <ele>40.996462</ele>
        <time>2020-06-21T18:50:24.878Z</time>
      </trkpt>
      <trkpt lat="48.22895" lon="-4.41868">
        <ele>41.733348</ele>
        <time>2020-06-21T18:50:36.075Z</time>
      </trkpt>
      <trkpt lat="48.22895" lon="-4.41769">
        <ele>44.133198</ele>
        <time>2020-06-21T18:51:14.027Z</time>
      </trkpt>
      <trkpt lat="48.22901" lon="-4.41741">
        <ele>44.85521</ele>
        <time>2020-06-21T18:51:23.923Z</time>
      </trkpt>
      <trkpt lat="48.22905" lon="-4.41695">
        <ele>45.962181</ele>
        <time>2020-06-21T18:51:37.462Z</time>
      </trkpt>
      <trkpt lat="48.22913" lon="-4.4164">
        <ele>47.328017</ele>
        <time>2020-06-21T18:51:54.486Z</time>
      </trkpt>
      <trkpt lat="48.22913" lon="-4.41607">
        <ele>48.122963</ele>
        <time>2020-06-21T18:52:05.785Z</time>
      </trkpt>
      <trkpt lat="48.2286" lon="-4.41625">
        <ele>49.54572</ele>
        <time>2020-06-21T18:52:30.967Z</time>
      </trkpt>
      <trkpt lat="48.2283" lon="-4.41629">
        <ele>50.282198</ele>
        <time>2020-06-21T18:52:44.748Z</time>
      </trkpt>
      <trkpt lat="48.22812" lon="-4.41619">
        <ele>50.740979</ele>
        <time>2020-06-21T18:52:53.956Z</time>
      </trkpt>
      <trkpt lat="48.22794" lon="-4.4158">
        <ele>51.51909</ele>
        <time>2020-06-21T18:53:05.865Z</time>
      </trkpt>
      <trkpt lat="48.22794" lon="-4.41579">
        <ele>51.535471</ele>
        <time>2020-06-21T18:53:06.909Z</time>
      </trkpt>
      <trkpt lat="48.22783" lon="-4.41521">
        <ele>52.503073</ele>
        <time>2020-06-21T18:53:21.742Z</time>
      </trkpt>
      <trkpt lat="48.2277" lon="-4.41469">
        <ele>53.842227</ele>
        <time>2020-06-21T18:53:37.275Z</time>
      </trkpt>
      <trkpt lat="48.22762" lon="-4.41439">
        <ele>54.728042</ele>
        <time>2020-06-21T18:53:46.799Z</time>
      </trkpt>
      <trkpt lat="48.2274" lon="-4.41383">
        <ele>56.506032</ele>
        <time>2020-06-21T18:54:10.324Z</time>
      </trkpt>
      <trkpt lat="48.22723" lon="-4.41321">
        <ele>58.345913</ele>
        <time>2020-06-21T18:54:36.858Z</time>
      </trkpt>
      <trkpt lat="48.22691" lon="-4.4126">
        <ele>60.486883</ele>
        <time>2020-06-21T18:55:06.946Z</time>
      </trkpt>
      <trkpt lat="48.22674" lon="-4.41223">
        <ele>61.739098</ele>
        <time>2020-06-21T18:55:23.517Z</time>
      </trkpt>
      <trkpt lat="48.22645" lon="-4.41135">
        <ele>64.455458</ele>
        <time>2020-06-21T18:55:59.116Z</time>
      </trkpt>
      <trkpt lat="48.22637" lon="-4.41093">
        <ele>65.656792</ele>
        <time>2020-06-21T18:56:14.071Z</time>
      </trkpt>
      <trkpt lat="48.22721" lon="-4.41065">
        <ele>68.448514</ele>
        <time>2020-06-21T18:56:55.315Z</time>
      </trkpt>
      <trkpt lat="48.22758" lon="-4.41024">
        <ele>69.419211</ele>
        <time>2020-06-21T18:57:15.052Z</time>
      </trkpt>
      <trkpt lat="48.22779" lon="-4.41001">
        <ele>69.957175</ele>
        <time>2020-06-21T18:57:24.881Z</time>
      </trkpt>
      <trkpt lat="48.22786" lon="-4.41">
        <ele>70.111172</ele>
        <time>2020-06-21T18:57:27.748Z</time>
      </trkpt>
      <trkpt lat="48.22809" lon="-4.41025">
        <ele>70.694792</ele>
        <time>2020-06-21T18:57:37.954Z</time>
      </trkpt>
      <trkpt lat="48.22807" lon="-4.40763">
        <ele>74.991887</ele>
        <time>2020-06-21T18:58:49.588Z</time>
      </trkpt>
      <trkpt lat="48.22796" lon="-4.40703">
        <ele>76.108856</ele>
        <time>2020-06-21T18:59:12.203Z</time>
      </trkpt>
      <trkpt lat="48.22781" lon="-4.40506">
        <ele>82.207505</ele>
        <time>2020-06-21T19:00:26.419Z</time>
      </trkpt>
      <trkpt lat="48.22783" lon="-4.40485">
        <ele>82.835923</ele>
        <time>2020-06-21T19:00:35.344Z</time>
      </trkpt>
      <trkpt lat="48.22768" lon="-4.40442">
        <ele>84.314605</ele>
        <time>2020-06-21T19:00:52.329Z</time>
      </trkpt>
      <trkpt lat="48.22763" lon="-4.40365">
        <ele>85.839432</ele>
        <time>2020-06-21T19:01:18.453Z</time>
      </trkpt>
      <trkpt lat="48.22768" lon="-4.40322">
        <ele>86.71092</ele>
        <time>2020-06-21T19:01:33.919Z</time>
      </trkpt>
      <trkpt lat="48.22779" lon="-4.40129">
        <ele>90.31121</ele>
        <time>2020-06-21T19:02:27.342Z</time>
      </trkpt>
      <trkpt lat="48.22781" lon="-4.40109">
        <ele>90.616288</ele>
        <time>2020-06-21T19:02:32.810Z</time>
      </trkpt>
      <trkpt lat="48.22789" lon="-4.39916">
        <ele>93.58352</ele>
        <time>2020-06-21T19:03:27.924Z</time>
      </trkpt>
      <trkpt lat="48.22789" lon="-4.39808">
        <ele>95.911878</ele>
        <time>2020-06-21T19:04:03.198Z</time>
      </trkpt>
      <trkpt lat="48.22777" lon="-4.39648">
        <ele>99.467748</ele>
        <time>2020-06-21T19:04:56.494Z</time>
      </trkpt>
      <trkpt lat="48.22761" lon="-4.39602">
        <ele>100.359055</ele>
        <time>2020-06-21T19:05:13.224Z</time>
      </trkpt>
      <trkpt lat="48.22753" lon="-4.39565">
        <ele>100.940225</ele>
        <time>2020-06-21T19:05:24.752Z</time>
      </trkpt>
      <trkpt lat="48.22754" lon="-4.39541">
        <ele>101.317758</ele>
        <time>2020-06-21T19:05:32.958Z</time>
      </trkpt>
      <trkpt lat="48.22746" lon="-4.39408">
        <ele>103.375662</ele>
        <time>2020-06-21T19:06:10.414Z</time>
      </trkpt>
      <trkpt lat="48.22735" lon="-4.39277">
        <ele>104.240249</ele>
        <time>2020-06-21T19:06:41.777Z</time>
      </trkpt>
      <trkpt lat="48.22745" lon="-4.39214">
        <ele>104.465276</ele>
        <time>2020-06-21T19:06:55.758Z</time>
      </trkpt>
      <trkpt lat="48.22776" lon="-4.39113">
        <ele>104.856883</ele>
        <time>2020-06-21T19:07:20.492Z</time>
      </trkpt>
      <trkpt lat="48.22791" lon="-4.39045">
        <ele>105.149238</ele>
        <time>2020-06-21T19:07:36.155Z</time>
      </trkpt>
      <trkpt lat="48.22802" lon="-4.38871">
        <ele>105.860461</ele>
        <time>2020-06-21T19:08:17.237Z</time>
      </trkpt>
      <trkpt lat="48.22808" lon="-4.38781">
        <ele>105.620693</ele>
        <time>2020-06-21T19:08:40.727Z</time>
      </trkpt>
      <trkpt lat="48.22657" lon="-4.38795">
        <ele>103.9676</ele>
        <time>2020-06-21T19:09:07.558Z</time>
      </trkpt>
      <trkpt lat="48.22509" lon="-4.38811">
        <ele>98.061694</ele>
        <time>2020-06-21T19:09:29.578Z</time>
      </trkpt>
      <trkpt lat="48.22425" lon="-4.38807">
        <ele>92.404119</ele>
        <time>2020-06-21T19:09:40.640Z</time>
      </trkpt>
      <trkpt lat="48.22364" lon="-4.3879">
        <ele>87.891318</ele>
        <time>2020-06-21T19:09:48.977Z</time>
      </trkpt>
      <trkpt lat="48.22351" lon="-4.38779">
        <ele>86.820536</ele>
        <time>2020-06-21T19:09:50.882Z</time>
      </trkpt>
      <trkpt lat="48.22277" lon="-4.38619">
        <ele>77.384366</ele>
        <time>2020-06-21T19:10:06.909Z</time>
      </trkpt>
      <trkpt lat="48.22156" lon="-4.38356">
        <ele>62.777145</ele>
        <time>2020-06-21T19:10:34.086Z</time>
      </trkpt>
      <trkpt lat="48.22144" lon="-4.38329">
        <ele>61.379102</ele>
        <time>2020-06-21T19:10:36.856Z</time>
      </trkpt>
      <trkpt lat="48.22139" lon="-4.38316">
        <ele>60.710642</ele>
        <time>2020-06-21T19:10:38.167Z</time>
      </trkpt>
      <trkpt lat="48.2207" lon="-4.3815">
        <ele>52.53961</ele>
        <time>2020-06-21T19:10:54.686Z</time>
      </trkpt>
      <trkpt lat="48.2205" lon="-4.38073">
        <ele>49.076713</ele>
        <time>2020-06-21T19:11:01.854Z</time>
      </trkpt>
      <trkpt lat="48.2205" lon="-4.38054">
        <ele>48.314212</ele>
        <time>2020-06-21T19:11:03.512Z</time>
      </trkpt>
      <trkpt lat="48.22056" lon="-4.38007">
        <ele>47.041432</ele>
        <time>2020-06-21T19:11:07.711Z</time>
      </trkpt>
      <trkpt lat="48.22089" lon="-4.37871">
        <ele>43.196683</ele>
        <time>2020-06-21T19:11:20.967Z</time>
      </trkpt>
      <trkpt lat="48.22111" lon="-4.37783">
        <ele>40.775687</ele>
        <time>2020-06-21T19:11:30.447Z</time>
      </trkpt>
      <trkpt lat="48.22116" lon="-4.37763">
        <ele>40.308611</ele>
        <time>2020-06-21T19:11:32.523Z</time>
      </trkpt>
      <trkpt lat="48.22136" lon="-4.37683">
        <ele>38.36722</ele>
        <time>2020-06-21T19:11:41.008Z</time>
      </trkpt>
      <trkpt lat="48.22138" lon="-4.3766">
        <ele>37.83611</ele>
        <time>2020-06-21T19:11:43.269Z</time>
      </trkpt>
      <trkpt lat="48.22139" lon="-4.37597">
        <ele>36.402591</ele>
        <time>2020-06-21T19:11:49.240Z</time>
      </trkpt>
      <trkpt lat="48.22134" lon="-4.37557">
        <ele>35.463627</ele>
        <time>2020-06-21T19:11:52.978Z</time>
      </trkpt>
      <trkpt lat="48.22092" lon="-4.37616">
        <ele>31.958</ele>
        <time>2020-06-21T19:12:00.587Z</time>
      </trkpt>
      <trkpt lat="48.22068" lon="-4.37644">
        <ele>29.888427</ele>
        <time>2020-06-21T19:12:04.436Z</time>
      </trkpt>
      <trkpt lat="48.22053" lon="-4.37657">
        <ele>28.677686</ele>
        <time>2020-06-21T19:12:06.689Z</time>
      </trkpt>
      <trkpt lat="48.22044" lon="-4.37664">
        <ele>27.997699</ele>
        <time>2020-06-21T19:12:07.985Z</time>
      </trkpt>
      <trkpt lat="48.21985" lon="-4.37698">
        <ele>23.669172</ele>
        <time>2020-06-21T19:12:15.792Z</time>
      </trkpt>
      <trkpt lat="48.2194" lon="-4.37707">
        <ele>20.598531</ele>
        <time>2020-06-21T19:12:21.374Z</time>
      </trkpt>
      <trkpt lat="48.21937" lon="-4.37707">
        <ele>20.428356</ele>
        <time>2020-06-21T19:12:21.654Z</time>
      </trkpt>
      <trkpt lat="48.21907" lon="-4.37705">
        <ele>18.365592</ele>
        <time>2020-06-21T19:12:25.465Z</time>
      </trkpt>
      <trkpt lat="48.21899" lon="-4.37704">
        <ele>17.775345</ele>
        <time>2020-06-21T19:12:26.489Z</time>
      </trkpt>
      <trkpt lat="48.2184" lon="-4.37686">
        <ele>13.723925</ele>
        <time>2020-06-21T19:12:34.098Z</time>
      </trkpt>
      <trkpt lat="48.21813" lon="-4.3767">
        <ele>11.754989</ele>
        <time>2020-06-21T19:12:37.911Z</time>
      </trkpt>
      <trkpt lat="48.21792" lon="-4.37658">
        <ele>10.425435</ele>
        <time>2020-06-21T19:12:40.894Z</time>
      </trkpt>
      <trkpt lat="48.21748" lon="-4.37608">
        <ele>8.952514</ele>
        <time>2020-06-21T19:12:48.493Z</time>
      </trkpt>
      <trkpt lat="48.21744" lon="-4.37602">
        <ele>8.792976</ele>
        <time>2020-06-21T19:12:49.346Z</time>
      </trkpt>
      <trkpt lat="48.21738" lon="-4.37594">
        <ele>8.5779</ele>
        <time>2020-06-21T19:12:50.506Z</time>
      </trkpt>
      <trkpt lat="48.21735" lon="-4.37589">
        <ele>8.445792</ele>
        <time>2020-06-21T19:12:51.212Z</time>
      </trkpt>
      <trkpt lat="48.21717" lon="-4.37547">
        <ele>7.553751</ele>
        <time>2020-06-21T19:12:56.253Z</time>
      </trkpt>
      <trkpt lat="48.2171" lon="-4.3753">
        <ele>7.190329</ele>
        <time>2020-06-21T19:12:58.407Z</time>
      </trkpt>
      <trkpt lat="48.21703" lon="-4.37522">
        <ele>6.958468</ele>
        <time>2020-06-21T19:12:59.804Z</time>
      </trkpt>
      <trkpt lat="48.21695" lon="-4.37518">
        <ele>6.71886</ele>
        <time>2020-06-21T19:13:01.204Z</time>
      </trkpt>
      <trkpt lat="48.21682" lon="-4.37519">
        <ele>6.379407</ele>
        <time>2020-06-21T19:13:03.219Z</time>
      </trkpt>
      <trkpt lat="48.21679" lon="-4.37517">
        <ele>6.291912</ele>
        <time>2020-06-21T19:13:03.779Z</time>
      </trkpt>
      <trkpt lat="48.21623" lon="-4.37453">
        <ele>5.455673</ele>
        <time>2020-06-21T19:13:15.975Z</time>
      </trkpt>
      <trkpt lat="48.21577" lon="-4.374">
        <ele>5.152263</ele>
        <time>2020-06-21T19:13:26.313Z</time>
      </trkpt>
      <trkpt lat="48.2139" lon="-4.37218">
        <ele>4.782311</ele>
        <time>2020-06-21T19:14:08.027Z</time>
      </trkpt>
      <trkpt lat="48.21218" lon="-4.37044">
        <ele>6.240856</ele>
        <time>2020-06-21T19:14:54.940Z</time>
      </trkpt>
      <trkpt lat="48.21153" lon="-4.36984">
        <ele>8.800208</ele>
        <time>2020-06-21T19:15:17.505Z</time>
      </trkpt>
      <trkpt lat="48.21175" lon="-4.36951">
        <ele>9.865905</ele>
        <time>2020-06-21T19:15:32.653Z</time>
      </trkpt>
      <trkpt lat="48.21175" lon="-4.36943">
        <ele>10.050086</ele>
        <time>2020-06-21T19:15:35.066Z</time>
      </trkpt>
      <trkpt lat="48.21153" lon="-4.36899">
        <ele>11.304687</ele>
        <time>2020-06-21T19:15:54.056Z</time>
      </trkpt>
      <trkpt lat="48.21141" lon="-4.36861">
        <ele>12.282839</ele>
        <time>2020-06-21T19:16:10.787Z</time>
      </trkpt>
      <trkpt lat="48.21136" lon="-4.36666">
        <ele>20.726264</ele>
        <time>2020-06-21T19:17:36.364Z</time>
      </trkpt>
      <trkpt lat="48.21137" lon="-4.3661">
        <ele>23.173311</ele>
        <time>2020-06-21T19:18:01.597Z</time>
      </trkpt>
      <trkpt lat="48.21141" lon="-4.36462">
        <ele>28.672699</ele>
        <time>2020-06-21T19:19:05.144Z</time>
      </trkpt>
      <trkpt lat="48.21133" lon="-4.36289">
        <ele>34.72197</ele>
        <time>2020-06-21T19:20:07.086Z</time>
      </trkpt>
      <trkpt lat="48.21138" lon="-4.36252">
        <ele>35.905802</ele>
        <time>2020-06-21T19:20:18.977Z</time>
      </trkpt>
      <trkpt lat="48.21155" lon="-4.36209">
        <ele>37.452253</ele>
        <time>2020-06-21T19:20:38.445Z</time>
      </trkpt>
      <trkpt lat="48.21133" lon="-4.36163">
        <ele>39.209582</ele>
        <time>2020-06-21T19:20:59.499Z</time>
      </trkpt>
      <trkpt lat="48.21142" lon="-4.36046">
        <ele>42.878915</ele>
        <time>2020-06-21T19:21:41.769Z</time>
      </trkpt>
      <trkpt lat="48.21134" lon="-4.36029">
        <ele>43.57629</ele>
        <time>2020-06-21T19:21:52.313Z</time>
      </trkpt>
      <trkpt lat="48.21087" lon="-4.36001">
        <ele>46.044699</ele>
        <time>2020-06-21T19:22:20.156Z</time>
      </trkpt>
      <trkpt lat="48.21012" lon="-4.35912">
        <ele>50.738735</ele>
        <time>2020-06-21T19:23:17.555Z</time>
      </trkpt>
      <trkpt lat="48.21016" lon="-4.35902">
        <ele>51.100594</ele>
        <time>2020-06-21T19:23:20.750Z</time>
      </trkpt>
      <trkpt lat="48.21029" lon="-4.35866">
        <ele>51.746887</ele>
        <time>2020-06-21T19:23:29.176Z</time>
      </trkpt>
      <trkpt lat="48.21099" lon="-4.35729">
        <ele>54.484231</ele>
        <time>2020-06-21T19:24:05.277Z</time>
      </trkpt>
      <trkpt lat="48.21056" lon="-4.35691">
        <ele>55.384378</ele>
        <time>2020-06-21T19:24:19.101Z</time>
      </trkpt>
      <trkpt lat="48.21042" lon="-4.35679">
        <ele>55.414783</ele>
        <time>2020-06-21T19:24:23.361Z</time>
      </trkpt>
      <trkpt lat="48.20988" lon="-4.3563">
        <ele>55.530729</ele>
        <time>2020-06-21T19:24:38.146Z</time>
      </trkpt>
      <trkpt lat="48.20985" lon="-4.35613">
        <ele>55.553035</ele>
        <time>2020-06-21T19:24:40.726Z</time>
      </trkpt>
      <trkpt lat="48.20997" lon="-4.35582">
        <ele>55.597324</ele>
        <time>2020-06-21T19:24:45.400Z</time>
      </trkpt>
      <trkpt lat="48.21013" lon="-4.35544">
        <ele>55.653255</ele>
        <time>2020-06-21T19:24:51.182Z</time>
      </trkpt>
      <trkpt lat="48.21035" lon="-4.35496">
        <ele>55.157837</ele>
        <time>2020-06-21T19:24:57.959Z</time>
      </trkpt>
      <trkpt lat="48.21054" lon="-4.3544">
        <ele>53.846164</ele>
        <time>2020-06-21T19:25:09.466Z</time>
      </trkpt>
      <trkpt lat="48.21072" lon="-4.35311">
        <ele>51.098184</ele>
        <time>2020-06-21T19:25:32.226Z</time>
      </trkpt>
      <trkpt lat="48.21072" lon="-4.35286">
        <ele>50.590505</ele>
        <time>2020-06-21T19:25:36.162Z</time>
      </trkpt>
      <trkpt lat="48.21058" lon="-4.35275">
        <ele>50.077671</ele>
        <time>2020-06-21T19:25:40.192Z</time>
      </trkpt>
      <trkpt lat="48.21042" lon="-4.35241">
        <ele>48.152193</ele>
        <time>2020-06-21T19:25:46.749Z</time>
      </trkpt>
      <trkpt lat="48.20706" lon="-4.3516">
        <ele>22.75666</ele>
        <time>2020-06-21T19:27:02.974Z</time>
      </trkpt>
      <trkpt lat="48.20657" lon="-4.35148">
        <ele>19.53952</ele>
        <time>2020-06-21T19:27:13.768Z</time>
      </trkpt>
      <trkpt lat="48.20651" lon="-4.35144">
        <ele>19.115663</ele>
        <time>2020-06-21T19:27:14.608Z</time>
      </trkpt>
      <trkpt lat="48.2065" lon="-4.35127">
        <ele>18.381618</ele>
        <time>2020-06-21T19:27:16.171Z</time>
      </trkpt>
      <trkpt lat="48.20682" lon="-4.35035">
        <ele>13.958838</ele>
        <time>2020-06-21T19:27:25.322Z</time>
      </trkpt>
      <trkpt lat="48.20696" lon="-4.34978">
        <ele>11.920416</ele>
        <time>2020-06-21T19:27:31.222Z</time>
      </trkpt>
      <trkpt lat="48.20755" lon="-4.3492">
        <ele>14.809865</ele>
        <time>2020-06-21T19:27:55.497Z</time>
      </trkpt>
      <trkpt lat="48.20737" lon="-4.34856">
        <ele>16.709897</ele>
        <time>2020-06-21T19:28:19.009Z</time>
      </trkpt>
      <trkpt lat="48.2073" lon="-4.34826">
        <ele>17.600138</ele>
        <time>2020-06-21T19:28:31.514Z</time>
      </trkpt>
      <trkpt lat="48.20734" lon="-4.34805">
        <ele>18.190692</ele>
        <time>2020-06-21T19:28:39.634Z</time>
      </trkpt>
      <trkpt lat="48.20767" lon="-4.34776">
        <ele>20.394453</ele>
        <time>2020-06-21T19:29:02.597Z</time>
      </trkpt>
      <trkpt lat="48.20837" lon="-4.34675">
        <ele>27.80951</ele>
        <time>2020-06-21T19:30:02.067Z</time>
      </trkpt>
      <trkpt lat="48.20907" lon="-4.34626">
        <ele>33.479292</ele>
        <time>2020-06-21T19:30:46.298Z</time>
      </trkpt>
      <trkpt lat="48.20932" lon="-4.34608">
        <ele>35.053757</ele>
        <time>2020-06-21T19:31:00.664Z</time>
      </trkpt>
      <trkpt lat="48.20944" lon="-4.34581">
        <ele>36.339765</ele>
        <time>2020-06-21T19:31:11.184Z</time>
      </trkpt>
      <trkpt lat="48.20956" lon="-4.34537">
        <ele>38.173699</ele>
        <time>2020-06-21T19:31:26.019Z</time>
      </trkpt>
      <trkpt lat="48.20974" lon="-4.34517">
        <ele>39.460182</ele>
        <time>2020-06-21T19:31:37.015Z</time>
      </trkpt>
      <trkpt lat="48.20996" lon="-4.34494">
        <ele>41.004591</ele>
        <time>2020-06-21T19:31:49.677Z</time>
      </trkpt>
      <trkpt lat="48.2101" lon="-4.34437">
        <ele>43.302325</ele>
        <time>2020-06-21T19:32:08.950Z</time>
      </trkpt>
      <trkpt lat="48.21" lon="-4.34426">
        <ele>43.715657</ele>
        <time>2020-06-21T19:32:14.430Z</time>
      </trkpt>
      <trkpt lat="48.20995" lon="-4.34419">
        <ele>43.933775</ele>
        <time>2020-06-21T19:32:17.194Z</time>
      </trkpt>
      <trkpt lat="48.20985" lon="-4.34401">
        <ele>44.424777</ele>
        <time>2020-06-21T19:32:24.319Z</time>
      </trkpt>
      <trkpt lat="48.20985" lon="-4.34375">
        <ele>44.992467</ele>
        <time>2020-06-21T19:32:31.273Z</time>
      </trkpt>
      <trkpt lat="48.20988" lon="-4.3432">
        <ele>46.156258</ele>
        <time>2020-06-21T19:32:45.889Z</time>
      </trkpt>
      <trkpt lat="48.20992" lon="-4.34286">
        <ele>46.888304</ele>
        <time>2020-06-21T19:32:54.001Z</time>
      </trkpt>
      <trkpt lat="48.20983" lon="-4.34276">
        <ele>47.245515</ele>
        <time>2020-06-21T19:32:58.842Z</time>
      </trkpt>
      <trkpt lat="48.20931" lon="-4.34093">
        <ele>48.437607</ele>
        <time>2020-06-21T19:33:49.832Z</time>
      </trkpt>
      <trkpt lat="48.20918" lon="-4.3405">
        <ele>48.22125</ele>
        <time>2020-06-21T19:33:58.888Z</time>
      </trkpt>
      <trkpt lat="48.20901" lon="-4.33896">
        <ele>45.778903</ele>
        <time>2020-06-21T19:34:27.040Z</time>
      </trkpt>
      <trkpt lat="48.2089" lon="-4.33683">
        <ele>37.593291</ele>
        <time>2020-06-21T19:35:00.104Z</time>
      </trkpt>
      <trkpt lat="48.20886" lon="-4.33618">
        <ele>33.552676</ele>
        <time>2020-06-21T19:35:09.474Z</time>
      </trkpt>
      <trkpt lat="48.20871" lon="-4.33601">
        <ele>31.76036</ele>
        <time>2020-06-21T19:35:11.829Z</time>
      </trkpt>
      <trkpt lat="48.20844" lon="-4.3356">
        <ele>28.026605</ele>
        <time>2020-06-21T19:35:16.723Z</time>
      </trkpt>
      <trkpt lat="48.20786" lon="-4.33469">
        <ele>19.965337</ele>
        <time>2020-06-21T19:35:27.323Z</time>
      </trkpt>
      <trkpt lat="48.20729" lon="-4.33379">
        <ele>15.084943</ele>
        <time>2020-06-21T19:35:38.200Z</time>
      </trkpt>
      <trkpt lat="48.20705" lon="-4.33328">
        <ele>12.638075</ele>
        <time>2020-06-21T19:35:44.067Z</time>
      </trkpt>
      <trkpt lat="48.2068" lon="-4.33214">
        <ele>9.401503</ele>
        <time>2020-06-21T19:35:56.676Z</time>
      </trkpt>
      <trkpt lat="48.2068" lon="-4.33185">
        <ele>9.35911</ele>
        <time>2020-06-21T19:36:00.647Z</time>
      </trkpt>
      <trkpt lat="48.20679" lon="-4.33179">
        <ele>9.349504</ele>
        <time>2020-06-21T19:36:01.436Z</time>
      </trkpt>
      <trkpt lat="48.20669" lon="-4.33152">
        <ele>9.305312</ele>
        <time>2020-06-21T19:36:05.481Z</time>
      </trkpt>
      <trkpt lat="48.20594" lon="-4.33109">
        <ele>9.130391</ele>
        <time>2020-06-21T19:36:24.618Z</time>
      </trkpt>
      <trkpt lat="48.20593" lon="-4.33107">
        <ele>9.125382</ele>
        <time>2020-06-21T19:36:25.252Z</time>
      </trkpt>
      <trkpt lat="48.20584" lon="-4.33092">
        <ele>9.096707</ele>
        <time>2020-06-21T19:36:27.887Z</time>
      </trkpt>
      <trkpt lat="48.20578" lon="-4.33057">
        <ele>9.276619</ele>
        <time>2020-06-21T19:36:33.801Z</time>
      </trkpt>
      <trkpt lat="48.20545" lon="-4.33002">
        <ele>10.388513</ele>
        <time>2020-06-21T19:36:44.280Z</time>
      </trkpt>
      <trkpt lat="48.20513" lon="-4.32934">
        <ele>11.638932</ele>
        <time>2020-06-21T19:36:59.859Z</time>
      </trkpt>
      <trkpt lat="48.20489" lon="-4.32845">
        <ele>13.07845</ele>
        <time>2020-06-21T19:37:25.738Z</time>
      </trkpt>
      <trkpt lat="48.20468" lon="-4.32745">
        <ele>15.454641</ele>
        <time>2020-06-21T19:37:59.081Z</time>
      </trkpt>
      <trkpt lat="48.20461" lon="-4.32718">
        <ele>16.094625</ele>
        <time>2020-06-21T19:38:07.287Z</time>
      </trkpt>
      <trkpt lat="48.20444" lon="-4.32672">
        <ele>17.286465</ele>
        <time>2020-06-21T19:38:21.716Z</time>
      </trkpt>
      <trkpt lat="48.20401" lon="-4.32615">
        <ele>19.239637</ele>
        <time>2020-06-21T19:38:42.165Z</time>
      </trkpt>
      <trkpt lat="48.20301" lon="-4.32456">
        <ele>14.596071</ele>
        <time>2020-06-21T19:39:04.623Z</time>
      </trkpt>
      <trkpt lat="48.20282" lon="-4.32413">
        <ele>13.501755</ele>
        <time>2020-06-21T19:39:09.196Z</time>
      </trkpt>
      <trkpt lat="48.20278" lon="-4.32366">
        <ele>12.583659</ele>
        <time>2020-06-21T19:39:13.449Z</time>
      </trkpt>
      <trkpt lat="48.2029" lon="-4.32309">
        <ele>11.407503</ele>
        <time>2020-06-21T19:39:19.074Z</time>
      </trkpt>
      <trkpt lat="48.20305" lon="-4.32279">
        <ele>10.684294</ele>
        <time>2020-06-21T19:39:22.781Z</time>
      </trkpt>
      <trkpt lat="48.20357" lon="-4.32206">
        <ele>8.597172</ele>
        <time>2020-06-21T19:39:35.172Z</time>
      </trkpt>
      <trkpt lat="48.20385" lon="-4.32182">
        <ele>8.926735</ele>
        <time>2020-06-21T19:39:43.921Z</time>
      </trkpt>
      <trkpt lat="48.20402" lon="-4.32176">
        <ele>9.529879</ele>
        <time>2020-06-21T19:39:49.353Z</time>
      </trkpt>
      <trkpt lat="48.20402" lon="-4.32176">
        <ele>9.529879</ele>
        <time>2020-06-21T19:39:49.425Z</time>
      </trkpt>
      <trkpt lat="48.20463" lon="-4.32175">
        <ele>11.565283</ele>
        <time>2020-06-21T19:40:11.676Z</time>
      </trkpt>
      <trkpt lat="48.20483" lon="-4.32168">
        <ele>12.227267</ele>
        <time>2020-06-21T19:40:19.337Z</time>
      </trkpt>
      <trkpt lat="48.20648" lon="-4.32019">
        <ele>21.798591</ele>
        <time>2020-06-21T19:41:49.232Z</time>
      </trkpt>
      <trkpt lat="48.20691" lon="-4.32002">
        <ele>24.361929</ele>
        <time>2020-06-21T19:42:15.076Z</time>
      </trkpt>
      <trkpt lat="48.20747" lon="-4.31985">
        <ele>27.682098</ele>
        <time>2020-06-21T19:42:43.884Z</time>
      </trkpt>
      <trkpt lat="48.20763" lon="-4.31979">
        <ele>28.660665</ele>
        <time>2020-06-21T19:42:53.112Z</time>
      </trkpt>
      <trkpt lat="48.20779" lon="-4.31988">
        <ele>29.598915</ele>
        <time>2020-06-21T19:43:00.106Z</time>
      </trkpt>
      <trkpt lat="48.20813" lon="-4.32022">
        <ele>32.023428</ele>
        <time>2020-06-21T19:43:21.699Z</time>
      </trkpt>
      <trkpt lat="48.20882" lon="-4.3192">
        <ele>36.496834</ele>
        <time>2020-06-21T19:44:06.238Z</time>
      </trkpt>
      <trkpt lat="48.20911" lon="-4.31901">
        <ele>37.535035</ele>
        <time>2020-06-21T19:44:18.584Z</time>
      </trkpt>
      <trkpt lat="48.20953" lon="-4.3189">
        <ele>38.925103</ele>
        <time>2020-06-21T19:44:32.280Z</time>
      </trkpt>
      <trkpt lat="48.2099" lon="-4.31871">
        <ele>40.173627</ele>
        <time>2020-06-21T19:44:44.351Z</time>
      </trkpt>
      <trkpt lat="48.21026" lon="-4.3183">
        <ele>40.522851</ele>
        <time>2020-06-21T19:44:59.636Z</time>
      </trkpt>
      <trkpt lat="48.21068" lon="-4.31758">
        <ele>39.608989</ele>
        <time>2020-06-21T19:45:12.837Z</time>
      </trkpt>
      <trkpt lat="48.21091" lon="-4.31719">
        <ele>39.113976</ele>
        <time>2020-06-21T19:45:18.398Z</time>
      </trkpt>
      <trkpt lat="48.21119" lon="-4.31687">
        <ele>38.603574</ele>
        <time>2020-06-21T19:45:23.690Z</time>
      </trkpt>
      <trkpt lat="48.20988" lon="-4.3158">
        <ele>33.438597</ele>
        <time>2020-06-21T19:45:43.508Z</time>
      </trkpt>
      <trkpt lat="48.20889" lon="-4.31501">
        <ele>33.522386</ele>
        <time>2020-06-21T19:46:01.373Z</time>
      </trkpt>
      <trkpt lat="48.2076" lon="-4.31396">
        <ele>39.340594</ele>
        <time>2020-06-21T19:47:14.490Z</time>
      </trkpt>
      <trkpt lat="48.20665" lon="-4.31328">
        <ele>45.752503</ele>
        <time>2020-06-21T19:48:18.072Z</time>
      </trkpt>
      <trkpt lat="48.20625" lon="-4.31305">
        <ele>48.411419</ele>
        <time>2020-06-21T19:48:36.685Z</time>
      </trkpt>
      <trkpt lat="48.20529" lon="-4.3127">
        <ele>46.987137</ele>
        <time>2020-06-21T19:48:55.129Z</time>
      </trkpt>
      <trkpt lat="48.20526" lon="-4.31286">
        <ele>46.780083</ele>
        <time>2020-06-21T19:48:58.003Z</time>
      </trkpt>
      <trkpt lat="48.20511" lon="-4.31314">
        <ele>46.346748</ele>
        <time>2020-06-21T19:49:04.070Z</time>
      </trkpt>
      <trkpt lat="48.20489" lon="-4.3135">
        <ele>45.745778</ele>
        <time>2020-06-21T19:49:11.919Z</time>
      </trkpt>
      <trkpt lat="48.20365" lon="-4.31556">
        <ele>35.211689</ele>
        <time>2020-06-21T19:49:54.524Z</time>
      </trkpt>
      <trkpt lat="48.20348" lon="-4.31558">
        <ele>34.271553</ele>
        <time>2020-06-21T19:49:58.499Z</time>
      </trkpt>
      <trkpt lat="48.20303" lon="-4.31537">
        <ele>32.687384</ele>
        <time>2020-06-21T19:50:10.213Z</time>
      </trkpt>
      <trkpt lat="48.20186" lon="-4.31443">
        <ele>28.369992</ele>
        <time>2020-06-21T19:50:44.786Z</time>
      </trkpt>
      <trkpt lat="48.2" lon="-4.31176">
        <ele>27.48397</ele>
        <time>2020-06-21T19:52:04.873Z</time>
      </trkpt>
      <trkpt lat="48.19927" lon="-4.31081">
        <ele>27.634997</ele>
        <time>2020-06-21T19:52:38.613Z</time>
      </trkpt>
      <trkpt lat="48.19921" lon="-4.31073">
        <ele>27.616696</ele>
        <time>2020-06-21T19:52:41.588Z</time>
      </trkpt>
      <trkpt lat="48.19904" lon="-4.31041">
        <ele>27.514984</ele>
        <time>2020-06-21T19:52:50.694Z</time>
      </trkpt>
      <trkpt lat="48.19777" lon="-4.30843">
        <ele>25.585903</ele>
        <time>2020-06-21T19:53:25.499Z</time>
      </trkpt>
      <trkpt lat="48.19725" lon="-4.30735">
        <ele>22.212816</ele>
        <time>2020-06-21T19:53:38.573Z</time>
      </trkpt>
      <trkpt lat="48.19695" lon="-4.30673">
        <ele>20.291611</ele>
        <time>2020-06-21T19:53:45.610Z</time>
      </trkpt>
      <trkpt lat="48.19692" lon="-4.30646">
        <ele>19.356137</ele>
        <time>2020-06-21T19:53:48.187Z</time>
      </trkpt>
      <trkpt lat="48.19694" lon="-4.30628">
        <ele>18.695532</ele>
        <time>2020-06-21T19:53:49.776Z</time>
      </trkpt>
      <trkpt lat="48.19672" lon="-4.30604">
        <ele>17.219331</ele>
        <time>2020-06-21T19:53:53.536Z</time>
      </trkpt>
      <trkpt lat="48.1966" lon="-4.30541">
        <ele>14.836312</ele>
        <time>2020-06-21T19:53:59.402Z</time>
      </trkpt>
      <trkpt lat="48.19653" lon="-4.30414">
        <ele>10.276007</ele>
        <time>2020-06-21T19:54:11.337Z</time>
      </trkpt>
      <trkpt lat="48.19645" lon="-4.30355">
        <ele>9.349462</ele>
        <time>2020-06-21T19:54:17.577Z</time>
      </trkpt>
      <trkpt lat="48.19611" lon="-4.30334">
        <ele>8.509381</ele>
        <time>2020-06-21T19:54:23.157Z</time>
      </trkpt>
      <trkpt lat="48.19599" lon="-4.30293">
        <ele>7.820892</ele>
        <time>2020-06-21T19:54:27.955Z</time>
      </trkpt>
      <trkpt lat="48.19568" lon="-4.30308">
        <ele>7.076898</ele>
        <time>2020-06-21T19:54:33.149Z</time>
      </trkpt>
      <trkpt lat="48.19505" lon="-4.30281">
        <ele>5.843267</ele>
        <time>2020-06-21T19:54:43.949Z</time>
      </trkpt>
      <trkpt lat="48.19492" lon="-4.30275">
        <ele>5.659053</ele>
        <time>2020-06-21T19:54:46.214Z</time>
      </trkpt>
      <trkpt lat="48.19492" lon="-4.30275">
        <ele>5.659053</ele>
        <time>2020-06-21T19:54:46.218Z</time>
      </trkpt>
      <trkpt lat="48.19478" lon="-4.30269">
        <ele>5.468204</ele>
        <time>2020-06-21T19:54:48.661Z</time>
      </trkpt>
      <trkpt lat="48.19464" lon="-4.30264">
        <ele>5.27421</ele>
        <time>2020-06-21T19:54:51.064Z</time>
      </trkpt>
      <trkpt lat="48.19451" lon="-4.30259">
        <ele>5.093043</ele>
        <time>2020-06-21T19:54:53.278Z</time>
      </trkpt>
      <trkpt lat="48.19449" lon="-4.30258">
        <ele>5.069346</ele>
        <time>2020-06-21T19:54:53.547Z</time>
      </trkpt>
      <trkpt lat="48.19432" lon="-4.3025">
        <ele>4.829592</ele>
        <time>2020-06-21T19:54:56.467Z</time>
      </trkpt>
      <trkpt lat="48.1943" lon="-4.3025">
        <ele>4.804623</ele>
        <time>2020-06-21T19:54:56.736Z</time>
      </trkpt>
      <trkpt lat="48.19416" lon="-4.30243">
        <ele>4.610477</ele>
        <time>2020-06-21T19:54:59.064Z</time>
      </trkpt>
      <trkpt lat="48.19375" lon="-4.30227">
        <ele>4.049374</ele>
        <time>2020-06-21T19:55:05.902Z</time>
      </trkpt>
      <trkpt lat="48.19285" lon="-4.30177">
        <ele>3.389874</ele>
        <time>2020-06-21T19:55:21.977Z</time>
      </trkpt>
      <trkpt lat="48.19248" lon="-4.30152">
        <ele>3.17551</ele>
        <time>2020-06-21T19:55:29.257Z</time>
      </trkpt>
      <trkpt lat="48.19145" lon="-4.30085">
        <ele>3.032756</ele>
        <time>2020-06-21T19:55:52.066Z</time>
      </trkpt>
      <trkpt lat="48.19116" lon="-4.30072">
        <ele>3.14337</ele>
        <time>2020-06-21T19:55:59.245Z</time>
      </trkpt>
      <trkpt lat="48.19063" lon="-4.3003">
        <ele>3.356604</ele>
        <time>2020-06-21T19:56:12.318Z</time>
      </trkpt>
      <trkpt lat="48.18926" lon="-4.29939">
        <ele>3.251043</ele>
        <time>2020-06-21T19:56:41.165Z</time>
      </trkpt>
      <trkpt lat="48.18746" lon="-4.2982">
        <ele>2.168066</ele>
        <time>2020-06-21T19:57:15.582Z</time>
      </trkpt>
      <trkpt lat="48.18635" lon="-4.29729">
        <ele>1.545336</ele>
        <time>2020-06-21T19:57:37.289Z</time>
      </trkpt>
      <trkpt lat="48.18561" lon="-4.29669">
        <ele>1.268114</ele>
        <time>2020-06-21T19:57:53.057Z</time>
      </trkpt>
      <trkpt lat="48.18537" lon="-4.2965">
        <ele>1.232531</ele>
        <time>2020-06-21T19:57:58.627Z</time>
      </trkpt>
      <trkpt lat="48.18483" lon="-4.29586">
        <ele>1.628216</ele>
        <time>2020-06-21T19:58:13.770Z</time>
      </trkpt>
      <trkpt lat="48.18474" lon="-4.29566">
        <ele>1.717733</ele>
        <time>2020-06-21T19:58:17.211Z</time>
      </trkpt>
      <trkpt lat="48.18472" lon="-4.2953">
        <ele>1.855837</ele>
        <time>2020-06-21T19:58:22.756Z</time>
      </trkpt>
      <trkpt lat="48.18468" lon="-4.29514">
        <ele>1.921191</ele>
        <time>2020-06-21T19:58:25.285Z</time>
      </trkpt>
      <trkpt lat="48.1846" lon="-4.29503">
        <ele>1.983333</ele>
        <time>2020-06-21T19:58:27.811Z</time>
      </trkpt>
      <trkpt lat="48.18434" lon="-4.29484">
        <ele>2.146155</ele>
        <time>2020-06-21T19:58:34.423Z</time>
      </trkpt>
      <trkpt lat="48.18411" lon="-4.29467">
        <ele>2.270422</ele>
        <time>2020-06-21T19:58:40.478Z</time>
      </trkpt>
      <trkpt lat="48.18391" lon="-4.29452">
        <ele>2.360419</ele>
        <time>2020-06-21T19:58:45.753Z</time>
      </trkpt>
      <trkpt lat="48.18372" lon="-4.29457">
        <ele>2.435993</ele>
        <time>2020-06-21T19:58:49.975Z</time>
      </trkpt>
      <trkpt lat="48.1835" lon="-4.29474">
        <ele>2.532484</ele>
        <time>2020-06-21T19:58:55.476Z</time>
      </trkpt>
      <trkpt lat="48.18273" lon="-4.29468">
        <ele>2.835268</ele>
        <time>2020-06-21T19:59:10.819Z</time>
      </trkpt>
      <trkpt lat="48.18053" lon="-4.29368">
        <ele>3.337497</ele>
        <time>2020-06-21T19:59:56.541Z</time>
      </trkpt>
      <trkpt lat="48.1785" lon="-4.29264">
        <ele>4.489321</ele>
        <time>2020-06-21T20:00:43.613Z</time>
      </trkpt>
      <trkpt lat="48.17688" lon="-4.29145">
        <ele>7.075915</ele>
        <time>2020-06-21T20:01:24.791Z</time>
      </trkpt>
      <trkpt lat="48.17658" lon="-4.29116">
        <ele>8.087904</ele>
        <time>2020-06-21T20:01:37.807Z</time>
      </trkpt>
      <trkpt lat="48.17649" lon="-4.29106">
        <ele>8.412898</ele>
        <time>2020-06-21T20:01:42.613Z</time>
      </trkpt>
      <trkpt lat="48.17623" lon="-4.29073">
        <ele>9.371972</ele>
        <time>2020-06-21T20:01:55.135Z</time>
      </trkpt>
      <trkpt lat="48.17596" lon="-4.29032">
        <ele>10.470955</ele>
        <time>2020-06-21T20:02:10.062Z</time>
      </trkpt>
      <trkpt lat="48.17596" lon="-4.29032">
        <ele>10.470955</ele>
        <time>2020-06-21T20:02:10.182Z</time>
      </trkpt>
      <trkpt lat="48.17582" lon="-4.29008">
        <ele>11.468688</ele>
        <time>2020-06-21T20:02:19.051Z</time>
      </trkpt>
      <trkpt lat="48.17536" lon="-4.28994">
        <ele>13.619741</ele>
        <time>2020-06-21T20:02:39.700Z</time>
      </trkpt>
      <trkpt lat="48.17528" lon="-4.28878">
        <ele>17.201731</ele>
        <time>2020-06-21T20:03:17.058Z</time>
      </trkpt>
      <trkpt lat="48.17524" lon="-4.28841">
        <ele>18.324416</ele>
        <time>2020-06-21T20:03:26.925Z</time>
      </trkpt>
      <trkpt lat="48.17572" lon="-4.28578">
        <ele>23.376463</ele>
        <time>2020-06-21T20:04:27.024Z</time>
      </trkpt>
      <trkpt lat="48.17588" lon="-4.28434">
        <ele>25.008442</ele>
        <time>2020-06-21T20:04:55.318Z</time>
      </trkpt>
      <trkpt lat="48.1762" lon="-4.28132">
        <ele>27.870838</ele>
        <time>2020-06-21T20:05:49.570Z</time>
      </trkpt>
      <trkpt lat="48.17613" lon="-4.28021">
        <ele>28.676706</ele>
        <time>2020-06-21T20:06:09.954Z</time>
      </trkpt>
      <trkpt lat="48.1759" lon="-4.2786">
        <ele>28.638285</ele>
        <time>2020-06-21T20:06:34.772Z</time>
      </trkpt>
      <trkpt lat="48.17589" lon="-4.27826">
        <ele>28.630475</ele>
        <time>2020-06-21T20:06:39.206Z</time>
      </trkpt>
      <trkpt lat="48.17585" lon="-4.27603">
        <ele>26.101016</ele>
        <time>2020-06-21T20:07:04.106Z</time>
      </trkpt>
      <trkpt lat="48.17585" lon="-4.27586">
        <ele>25.844836</ele>
        <time>2020-06-21T20:07:05.743Z</time>
      </trkpt>
      <trkpt lat="48.17576" lon="-4.27408">
        <ele>23.395398</ele>
        <time>2020-06-21T20:07:24.056Z</time>
      </trkpt>
      <trkpt lat="48.17585" lon="-4.27344">
        <ele>22.582502</ele>
        <time>2020-06-21T20:07:31.216Z</time>
      </trkpt>
      <trkpt lat="48.17588" lon="-4.27332">
        <ele>22.430652</ele>
        <time>2020-06-21T20:07:32.584Z</time>
      </trkpt>
      <trkpt lat="48.17614" lon="-4.27293">
        <ele>21.745028</ele>
        <time>2020-06-21T20:07:39.107Z</time>
      </trkpt>
      <trkpt lat="48.17638" lon="-4.27268">
        <ele>21.197794</ele>
        <time>2020-06-21T20:07:44.476Z</time>
      </trkpt>
      <trkpt lat="48.17659" lon="-4.27232">
        <ele>21.496108</ele>
        <time>2020-06-21T20:07:50.644Z</time>
      </trkpt>
      <trkpt lat="48.17746" lon="-4.27116">
        <ele>22.629157</ele>
        <time>2020-06-21T20:08:21.819Z</time>
      </trkpt>
      <trkpt lat="48.17769" lon="-4.27078">
        <ele>22.958694</ele>
        <time>2020-06-21T20:08:32.569Z</time>
      </trkpt>
      <trkpt lat="48.17838" lon="-4.26936">
        <ele>24.114294</ele>
        <time>2020-06-21T20:09:04.163Z</time>
      </trkpt>
      <trkpt lat="48.17899" lon="-4.27066">
        <ele>24.680004</ele>
        <time>2020-06-21T20:09:38.956Z</time>
      </trkpt>
      <trkpt lat="48.17901" lon="-4.27071">
        <ele>24.677531</ele>
        <time>2020-06-21T20:09:39.782Z</time>
      </trkpt>
      <trkpt lat="48.17939" lon="-4.27138">
        <ele>24.635768</ele>
        <time>2020-06-21T20:09:57.836Z</time>
      </trkpt>
      <trkpt lat="48.17957" lon="-4.27158">
        <ele>24.619839</ele>
        <time>2020-06-21T20:10:04.448Z</time>
      </trkpt>
      <trkpt lat="48.18007" lon="-4.27135">
        <ele>24.653876</ele>
        <time>2020-06-21T20:10:21.243Z</time>
      </trkpt>
      <trkpt lat="48.18063" lon="-4.27083">
        <ele>26.301671</ele>
        <time>2020-06-21T20:10:45.692Z</time>
      </trkpt>
      <trkpt lat="48.18099" lon="-4.27039">
        <ele>27.469535</ele>
        <time>2020-06-21T20:11:07.544Z</time>
      </trkpt>
      <trkpt lat="48.18153" lon="-4.26954">
        <ele>29.716196</ele>
        <time>2020-06-21T20:11:47.219Z</time>
      </trkpt>
      <trkpt lat="48.18159" lon="-4.26944">
        <ele>30.158688</ele>
        <time>2020-06-21T20:11:52.657Z</time>
      </trkpt>
      <trkpt lat="48.18135" lon="-4.26905">
        <ele>31.800008</ele>
        <time>2020-06-21T20:12:12.414Z</time>
      </trkpt>
      <trkpt lat="48.18137" lon="-4.26867">
        <ele>32.997924</ele>
        <time>2020-06-21T20:12:27.031Z</time>
      </trkpt>
      <trkpt lat="48.18131" lon="-4.26815">
        <ele>34.649379</ele>
        <time>2020-06-21T20:12:47.375Z</time>
      </trkpt>
      <trkpt lat="48.18193" lon="-4.26673">
        <ele>39.488593</ele>
        <time>2020-06-21T20:13:49.579Z</time>
      </trkpt>
      <trkpt lat="48.18253" lon="-4.26514">
        <ele>44.168774</ele>
        <time>2020-06-21T20:14:49.946Z</time>
      </trkpt>
      <trkpt lat="48.18257" lon="-4.26506">
        <ele>44.402183</ele>
        <time>2020-06-21T20:14:53.352Z</time>
      </trkpt>
      <trkpt lat="48.18262" lon="-4.26452">
        <ele>45.444355</ele>
        <time>2020-06-21T20:15:09.994Z</time>
      </trkpt>
      <trkpt lat="48.18256" lon="-4.26413">
        <ele>46.223463</ele>
        <time>2020-06-21T20:15:21.958Z</time>
      </trkpt>
      <trkpt lat="48.18263" lon="-4.26408">
        <ele>46.43078</ele>
        <time>2020-06-21T20:15:24.642Z</time>
      </trkpt>
      <trkpt lat="48.18283" lon="-4.26357">
        <ele>47.594829</ele>
        <time>2020-06-21T20:15:38.447Z</time>
      </trkpt>
      <trkpt lat="48.18326" lon="-4.26243">
        <ele>49.793159</ele>
        <time>2020-06-21T20:16:18.334Z</time>
      </trkpt>
      <trkpt lat="48.18345" lon="-4.26209">
        <ele>50.077871</ele>
        <time>2020-06-21T20:16:31.202Z</time>
      </trkpt>
      <trkpt lat="48.18356" lon="-4.26172">
        <ele>50.335204</ele>
        <time>2020-06-21T20:16:42.120Z</time>
      </trkpt>
      <trkpt lat="48.18381" lon="-4.26037">
        <ele>51.226895</ele>
        <time>2020-06-21T20:17:14.428Z</time>
      </trkpt>
      <trkpt lat="48.18387" lon="-4.25979">
        <ele>51.025271</ele>
        <time>2020-06-21T20:17:25.642Z</time>
      </trkpt>
      <trkpt lat="48.18406" lon="-4.25923">
        <ele>50.524474</ele>
        <time>2020-06-21T20:17:37.213Z</time>
      </trkpt>
      <trkpt lat="48.18424" lon="-4.25889">
        <ele>50.177891</ele>
        <time>2020-06-21T20:17:45.259Z</time>
      </trkpt>
      <trkpt lat="48.18465" lon="-4.25843">
        <ele>49.569472</ele>
        <time>2020-06-21T20:17:59.476Z</time>
      </trkpt>
      <trkpt lat="48.18475" lon="-4.25853">
        <ele>49.41801</ele>
        <time>2020-06-21T20:18:01.669Z</time>
      </trkpt>
      <trkpt lat="48.18485" lon="-4.2585">
        <ele>49.295995</ele>
        <time>2020-06-21T20:18:03.548Z</time>
      </trkpt>
      <trkpt lat="48.18528" lon="-4.25779">
        <ele>49.669269</ele>
        <time>2020-06-21T20:18:15.277Z</time>
      </trkpt>
      <trkpt lat="48.18674" lon="-4.25756">
        <ele>51.512929</ele>
        <time>2020-06-21T20:18:56.542Z</time>
      </trkpt>
      <trkpt lat="48.18692" lon="-4.25798">
        <ele>52.663191</ele>
        <time>2020-06-21T20:19:08.356Z</time>
      </trkpt>
      <trkpt lat="48.18713" lon="-4.25865">
        <ele>54.321321</ele>
        <time>2020-06-21T20:19:25.378Z</time>
      </trkpt>
      <trkpt lat="48.18715" lon="-4.25905">
        <ele>55.226287</ele>
        <time>2020-06-21T20:19:35.008Z</time>
      </trkpt>
      <trkpt lat="48.18711" lon="-4.25955">
        <ele>56.364377</ele>
        <time>2020-06-21T20:19:48.404Z</time>
      </trkpt>
      <trkpt lat="48.18775" lon="-4.25965">
        <ele>60.325313</ele>
        <time>2020-06-21T20:20:25.774Z</time>
      </trkpt>
      <trkpt lat="48.18798" lon="-4.25969">
        <ele>61.984311</ele>
        <time>2020-06-21T20:20:40.854Z</time>
      </trkpt>
      <trkpt lat="48.18834" lon="-4.25978">
        <ele>64.515873</ele>
        <time>2020-06-21T20:21:05.751Z</time>
      </trkpt>
      <trkpt lat="48.18971" lon="-4.26074">
        <ele>76.420503</ele>
        <time>2020-06-21T20:22:59.086Z</time>
      </trkpt>
      <trkpt lat="48.1905" lon="-4.25968">
        <ele>85.384513</ele>
        <time>2020-06-21T20:24:20.994Z</time>
      </trkpt>
      <trkpt lat="48.19062" lon="-4.25972">
        <ele>86.10043</ele>
        <time>2020-06-21T20:24:29.742Z</time>
      </trkpt>
      <trkpt lat="48.19103" lon="-4.26009">
        <ele>88.883463</ele>
        <time>2020-06-21T20:25:00.242Z</time>
      </trkpt>
      <trkpt lat="48.19166" lon="-4.26039">
        <ele>92.755552</ele>
        <time>2020-06-21T20:25:39.332Z</time>
      </trkpt>
      <trkpt lat="48.1917" lon="-4.26005">
        <ele>94.109363</ele>
        <time>2020-06-21T20:25:51.389Z</time>
      </trkpt>
      <trkpt lat="48.19158" lon="-4.25939">
        <ele>96.496681</ele>
        <time>2020-06-21T20:26:15.074Z</time>
      </trkpt>
      <trkpt lat="48.1916" lon="-4.25923">
        <ele>97.002956</ele>
        <time>2020-06-21T20:26:20.716Z</time>
      </trkpt>
      <trkpt lat="48.19166" lon="-4.25913">
        <ele>97.414979</ele>
        <time>2020-06-21T20:26:25.404Z</time>
      </trkpt>
      <trkpt lat="48.19179" lon="-4.25913">
        <ele>97.984749</ele>
        <time>2020-06-21T20:26:32.084Z</time>
      </trkpt>
      <trkpt lat="48.19209" lon="-4.25926">
        <ele>99.408958</ele>
        <time>2020-06-21T20:26:47.870Z</time>
      </trkpt>
      <trkpt lat="48.19221" lon="-4.2589">
        <ele>100.621974</ele>
        <time>2020-06-21T20:27:00.833Z</time>
      </trkpt>
      <trkpt lat="48.19226" lon="-4.25811">
        <ele>103.032438</ele>
        <time>2020-06-21T20:27:31.236Z</time>
      </trkpt>
      <trkpt lat="48.19279" lon="-4.2572">
        <ele>108.401891</ele>
        <time>2020-06-21T20:28:22.264Z</time>
      </trkpt>
      <trkpt lat="48.19324" lon="-4.25664">
        <ele>112.562497</ele>
        <time>2020-06-21T20:28:57.826Z</time>
      </trkpt>
      <trkpt lat="48.19327" lon="-4.2566">
        <ele>112.839101</ele>
        <time>2020-06-21T20:29:02.630Z</time>
      </trkpt>
      <trkpt lat="48.19415" lon="-4.25582">
        <ele>121.48706</ele>
        <time>2020-06-21T20:30:22.129Z</time>
      </trkpt>
      <trkpt lat="48.19414" lon="-4.25562">
        <ele>122.843745</ele>
        <time>2020-06-21T20:30:32.572Z</time>
      </trkpt>
      <trkpt lat="48.19391" lon="-4.25526">
        <ele>126.135362</ele>
        <time>2020-06-21T20:31:00.186Z</time>
      </trkpt>
      <trkpt lat="48.19396" lon="-4.25524">
        <ele>126.68288</ele>
        <time>2020-06-21T20:31:03.330Z</time>
      </trkpt>
      <trkpt lat="48.19412" lon="-4.25527">
        <ele>128.262408</ele>
        <time>2020-06-21T20:31:18.271Z</time>
      </trkpt>
      <trkpt lat="48.19504" lon="-4.25611">
        <ele>138.571633</ele>
        <time>2020-06-21T20:32:46.696Z</time>
      </trkpt>
      <trkpt lat="48.19555" lon="-4.25626">
        <ele>143.387231</ele>
        <time>2020-06-21T20:33:31.583Z</time>
      </trkpt>
      <trkpt lat="48.19584" lon="-4.25649">
        <ele>146.460299</ele>
        <time>2020-06-21T20:33:56.287Z</time>
      </trkpt>
      <trkpt lat="48.19639" lon="-4.25741">
        <ele>152.647703</ele>
        <time>2020-06-21T20:34:54.598Z</time>
      </trkpt>
      <trkpt lat="48.19672" lon="-4.25814">
        <ele>155.6572</ele>
        <time>2020-06-21T20:35:28.759Z</time>
      </trkpt>
      <trkpt lat="48.19684" lon="-4.25827">
        <ele>156.42614</ele>
        <time>2020-06-21T20:35:37.288Z</time>
      </trkpt>
      <trkpt lat="48.19749" lon="-4.25895">
        <ele>160.283012</ele>
        <time>2020-06-21T20:36:16.837Z</time>
      </trkpt>
      <trkpt lat="48.19807" lon="-4.25756">
        <ele>162.811948</ele>
        <time>2020-06-21T20:37:05.303Z</time>
      </trkpt>
      <trkpt lat="48.19847" lon="-4.25583">
        <ele>164.807047</ele>
        <time>2020-06-21T20:37:53.419Z</time>
      </trkpt>
      <trkpt lat="48.19847" lon="-4.25432">
        <ele>165.679227</ele>
        <time>2020-06-21T20:38:28.853Z</time>
      </trkpt>
      <trkpt lat="48.19822" lon="-4.25348">
        <ele>166.042441</ele>
        <time>2020-06-21T20:38:48.666Z</time>
      </trkpt>
      <trkpt lat="48.19772" lon="-4.25254">
        <ele>166.401805</ele>
        <time>2020-06-21T20:39:14.851Z</time>
      </trkpt>
      <trkpt lat="48.19772" lon="-4.25225">
        <ele>166.490734</ele>
        <time>2020-06-21T20:39:21.844Z</time>
      </trkpt>
      <trkpt lat="48.19775" lon="-4.25101">
        <ele>167.599425</ele>
        <time>2020-06-21T20:39:51.474Z</time>
      </trkpt>
      <trkpt lat="48.19783" lon="-4.25104">
        <ele>167.777762</ele>
        <time>2020-06-21T20:39:53.685Z</time>
      </trkpt>
      <trkpt lat="48.19843" lon="-4.25128">
        <ele>169.147356</ele>
        <time>2020-06-21T20:40:12.031Z</time>
      </trkpt>
      <trkpt lat="48.1986" lon="-4.25126">
        <ele>169.505138</ele>
        <time>2020-06-21T20:40:17.614Z</time>
      </trkpt>
      <trkpt lat="48.19882" lon="-4.25122">
        <ele>170.006471</ele>
        <time>2020-06-21T20:40:25.784Z</time>
      </trkpt>
      <trkpt lat="48.19931" lon="-4.25082">
        <ele>171.80245</ele>
        <time>2020-06-21T20:40:47.762Z</time>
      </trkpt>
      <trkpt lat="48.20011" lon="-4.24999">
        <ele>175.965836</ele>
        <time>2020-06-21T20:41:28.679Z</time>
      </trkpt>
      <trkpt lat="48.20081" lon="-4.24929">
        <ele>179.468479</ele>
        <time>2020-06-21T20:42:05.670Z</time>
      </trkpt>
      <trkpt lat="48.20274" lon="-4.24761">
        <ele>188.213635</ele>
        <time>2020-06-21T20:43:32.430Z</time>
      </trkpt>
      <trkpt lat="48.2032" lon="-4.24733">
        <ele>190.144234</ele>
        <time>2020-06-21T20:43:52.002Z</time>
      </trkpt>
      <trkpt lat="48.2038" lon="-4.24707">
        <ele>192.574242</ele>
        <time>2020-06-21T20:44:17.182Z</time>
      </trkpt>
      <trkpt lat="48.20463" lon="-4.24674">
        <ele>196.341197</ele>
        <time>2020-06-21T20:44:52.978Z</time>
      </trkpt>
      <trkpt lat="48.2059" lon="-4.24624">
        <ele>201.954556</ele>
        <time>2020-06-21T20:45:48.912Z</time>
      </trkpt>
      <trkpt lat="48.20608" lon="-4.24625">
        <ele>202.743762</ele>
        <time>2020-06-21T20:45:57.476Z</time>
      </trkpt>
      <trkpt lat="48.20584" lon="-4.2468">
        <ele>204.591356</ele>
        <time>2020-06-21T20:46:14.573Z</time>
      </trkpt>
      <trkpt lat="48.2057" lon="-4.24712">
        <ele>205.635562</ele>
        <time>2020-06-21T20:46:24.352Z</time>
      </trkpt>
      <trkpt lat="48.20604" lon="-4.24713">
        <ele>207.026157</ele>
        <time>2020-06-21T20:46:36.914Z</time>
      </trkpt>
      <trkpt lat="48.20626" lon="-4.24704">
        <ele>208.012694</ele>
        <time>2020-06-21T20:46:45.404Z</time>
      </trkpt>
      <trkpt lat="48.20643" lon="-4.24698">
        <ele>208.791018</ele>
        <time>2020-06-21T20:46:53.020Z</time>
      </trkpt>
      <trkpt lat="48.20676" lon="-4.24674">
        <ele>210.425391</ele>
        <time>2020-06-21T20:47:07.039Z</time>
      </trkpt>
      <trkpt lat="48.2072" lon="-4.2463">
        <ele>212.855832</ele>
        <time>2020-06-21T20:47:28.858Z</time>
      </trkpt>
      <trkpt lat="48.20928" lon="-4.24398">
        <ele>226.018333</ele>
        <time>2020-06-21T20:49:25.522Z</time>
      </trkpt>
      <trkpt lat="48.21023" lon="-4.24295">
        <ele>233.272914</ele>
        <time>2020-06-21T20:50:21.535Z</time>
      </trkpt>
      <trkpt lat="48.21045" lon="-4.24279">
        <ele>234.789097</ele>
        <time>2020-06-21T20:50:34.103Z</time>
      </trkpt>
      <trkpt lat="48.21176" lon="-4.24234">
        <ele>245.987311</ele>
        <time>2020-06-21T20:51:55.229Z</time>
      </trkpt>
      <trkpt lat="48.21268" lon="-4.24202">
        <ele>254.470632</ele>
        <time>2020-06-21T20:53:00.929Z</time>
      </trkpt>
      <trkpt lat="48.21357" lon="-4.24137">
        <ele>264.026058</ele>
        <time>2020-06-21T20:54:08.458Z</time>
      </trkpt>
      <trkpt lat="48.21468" lon="-4.24055">
        <ele>275.051709</ele>
        <time>2020-06-21T20:55:28.955Z</time>
      </trkpt>
      <trkpt lat="48.21527" lon="-4.2401">
        <ele>280.55113</ele>
        <time>2020-06-21T20:56:08.521Z</time>
      </trkpt>
      <trkpt lat="48.21566" lon="-4.23974">
        <ele>284.305526</ele>
        <time>2020-06-21T20:56:34.094Z</time>
      </trkpt>
      <trkpt lat="48.21612" lon="-4.23913">
        <ele>288.486078</ele>
        <time>2020-06-21T20:57:08.918Z</time>
      </trkpt>
      <trkpt lat="48.21705" lon="-4.23784">
        <ele>296.931392</ele>
        <time>2020-06-21T20:58:12.749Z</time>
      </trkpt>
      <trkpt lat="48.21757" lon="-4.23727">
        <ele>301.307146</ele>
        <time>2020-06-21T20:58:45.261Z</time>
      </trkpt>
      <trkpt lat="48.2178" lon="-4.23706">
        <ele>303.128538</ele>
        <time>2020-06-21T20:58:59.477Z</time>
      </trkpt>
      <trkpt lat="48.21809" lon="-4.2368">
        <ele>305.436156</ele>
        <time>2020-06-21T20:59:18.287Z</time>
      </trkpt>
      <trkpt lat="48.21837" lon="-4.23655">
        <ele>307.638755</ele>
        <time>2020-06-21T20:59:37.182Z</time>
      </trkpt>
      <trkpt lat="48.21855" lon="-4.23641">
        <ele>308.745328</ele>
        <time>2020-06-21T20:59:49.358Z</time>
      </trkpt>
      <trkpt lat="48.21867" lon="-4.23632">
        <ele>308.745328</ele>
        <time>2020-06-21T20:59:56.169Z</time>
      </trkpt>
      <trkpt lat="48.21933" lon="-4.23569">
        <ele>308.745328</ele>
        <time>2020-06-21T21:00:46.123Z</time>
      </trkpt>
      <trkpt lat="48.21946" lon="-4.23556">
        <ele>308.745328</ele>
        <time>2020-06-21T21:00:55.437Z</time>
      </trkpt>
      <trkpt lat="48.21965" lon="-4.23531">
        <ele>308.745328</ele>
        <time>2020-06-21T21:01:10.048Z</time>
      </trkpt>
      <trkpt lat="48.21967" lon="-4.23529">
        <ele>308.745328</ele>
        <time>2020-06-21T21:01:11.037Z</time>
      </trkpt>
    </trkseg>
  </trk>
</gpx>